[[{"header":{"parameterUnit":"m.s-1","parameterCategory":1,"la1":31.0,"la2":29.5877,"lo1":-88.7671,"lo2":-86.6584,"dy":0.0162,"dx":0.0185,"nx":115,"ny":88,"refTime":"2023-06-04T18:00:00:Z","depth":0,"parameterNumber":2,"parameterNumberName":"U-component_of_WINDS"},"data":[0.0,0.0,0.0,0.0,0.0,0.0,0.0,0.0,0.0,0.0,0.0,0.0,0.0,0.0,0.0,0.0,0.0,0.0,0.0,0.0,0.0,0.0,0.0,0.0,0.0,0.0,0.0,0.0,0.0,0.0,0.0,0.0,0.0,0.0,0.0,0.0,0.0,0.0,0.0,0.0,0.0,0.0,0.0,0.0,0.0,0.0,0.0,0.0,0.0,0.0,0.0,0.0,0.0,0.0,0.0,0.0,0.0,0.0,0.0,0.0,0.0,0.0,0.0,0.0,0.0,0.0,0.0,0.0,0.0,0.0,0.0,0.0,0.0,0.0,0.0,0.0,0.0,0.0,0.0,0.0,0.0,0.0,0.0,0.0,0.0,0.0,0.0,0.0,0.0,0.0,0.0,0.0,0.0,0.0,0.0,0.0,0.0,0.0,0.0,0.0,0.0,0.0,0.0,0.0,0.0,0.0,0.0,0.0,0.0,0.0,0.0,0.0,0.0,0.0,0.0,0.0,0.0,0.0,0.0,0.0,0.0,0.0,0.0,0.0,0.0,0.0,0.0,0.0,0.0,0.0,0.0,0.0,0.0,0.0,0.0,0.0,0.0,0.0,0.0,0.0,0.0,0.0,0.0,0.0,0.0,0.0,0.0,0.0,0.0,0.0,0.0,0.0,0.0,0.0,0.0,0.0,0.0,0.0,0.0,0.0,0.0,0.0,0.0,0.0,0.0,0.0,0.0,0.0,0.0,0.0,0.0,0.0,0.0,0.0,0.0,0.0,0.0,0.0,0.0,0.0,0.0,0.0,0.0,0.0,0.0,0.0,0.0,0.0,0.0,0.0,0.0,0.0,0.0,0.0,0.0,0.0,0.0,0.0,0.0,0.0,0.0,0.0,0.0,0.0,0.0,0.0,0.0,0.0,0.0,0.0,0.0,0.0,0.0,0.0,0.0,0.0,0.0,0.0,0.0,0.0,0.0,0.0,0.0,0.0,0.0,0.0,0.0,0.0,0.0,0.0,0.0,0.0,0.0,0.0,0.0,0.0,0.0,0.0,0.0,0.0,0.0,0.0,0.0,0.0,0.0,0.0,0.0,0.0,0.0,0.0,0.0,0.0,0.0,0.0,0.0,0.0,0.0,0.0,0.0,0.0,0.0,0.0,0.0,0.0,0.0,0.0,0.0,0.0,0.0,0.0,0.0,0.0,0.0,0.0,0.0,0.0,0.0,0.0,0.0,0.0,0.0,0.0,0.0,0.0,0.0,0.0,0.0,0.0,0.0,0.0,0.0,0.0,0.0,0.0,0.0,0.0,0.0,0.0,0.0,0.0,0.0,0.0,0.0,0.0,0.0,0.0,0.0,0.0,0.0,0.0,0.0,0.0,0.0,0.0,0.0,0.0,0.0,0.0,0.0,0.0,0.0,0.0,0.0,0.0,0.0,0.0,0.0,0.0,0.0,0.0,0.0,0.0,0.0,0.0,0.0,0.0,0.0,0.0,0.0,0.0,0.0,0.0,0.0,0.0,0.0,0.0,0.0,0.0,0.0,0.0,0.0,0.0,0.0,0.0,0.0,0.0,0.0,0.0,0.0,0.0,0.0,0.0,0.0,0.0,0.0,0.0,0.0,0.0,0.0,0.0,0.0,0.0,0.0,0.0,0.0,0.0,0.0,0.0,0.0,0.0,0.0,0.0,0.0,0.0,0.0,0.0,0.0,0.0,0.0,0.0,0.0,0.0,0.0,0.0,0.0,0.0,0.0,0.0,0.0,0.0,0.0,0.0,0.0,0.0,0.0,0.0,0.0,0.0,0.0,0.0,0.0,0.0,0.0,0.0,0.0,0.0,0.0,0.0,0.0,0.0,0.0,0.0,0.0,0.0,0.0,0.0,0.0,0.0,0.0,0.0,0.0,0.0,0.0,0.0,0.0,0.0,0.0,0.0,0.0,0.0,0.0,0.0,0.0,0.0,0.0,0.0,0.0,0.0,0.0,0.0,0.0,0.0,0.0,0.0,0.0,0.0,0.0,0.0,0.0,0.0,0.0,0.0,0.0,0.0,0.0,0.0,0.0,0.0,0.0,0.0,0.0,0.0,0.0,0.0,0.0,0.0,0.0,0.0,0.0,0.0,0.0,0.0,0.0,0.0,0.0,0.0,0.0,0.0,0.0,0.0,0.0,0.0,0.0,0.0,0.0,0.0,0.0,0.0,0.0,0.0,0.0,0.0,0.0,0.0,0.0,0.0,0.0,0.0,0.0,0.0,0.0,0.0,0.0,0.0,0.0,0.0,0.0,0.0,0.0,0.0,0.0,0.0,0.0,0.0,0.0,0.0,0.0,0.0,0.0,0.0,0.0,0.0,0.0,0.0,0.0,0.0,0.0,0.0,0.0,0.0,0.0,0.0,0.0,0.0,0.0,0.0,0.0,0.0,0.0,0.0,0.0,0.0,0.0,0.0,0.0,0.0,0.0,0.0,0.0,0.0,0.0,0.0,0.0,0.0,0.0,0.0,0.0,0.0,0.0,0.0,0.0,0.0,0.0,0.0,0.0,0.0,0.0,0.0,0.0,0.0,0.0,0.0,0.0,0.0,0.0,0.0,0.0,0.0,0.0,0.0,0.0,0.0,0.0,0.0,0.0,0.0,0.0,0.0,0.0,0.0,0.0,0.0,0.0,0.0,0.0,0.0,0.0,0.0,0.0,0.0,0.0,0.0,0.0,0.0,0.0,0.0,0.0,0.0,0.0,0.0,0.0,0.0,0.0,0.0,0.0,0.0,0.0,0.0,0.0,0.0,0.0,0.0,0.0,0.0,0.0,0.0,0.0,0.0,0.0,0.0,0.0,0.0,0.0,0.0,0.0,0.0,0.0,0.0,0.0,0.0,0.0,0.0,0.0,0.0,0.0,0.0,0.0,0.0,0.0,0.0,0.0,0.0,0.0,0.0,0.0,0.0,0.0,0.0,0.0,0.0,0.0,0.0,0.0,0.0,0.0,0.0,0.0,0.0,0.0,0.0,0.0,0.0,0.0,0.0,0.0,0.0,0.0,0.0,0.0,0.0,0.0,0.0,0.0,0.0,0.0,0.0,0.0,0.0,0.0,0.0,0.0,0.0,0.0,0.0,0.0,0.0,0.0,0.0,0.0,0.0,0.0,0.0,0.0,0.0,0.0,0.0,0.0,0.0,0.0,0.0,0.0,0.0,0.0,0.0,0.0,0.0,0.0,0.0,0.0,0.0,0.0,0.0,0.0,0.0,0.0,0.0,0.0,0.0,0.0,0.0,0.0,0.0,0.0,0.0,0.0,0.0,0.0,0.0,0.0,0.0,0.0,0.0,0.0,0.0,0.0,0.0,0.0,0.0,0.0,0.0,0.0,0.0,0.0,0.0,0.0,0.0,0.0,0.0,0.0,0.0,0.0,0.0,0.0,0.0,0.0,0.0,0.0,0.0,0.0,0.0,0.0,0.0,0.0,0.0,0.0,0.0,0.0,0.0,0.0,0.0,0.0,0.0,0.0,0.0,0.0,0.0,0.0,0.0,0.0,0.0,0.0,0.0,0.0,0.0,0.0,0.0,0.0,0.0,0.0,0.0,0.0,0.0,0.0,0.0,0.0,0.0,0.0,0.0,0.0,0.0,0.0,0.0,0.0,0.0,0.0,0.0,0.0,0.0,0.0,0.0,0.0,0.0,0.0,0.0,0.0,0.0,0.0,0.0,0.0,0.0,0.0,0.0,0.0,0.0,0.0,0.0,0.0,0.0,0.0,0.0,0.0,0.0,0.0,0.0,0.0,0.0,0.0,0.0,0.0,0.0,0.0,0.0,0.0,0.0,0.0,0.0,0.0,0.0,0.0,0.0,0.0,0.0,0.0,0.0,0.0,0.0,0.0,0.0,0.0,0.0,0.0,0.0,0.0,0.0,0.0,0.0,0.0,0.0,0.0,0.0,0.0,0.0,0.0,0.0,0.0,0.0,0.0,0.0,0.0,0.0,0.0,0.0,0.0,0.0,0.0,0.0,0.0,0.0,0.0,0.0,0.0,0.0,0.0,0.0,0.0,0.0,0.0,0.0,0.0,0.0,0.0,0.0,0.0,0.0,0.0,0.0,0.0,0.0,0.0,0.0,0.0,0.0,0.0,0.0,0.0,0.0,0.0,0.0,0.0,0.0,0.0,0.0,0.0,0.0,0.0,0.0,0.0,0.0,0.0,0.0,0.0,0.0,0.0,0.0,0.0,0.0,0.0,0.0,0.0,0.0,0.0,0.0,0.0,0.0,0.0,0.0,0.7241,0.0,0.0,0.0,0.0,0.0,0.0,0.0,0.0,0.0,0.0,0.0,0.0,0.0,0.0,0.0,0.0,0.0,0.0,0.0,0.0,0.0,0.0,0.0,0.0,0.0,0.0,0.0,0.0,0.0,0.0,0.0,0.0,0.0,0.0,0.0,0.0,0.0,0.0,0.0,0.0,0.0,0.0,0.0,0.0,0.0,0.0,0.0,0.0,0.0,0.0,0.0,0.0,0.0,0.0,0.0,0.0,0.0,0.0,0.0,0.0,0.0,0.0,0.0,0.0,0.0,0.0,0.0,0.0,0.0,0.0,0.0,0.0,0.0,0.0,0.0,0.0,0.0,0.0,0.0,0.0,0.0,0.0,0.0,0.0,0.0,0.0,0.0,0.0,0.0,0.0,0.0,0.0,0.0,0.0,0.0,0.0,0.0,0.0,0.0,0.0,0.0,0.0,0.0,0.0,0.0,0.0,0.0,0.0,0.0,0.0,0.7608,0.7199,0.7342,0.7156,0.6571,0.0,0.0,0.0,0.0,0.0,0.0,0.0,0.0,0.0,0.0,0.0,0.0,0.0,0.0,0.0,0.0,0.0,0.0,0.0,0.0,0.0,0.0,0.0,0.0,0.0,0.0,0.0,0.0,0.0,0.0,0.0,0.0,0.0,0.0,0.0,0.0,0.0,0.0,0.0,0.0,0.0,0.0,0.0,0.0,0.0,0.0,0.0,0.0,0.0,0.0,0.0,0.0,0.0,0.0,0.0,0.0,0.0,0.0,0.0,0.0,0.0,0.0,0.0,0.0,0.0,0.0,0.0,0.0,0.0,0.0,0.0,0.0,0.0,0.0,0.0,0.0,0.0,0.0,0.0,0.0,0.0,0.0,0.0,0.0,0.0,0.0,0.0,0.0,0.0,0.0,0.0,0.0,0.0,0.0,0.0,0.0,0.0,0.0,0.0,0.0,0.0,0.0,0.0,0.0,0.0,0.0,0.0,0.0,0.0,0.0,0.0,0.0,0.7109,0.6734,0.6186,0.0,0.0,0.0,0.0,0.0,0.0,0.0,0.0,0.0,0.0,0.0,0.0,0.0,0.0,0.0,0.0,0.0,0.0,0.0,0.0,0.0,0.0,0.0,0.0,0.0,0.0,0.0,0.0,0.0,0.0,0.0,0.0,0.0,0.0,0.0,0.0,0.0,0.0,0.0,0.0,0.0,0.0,0.0,0.0,0.0,0.0,0.0,0.0,0.0,0.0,0.0,0.0,0.0,0.0,0.0,0.0,0.0,0.0,0.0,0.0,0.0,0.0,0.0,0.0,0.0,0.0,0.0,0.0,0.0,0.0,0.0,0.0,0.0,0.0,0.0,0.0,0.0,0.0,0.0,0.0,0.0,0.0,0.0,0.0,0.0,0.0,0.0,0.0,0.0,0.0,0.0,0.0,0.0,0.0,0.0,0.0,0.0,0.0,0.0,0.0,0.0,0.0,0.0,0.0,0.0,0.0,0.0,0.0,0.0,0.0,0.7336,0.7982,0.7752,0.0,0.6477,0.0,0.0,0.0,0.0,0.0,0.0,0.0,0.0,0.0,0.0,0.0,0.0,0.0,0.0,0.0,0.0,0.0,0.0,0.0,0.0,0.0,0.0,0.0,0.0,0.0,0.0,0.0,0.0,0.0,0.0,0.0,0.0,0.0,0.0,0.0,0.0,0.0,0.0,0.0,0.0,0.0,0.0,0.0,0.0,0.0,0.0,0.0,0.0,0.0,0.0,0.0,0.0,0.0,0.0,0.0,0.0,0.0,0.0,0.0,0.0,0.0,0.0,0.0,0.0,0.0,0.0,0.0,0.0,0.0,0.0,0.0,0.0,0.0,0.0,0.0,0.0,0.0,0.0,0.0,0.0,0.0,0.0,0.0,0.0,0.0,0.0,0.0,0.0,0.0,0.0,0.0,0.0,0.0,0.0,0.0,0.0,0.0,0.0,0.0,0.0,0.0,0.0,0.0,0.0,0.0,0.0,0.0,0.0,0.0,0.0,0.6976,0.7553,0.6974,0.6245,0.0,0.0,0.0,0.0,0.0,0.0,0.0,0.0,0.0,0.0,0.0,0.0,0.0,0.0,0.0,0.0,0.0,0.0,0.0,0.0,0.0,0.0,0.0,0.0,0.0,0.0,0.0,0.0,0.0,0.0,0.0,0.0,0.0,0.0,0.0,0.0,0.0,0.0,0.0,0.0,0.0,0.0,0.0,0.0,0.0,0.0,0.0,0.0,0.0,0.0,0.0,0.0,0.0,0.0,0.0,0.0,0.0,0.0,0.0,0.0,0.0,0.0,0.0,0.0,0.0,0.0,0.0,0.0,0.0,0.0,0.0,0.0,0.0,0.0,0.0,0.0,0.0,0.0,0.0,0.0,0.0,0.0,0.0,0.0,0.0,0.0,0.0,0.0,0.0,0.0,0.0,0.0,0.0,0.0,0.0,0.0,0.0,0.0,0.0,0.0,0.0,0.0,0.0,0.0,0.0,0.0,0.0,0.0,0.0,0.0,0.7079,0.6973,0.7348,0.6221,0.5349,0.4885,0.0,0.0,0.0,0.0,0.0,0.0,0.0,0.0,0.0,0.0,0.0,0.0,0.0,0.0,0.0,0.0,0.0,0.0,0.0,0.0,0.0,0.0,0.0,0.0,0.0,0.0,0.0,0.0,0.0,0.0,0.0,0.0,0.0,0.0,0.0,0.0,0.0,0.0,0.0,0.0,0.0,0.0,0.0,0.0,0.0,0.0,0.0,0.0,0.0,0.0,0.0,0.0,0.0,0.0,0.0,0.0,0.0,0.0,0.0,0.0,0.0,0.0,0.0,0.0,0.0,0.0,0.0,0.0,0.0,0.0,0.0,0.0,0.0,0.0,0.0,0.0,0.0,0.0,0.0,0.0,0.0,0.0,0.0,0.0,0.0,0.0,0.0,0.0,0.0,0.0,0.0,0.0,0.0,0.0,0.0,0.0,0.0,0.0,0.0,0.0,0.0,0.0,0.0,0.0,0.0,0.0,0.0,0.0,0.9653,0.8251,0.7607,0.7871,0.5894,0.4995,0.0,0.0,0.0,0.0,0.0,0.0,0.0,0.0,0.0,0.0,0.0,0.0,0.0,0.0,0.0,0.0,0.0,0.0,0.0,0.0,0.0,0.0,0.0,0.0,0.0,0.0,0.0,0.0,0.0,0.0,0.0,0.0,0.0,0.0,0.0,0.0,0.0,0.0,0.0,0.0,0.0,0.0,0.0,0.0,0.0,0.0,0.0,0.0,0.0,0.0,0.0,0.0,0.0,0.0,0.0,0.0,0.0,0.0,0.0,0.0,0.0,0.0,0.0,0.0,0.0,0.0,0.0,0.0,0.0,0.0,0.0,0.0,0.0,0.0,0.0,0.0,0.0,0.0,0.0,0.0,0.0,0.0,0.0,0.0,0.0,0.0,0.0,0.0,0.0,0.0,0.0,0.0,0.0,0.0,0.0,0.0,0.0,0.0,0.0,0.0,0.0,0.0,0.0,0.0,0.0,0.0,0.0,0.0,0.0,0.7764,0.7237,0.6849,0.6689,0.5607,0.5059,0.0,0.0,0.0,0.0,0.0,0.0,0.0,0.0,0.0,0.0,0.0,0.0,0.0,0.0,0.0,0.0,0.0,0.0,0.0,0.0,0.0,0.0,0.0,0.0,0.0,0.0,0.0,0.0,0.0,0.0,0.0,0.0,0.0,0.0,0.0,0.0,0.0,0.0,0.0,0.0,0.0,0.0,0.0,0.0,0.0,0.0,0.0,0.0,0.0,0.0,0.0,0.0,0.0,0.0,0.0,0.0,0.0,0.0,0.0,0.0,0.0,0.0,0.0,0.0,0.0,0.0,0.0,0.0,0.0,0.0,0.0,0.0,0.0,0.0,0.0,0.0,0.0,0.0,0.0,0.0,0.0,0.0,0.0,0.0,0.0,0.0,0.0,0.0,0.0,0.0,0.0,0.0,0.0,0.0,0.0,0.0,0.0,0.0,0.0,0.0,0.0,0.0,0.0,0.0,0.0,0.0,0.0,0.0,0.0,0.6797,0.0,0.6555,0.5939,0.5175,0.4651,0.0,0.0,0.0,0.0,0.0,0.0,0.0,0.0,0.0,0.0,0.0,0.0,0.0,0.0,0.0,0.0,0.0,0.0,0.0,0.0,0.0,0.0,0.0,0.0,0.0,0.0,0.0,0.0,0.0,0.0,0.0,0.0,0.0,0.0,0.0,0.0,0.0,0.0,0.0,0.0,0.0,0.0,0.0,0.0,0.0,0.0,0.0,0.0,0.0,0.0,0.0,0.0,0.0,0.0,0.0,0.0,0.0,0.0,0.0,0.0,0.0,0.0,0.0,0.0,0.0,0.0,0.0,0.0,0.0,0.0,0.0,0.0,0.0,0.0,0.0,0.0,0.0,0.0,0.0,0.0,0.0,0.0,0.0,0.0,0.0,0.0,0.0,0.0,0.0,0.0,0.0,0.0,0.0,0.0,0.0,0.0,0.0,0.0,0.0,0.0,0.0,0.0,0.0,0.0,0.0,0.0,0.0,0.0,0.7116,0.7163,0.7264,0.6805,0.5827,0.4524,0.3739,0.0,0.0,0.0,0.0,0.0,0.0,0.0,0.0,0.0,0.0,0.0,0.0,0.0,0.0,0.0,0.0,0.0,0.0,0.0,0.0,0.0,0.0,0.0,0.0,0.0,0.0,0.0,0.0,0.0,0.0,0.0,0.0,0.0,0.0,0.0,0.0,0.0,0.0,0.0,0.0,0.0,0.0,0.0,0.0,0.0,0.0,0.0,0.0,0.0,0.0,0.0,0.0,0.0,0.0,0.0,0.0,0.0,0.0,0.0,0.0,0.0,0.0,0.0,0.0,0.0,0.0,0.0,0.0,0.0,0.0,0.0,0.0,0.0,0.0,0.0,0.0,0.0,0.0,0.0,0.0,0.0,0.0,0.0,0.0,0.0,0.0,0.0,0.0,0.0,0.0,0.0,0.0,0.0,0.0,0.0,0.0,0.0,0.0,0.0,0.0,0.0,0.0,0.0,0.0,0.0,0.0,0.0,0.0,0.0,0.6504,0.61,0.5997,0.6141,0.4469,0.3867,0.0,0.0,0.0,0.0,0.0,0.0,0.0,0.0,0.0,0.0,0.0,0.0,0.0,0.0,0.0,0.0,0.0,0.0,0.0,0.0,0.0,0.0,0.0,0.0,0.0,0.0,0.0,0.0,0.0,0.0,0.0,0.0,0.0,0.0,0.0,0.0,0.0,0.0,0.0,0.0,0.0,0.0,0.0,0.0,0.0,0.0,0.0,0.0,0.0,0.0,0.0,0.0,0.0,0.0,0.0,0.0,0.0,0.0,0.0,0.0,0.0,0.0,0.0,0.0,0.0,0.0,0.0,0.0,0.0,0.0,0.0,0.0,0.0,0.0,0.0,0.0,0.0,0.0,0.0,0.0,0.0,0.0,0.0,0.0,0.0,0.0,0.0,0.0,0.0,0.0,0.0,0.0,0.0,0.0,0.0,0.0,0.0,0.0,0.0,0.0,0.0,0.0,0.0,0.0,0.0,0.0,0.0,0.0,0.0,0.6065,0.5573,0.5391,0.5579,0.425,0.3688,0.3965,0.0,0.0,0.0,0.0,0.0,0.0,0.0,0.0,0.0,0.0,0.0,0.0,0.0,0.0,0.0,0.0,0.0,0.0,0.0,0.0,0.0,0.0,0.0,0.0,0.0,0.0,0.0,0.0,0.0,0.0,0.0,0.0,0.0,0.0,0.0,0.0,0.0,0.0,0.0,0.0,0.0,0.0,0.0,0.0,0.0,0.0,0.0,0.0,0.0,0.0,0.0,0.0,0.0,0.0,0.0,0.0,0.0,0.0,0.0,0.0,0.0,0.0,0.0,0.0,0.0,0.0,0.0,0.0,0.0,0.0,0.0,0.0,0.0,0.0,0.0,0.0,0.0,0.0,0.0,0.0,0.0,0.0,0.0,0.0,0.0,0.0,0.0,0.0,0.0,0.0,0.0,0.0,0.0,0.0,0.0,0.0,0.0,0.0,0.0,0.0,0.0,0.0,0.0,0.0,0.0,0.0,0.0,0.0,0.5886,0.5609,0.5112,0.4335,0.3946,0.327,0.0,0.0,0.0,0.0,0.0,0.0,0.0,0.0,0.0,0.0,0.0,0.0,0.0,0.0,0.0,0.0,0.0,0.0,0.0,0.0,0.0,0.0,0.0,0.0,0.0,0.0,0.0,0.0,0.0,0.0,0.0,0.0,0.0,0.0,0.0,0.0,0.0,0.0,0.0,0.0,0.0,0.0,0.0,0.0,0.0,0.0,0.0,0.0,0.0,0.0,0.0,0.0,0.0,0.0,0.0,0.0,0.0,0.0,0.0,0.0,0.0,0.0,0.0,0.0,0.0,0.0,0.0,0.0,0.0,0.0,0.0,0.0,0.0,0.0,0.0,0.0,0.0,0.0,0.0,0.0,0.0,0.0,0.0,0.0,0.0,0.0,0.0,0.0,0.0,0.0,0.0,0.0,0.0,0.0,0.0,0.0,0.0,0.0,0.0,0.0,0.0,0.0,0.0,0.0,0.0,0.0,0.0,0.0,0.0,0.667,0.5763,0.524,0.5132,0.3953,0.3347,0.0,0.0,0.0,0.0,0.0,0.0,0.0,0.0,0.0,0.0,0.0,0.0,0.0,0.0,0.0,0.0,0.0,0.0,0.0,0.0,0.0,0.0,0.0,0.0,0.0,0.0,0.0,0.0,0.0,0.0,0.0,0.0,0.0,0.0,0.0,0.0,0.0,0.0,0.0,0.0,0.0,0.0,0.0,0.0,0.0,0.0,0.0,0.0,0.0,0.0,0.0,0.0,0.0,0.0,0.0,0.0,0.0,0.0,0.0,0.0,0.0,0.0,0.0,0.0,0.0,0.0,0.0,0.0,0.0,0.0,0.0,0.0,0.0,0.0,0.0,0.0,0.0,0.0,0.0,0.0,0.0,0.0,0.0,0.0,0.0,0.0,0.0,0.0,0.0,0.0,0.0,0.0,0.0,0.0,0.0,0.0,0.0,0.0,0.0,0.0,0.0,0.0,0.0,0.0,0.0,0.0,0.0,0.0,0.7273,0.6313,0.5971,0.5514,0.4928,0.376,0.3025,0.0,0.0,0.0,0.0,0.0,0.0,0.0,0.0,0.0,0.0,0.0,0.0,0.0,0.0,0.0,0.0,0.0,0.0,0.0,0.0,0.0,0.0,0.0,0.0,0.0,0.0,0.0,0.0,0.0,0.0,0.0,0.0,0.0,0.0,0.0,0.0,0.0,0.0,0.0,0.0,0.0,0.0,0.0,0.0,0.0,0.0,0.0,0.0,0.0,0.0,0.0,0.0,0.0,0.0,0.0,0.0,0.0,0.0,0.0,0.0,0.0,0.0,0.0,0.0,0.0,0.0,0.0,0.0,0.0,0.0,0.0,0.0,0.0,0.0,0.0,0.0,0.0,0.0,0.0,0.0,0.0,0.0,0.0,0.0,0.0,0.0,0.0,0.0,0.0,0.0,0.0,0.0,0.0,0.0,0.0,0.0,0.0,0.0,0.0,0.0,0.0,0.0,0.0,0.0,0.0,0.0,0.0,0.0,0.7366,0.5438,0.6067,0.5677,0.4134,0.3454,0.2555,0.0,0.0,0.0,0.0,0.0,0.0,0.0,0.0,0.0,0.0,0.0,0.0,0.0,0.0,0.0,0.0,0.0,0.0,0.0,0.0,0.0,0.0,0.0,0.0,0.0,0.0,0.0,0.0,0.0,0.0,0.0,0.0,0.0,0.0,0.0,0.0,0.0,0.0,0.0,0.0,0.0,0.0,0.0,0.0,0.0,0.0,0.0,0.0,0.0,0.0,0.0,0.0,0.0,0.0,0.0,0.0,0.0,0.0,0.0,0.0,0.0,0.0,0.0,0.0,0.0,0.0,0.0,0.0,0.0,0.0,0.0,0.0,0.0,0.0,0.0,0.0,0.0,0.0,0.0,0.0,0.0,0.0,0.0,0.0,0.0,0.0,0.0,0.0,0.0,0.0,0.0,0.0,0.0,0.0,0.0,0.0,0.0,0.0,0.0,0.0,0.0,0.0,0.0,0.0,0.0,0.0,0.0,0.0,0.6763,0.5956,0.5489,0.4852,0.3964,0.3005,0.2267,0.0,0.0,0.0,0.0,0.0,0.0,0.0,0.0,0.0,0.0,0.0,0.0,0.0,0.0,0.0,0.0,0.0,0.0,0.0,0.0,0.0,0.0,0.0,0.0,0.0,0.0,0.0,0.0,0.0,0.0,0.0,0.0,0.0,0.0,0.0,0.0,0.0,0.0,0.0,0.0,0.0,0.0,0.0,0.0,0.0,0.0,0.0,0.0,0.7608,0.0,0.0,0.0,0.0,0.0,0.0,0.0,0.0,0.0,0.0,0.0,0.0,0.0,0.0,0.0,0.0,0.0,0.0,0.0,0.0,0.0,0.0,0.0,0.0,0.0,0.0,0.0,0.0,0.0,0.0,0.0,0.0,0.0,0.0,0.0,0.0,0.0,0.0,0.0,0.0,0.0,0.0,0.0,0.0,0.0,0.0,0.0,0.0,0.0,0.0,0.0,0.0,0.0,0.0,0.0,0.0,0.0,0.0,0.0,0.6243,0.5423,0.4766,0.4072,0.334,0.2369,0.1706,0.0,0.0,0.0,0.0,0.0,0.0,0.0,0.0,0.0,0.0,0.0,0.0,0.0,0.0,0.0,0.0,0.0,0.0,0.0,0.0,0.0,0.0,0.0,0.0,0.0,0.0,0.0,0.0,0.0,0.0,0.0,0.0,0.0,0.0,0.0,0.0,0.0,0.0,0.0,0.0,0.0,0.0,0.0,0.0,0.0,0.0,0.0,0.0,0.0,0.0,0.0,0.0,0.0,0.0,0.0,0.0,0.0,0.0,0.0,0.0,0.0,0.0,0.0,0.0,0.0,0.0,0.0,0.0,0.0,0.0,0.0,0.0,0.0,0.0,0.0,0.0,0.0,0.0,0.0,0.0,0.0,0.0,0.0,0.0,0.0,0.0,0.0,0.0,0.0,0.0,0.0,0.0,0.0,0.0,0.0,0.0,0.0,0.0,0.0,0.0,0.0,0.0,0.0,0.0,0.0,0.0,0.0,0.6574,0.5691,0.4586,0.4083,0.3441,0.2658,0.1777,0.1192,0.0883,0.0,0.0,0.0,0.0,0.0,0.0,0.0,0.0,0.0,0.0,0.0,0.0,0.0,0.0,0.0,0.0,0.0,0.0,0.0,0.0,0.0,0.0,0.0,0.0,0.0,0.0,0.0,0.0,0.0,0.0,0.0,0.0,0.0,0.0,0.0,0.0,0.0,0.0,0.9784,0.904,0.0,0.0,0.0,0.0,0.0,0.0,0.0,0.0,0.6705,0.0,0.0,0.0,0.0,0.0,0.0,0.0,0.0,0.0,0.0,0.0,0.0,0.0,0.0,0.0,0.0,0.0,0.0,0.0,0.0,0.0,0.0,0.0,0.0,0.0,0.0,0.0,0.0,0.0,0.0,0.0,0.0,0.0,0.0,0.0,0.0,0.0,0.0,0.0,0.0,0.0,0.0,0.0,0.0,0.0,0.0,0.0,0.0,0.0,0.0,0.0,0.0,0.0,0.0,0.0,0.0,0.711,0.5838,0.4881,0.4272,0.3754,0.3118,0.2378,0.1775,0.123,0.0768,0.0,0.0,0.0,0.0,0.0,0.0,0.0,0.0,0.0,0.0,0.0,0.0,0.0,0.0,0.0,0.0,0.0,0.0,0.0,0.0,0.0,0.0,0.0,0.0,0.0,0.0,0.0,0.0,0.0,0.0,0.0,0.0,0.0,0.0,0.0,0.0,0.0,0.0,0.0,0.9033,0.8301,0.0,0.0,0.0,0.0,0.0,0.0,0.0,0.0,0.5386,0.0,0.0,0.0,0.0,0.0,0.0,0.0,0.0,0.0,0.0,0.0,0.0,0.0,0.0,0.0,0.0,0.0,0.0,0.0,0.0,0.0,0.0,0.0,0.0,0.0,0.0,0.0,0.0,0.0,0.0,0.0,0.0,0.0,0.0,0.0,0.0,0.0,0.0,0.0,0.0,0.0,0.0,0.0,0.0,0.0,0.0,0.0,0.0,0.0,0.0,0.0,0.0,0.0,0.0,0.0,0.668,0.5104,0.4137,0.384,0.3119,0.2522,0.211,0.1548,0.1065,0.0,0.0,0.0,0.0,0.0,0.0,0.0,0.0,0.0,0.0,0.0,0.0,0.0,0.0,0.0,0.0,0.0,0.0,0.0,0.0,0.0,0.0,0.0,0.0,0.0,0.0,0.0,0.0,0.0,0.0,0.0,0.0,0.0,0.0,0.0,0.0,0.0,0.0,0.0,0.0,0.8648,0.8001,0.7594,0.0,0.0,0.0,0.0,0.0,0.0,0.5875,0.5142,0.0,0.0,0.0,0.0,0.0,0.0,0.0,0.0,0.0,0.0,0.0,0.0,0.0,0.0,0.0,0.0,0.0,0.0,0.0,0.0,0.0,0.0,0.0,0.0,0.0,0.0,0.0,0.0,0.0,0.0,0.0,0.0,0.0,0.0,0.0,0.0,0.0,0.0,0.0,0.0,0.0,0.0,0.0,0.0,0.0,0.0,0.0,0.0,0.0,0.0,0.0,0.0,0.0,0.0,0.0,0.6398,0.4616,0.3551,0.3338,0.2524,0.2037,0.185,0.1327,0.0934,0.0,0.0,0.0,0.0,0.0,0.0,0.0,0.0,0.0,0.0,0.0,0.0,0.0,0.0,0.0,0.0,0.0,0.0,0.0,0.0,0.0,0.0,0.0,0.0,0.0,0.0,0.0,0.0,0.0,0.0,0.0,0.0,0.0,0.0,0.0,0.0,0.0,0.0,0.0,0.0,0.0,0.7671,0.7455,0.7618,0.0,0.0,0.0,0.0,0.6422,0.5629,0.0,0.0,0.0,0.0,0.0,0.0,0.0,0.0,0.0,0.0,0.0,0.0,0.0,0.0,0.0,0.0,0.0,0.0,0.0,0.0,0.0,0.0,0.0,0.0,0.0,0.0,0.0,0.0,0.0,0.0,0.0,0.0,0.0,0.0,0.0,0.0,0.0,0.0,0.0,0.0,0.0,0.0,0.0,0.0,0.0,0.0,0.0,0.0,0.0,0.0,0.0,0.0,0.0,0.0,0.0,0.0,0.6514,0.4554,0.3324,0.2891,0.2372,0.1983,0.1726,0.1312,0.1034,0.0,0.0,0.0,0.0,0.0,0.0,0.0,0.0,0.0,0.0,0.0,0.0,0.0,0.0,0.0,0.0,0.0,0.0,0.0,0.0,0.0,0.0,0.0,0.0,0.0,0.0,0.0,0.0,0.0,0.0,0.0,0.0,0.0,0.0,0.0,0.0,0.0,0.0,0.0,0.0,0.0,0.7406,0.7776,0.7314,0.7065,0.0,0.0,0.6109,0.6352,0.5279,0.0,0.0,0.0,0.0,0.0,0.0,0.0,0.0,0.0,0.0,0.0,0.0,0.0,0.0,0.0,0.0,0.0,0.0,0.0,0.0,0.0,0.0,0.0,0.0,0.0,0.0,0.0,0.0,0.0,0.0,0.0,0.0,0.0,0.0,0.0,0.0,0.0,0.0,0.0,0.0,0.0,0.0,0.0,0.0,0.0,0.0,0.0,0.0,0.0,0.0,0.0,0.0,0.0,0.0,0.0,0.6378,0.5774,0.3938,0.2807,0.2474,0.2117,0.1797,0.1477,0.1227,0.1041,0.0,0.0,0.0,0.0,0.0,0.0,0.0,0.0,0.0,0.0,0.0,0.0,0.0,0.0,0.0,0.0,0.0,0.0,0.0,0.0,0.0,0.0,0.0,0.0,0.0,0.0,0.0,0.0,0.0,0.0,0.0,0.0,0.0,0.0,0.0,0.0,0.0,0.0,0.0,0.0,0.0,0.0,0.7661,0.7148,0.0,0.0,0.0,0.5949,0.5611,0.0,0.0,0.0,0.0,0.0,0.0,0.0,0.0,0.0,0.0,0.0,0.0,0.0,0.0,0.0,0.0,0.0,0.0,0.0,0.0,0.0,0.0,0.0,0.0,0.0,0.0,0.0,0.0,0.0,0.0,0.0,0.0,0.0,0.0,0.0,0.0,0.0,0.0,0.0,0.0,0.0,0.0,0.0,0.0,0.0,0.0,0.0,0.0,0.0,0.0,0.0,0.0,0.0,0.0,0.0,0.0,0.0,0.5372,0.348,0.2396,0.2159,0.1878,0.16,0.126,0.1192,0.0,0.0,0.0,0.0,0.0,0.0,0.0,0.0,0.0,0.0,0.0,0.0,0.0,0.0,0.0,0.0,0.0,0.0,0.0,0.0,0.0,0.0,0.0,0.0,0.0,0.0,0.0,0.998,0.0,0.0,0.0,0.0,0.0,0.0,0.0,0.0,0.0,0.0,0.0,0.0,0.0,0.0,0.8349,0.7641,0.7148,0.6683,0.0,0.0,0.5933,0.5126,0.515,0.5057,0.0,0.0,0.0,0.0,0.0,0.0,0.0,0.0,0.0,0.0,0.0,0.0,0.0,0.0,0.0,0.0,0.0,0.0,0.0,0.0,0.0,0.0,0.0,0.0,0.0,0.0,0.0,0.0,0.0,0.0,0.0,0.0,0.0,0.0,0.0,0.0,0.0,0.0,0.0,0.0,0.0,0.0,0.0,0.0,0.0,0.0,0.0,0.0,0.0,0.0,0.0,0.0,0.0,0.0,0.585,0.5774,0.347,0.2175,0.2019,0.1745,0.1456,0.1122,0.1217,0.1214,0.0,0.0,0.0,0.0,0.0,0.0,0.0,0.0,0.0,0.0,0.0,0.0,0.0,0.0,0.0,0.0,0.0,0.0,0.0,0.0,0.0,0.0,0.0,0.0,0.0,0.0,0.0,0.0,0.0,0.0,0.0,0.0,0.0,0.0,0.0,0.0,0.0,0.0,0.0,0.0,0.0,0.8235,0.8,0.7399,0.6758,0.0,0.6025,0.585,0.5345,0.5225,0.4994,0.4409,0.0,0.0,0.0,0.0,0.0,0.0,0.0,0.0,0.0,0.0,0.0,0.0,0.0,0.0,0.0,0.0,0.0,0.0,0.0,0.0,0.0,0.0,0.0,0.0,0.0,0.0,0.0,0.0,0.0,0.0,0.0,0.0,0.0,0.0,0.0,0.0,0.0,0.0,0.0,0.0,0.0,0.0,0.0,0.0,0.0,0.0,0.0,0.0,0.0,0.0,0.0,0.0,0.0,0.56,0.5089,0.3388,0.2399,0.218,0.1999,0.1753,0.1422,0.1371,0.1299,0.0,0.0,0.0,0.0,0.0,0.0,0.0,0.0,0.0,0.0,0.0,0.0,0.0,0.0,0.0,0.0,0.0,0.0,0.0,0.0,0.0,0.0,0.0,0.0,0.0,0.0,0.0,0.0,0.9308,0.9059,0.8616,0.0,0.0,0.0,0.0,0.0,0.0,0.0,0.0,0.0,0.0,0.8687,0.7872,0.7282,0.0,0.0,0.568,0.5513,0.533,0.5107,0.4945,0.4928,0.5113,0.0,0.0,0.0,0.0,0.0,0.0,0.0,0.0,0.0,0.0,0.0,0.0,0.0,0.0,0.0,0.0,0.0,0.0,0.0,0.0,0.0,0.0,0.0,0.0,0.0,0.0,0.0,0.0,0.0,0.0,0.0,0.0,0.0,0.0,0.0,0.0,0.0,0.0,0.0,0.0,0.0,0.0,0.0,0.0,0.0,0.0,0.0,0.0,0.0,0.0,0.0,0.0,0.5469,0.4735,0.3401,0.2592,0.2375,0.216,0.192,0.1611,0.1465,0.1342,0.0,0.0,0.0,0.0,0.0,0.0,0.0,0.0,0.0,0.0,0.0,0.0,0.0,0.0,0.0,0.0,0.0,0.0,0.0,0.0,0.0,0.0,0.0,0.0,0.0,0.0,0.0,0.0,0.9104,0.8762,0.772,0.0,0.0,0.0,0.0,0.0,0.0,0.0,0.0,0.0,0.0,0.8888,0.8082,0.7518,0.6921,0.6237,0.6038,0.5867,0.5581,0.5332,0.5228,0.5373,0.0,0.0,0.0,0.0,0.0,0.0,0.0,0.0,0.0,0.0,0.0,0.0,0.0,0.0,0.0,0.0,0.0,0.0,0.0,0.0,0.0,0.0,0.0,0.0,0.0,0.0,0.0,0.6902,0.0,0.0,0.7391,0.0,0.0,0.0,0.0,0.0,0.0,0.0,0.0,0.0,0.0,0.0,0.0,0.0,0.0,0.0,0.0,0.0,0.0,0.0,0.0,0.0,0.0,0.5433,0.5067,0.3499,0.2645,0.2501,0.218,0.1892,0.163,0.1484,0.1375,0.13,0.0,0.0,0.0,0.0,0.0,0.0,0.0,0.0,0.0,0.0,0.0,0.0,0.0,0.0,0.0,0.0,0.0,0.0,0.0,0.0,0.0,0.0,0.0,0.0,0.0,0.0,0.8986,0.8255,0.7329,0.0,0.0,0.0,0.0,0.0,0.0,0.0,0.0,0.0,1.0389,0.9422,0.8759,0.8821,0.8253,0.7594,0.7178,0.7268,0.7114,0.6208,0.6066,0.5969,0.0,0.0,0.0,0.0,0.0,0.0,0.0,0.0,0.0,0.0,0.0,0.0,0.0,0.0,0.0,0.0,0.0,0.0,0.0,0.0,0.0,0.0,0.0,0.0,0.0,0.0,0.0,0.7659,0.7633,0.0,0.0,0.0,0.0,0.0,0.0,0.0,0.0,0.0,0.0,0.0,0.767,0.7063,0.0,0.0,0.0,0.0,0.0,0.0,0.0,0.0,0.0,0.0,0.0,0.0,0.499,0.4179,0.3527,0.3029,0.2768,0.2654,0.2436,0.2069,0.1985,0.1798,0.153,0.0,0.0,0.0,0.0,0.0,0.0,0.0,0.0,0.0,0.0,0.0,0.0,0.0,0.0,0.0,0.0,0.0,0.0,0.0,0.0,0.0,0.0,0.0,0.0,0.0,0.9042,0.0,0.0,0.0,0.0,0.0,0.0,0.0,0.0,0.0,0.0,0.0,0.9839,1.0273,0.9418,0.8715,0.8583,0.806,0.7403,0.0,0.0,0.0,0.0,0.0,0.0,0.0,0.0,0.0,0.0,0.0,0.0,0.0,0.0,0.9164,0.8974,0.9398,0.9799,0.9809,0.0,0.0,0.0,0.0,0.0,0.0,0.0,0.0,0.0,0.0,0.0,0.0,0.0,0.0,0.7927,0.8067,0.8077,0.0,0.0,0.0,0.0,0.0,0.0,0.0,0.0,0.6772,0.6755,0.731,0.6632,0.6738,0.7553,0.7712,0.7684,0.0,0.0,0.0,0.0,0.0,0.0,0.0,0.0,0.4811,0.3924,0.3528,0.3204,0.2952,0.2907,0.2744,0.2382,0.2257,0.2027,0.1696,0.2029,0.2259,0.0,0.0,0.0,0.0,0.0,0.0,0.0,0.0,0.0,0.0,0.0,0.0,0.0,0.0,0.0,0.0,0.0,0.0,0.0,0.0,0.0,0.0,0.0,0.8733,0.0,0.0,0.0,0.0,0.0,0.0,0.0,0.0,0.0,0.9545,0.9379,0.9366,0.9792,0.9047,0.8513,0.8599,0.0,0.0,0.0,0.0,0.0,0.0,0.0,0.6334,0.6492,0.6312,0.6213,0.633,0.6851,0.7395,0.7832,0.0,0.0,0.9173,0.9529,0.9798,0.9819,0.9814,0.9887,1.0157,1.0127,1.0147,0.0,0.0,0.0,0.0,0.7051,0.0,0.0,0.0,0.7742,0.7899,0.0,0.8172,0.0,0.0,0.0,0.0,0.7903,0.7892,0.0,0.0,0.6732,0.672,0.6736,0.646,0.6656,0.7303,0.7734,0.7603,0.7009,0.7412,0.0,0.0,0.0,0.0,0.0,0.0,0.4868,0.4264,0.3563,0.314,0.3008,0.2952,0.278,0.2523,0.2326,0.2078,0.1857,0.2428,0.2821,0.2907,0.339,0.0,0.0,0.0,0.0,0.0,0.0,0.0,0.0,0.0,0.0,0.0,0.0,0.0,0.0,0.0,0.0,0.0,0.0,0.0,0.0,0.8488,0.0,0.0,0.0,0.0,0.0,0.0,0.0,0.0,0.0,0.0,0.8857,0.891,0.8994,0.9034,0.0,0.0,0.0,0.0,0.7817,0.8113,0.8054,0.7776,0.7265,0.7094,0.6983,0.6918,0.0,0.0,0.7136,0.7199,0.7325,0.7649,0.8247,0.896,0.9832,1.0049,1.0153,1.0175,1.0149,1.0148,1.0071,1.0282,1.0481,0.6609,0.0,0.0,0.0,0.0,0.7363,0.764,0.7802,0.8233,0.8008,0.7377,0.796,0.0,0.0,0.0,0.0,0.0,0.0,0.7557,0.7339,0.7101,0.7151,0.746,0.6862,0.687,0.7359,0.7163,0.6792,0.6311,0.6331,0.6298,0.623,0.0,0.0,0.0,0.0,0.4152,0.3796,0.3394,0.3177,0.3145,0.3026,0.2914,0.2794,0.2543,0.2374,0.2292,0.2456,0.27,0.3105,0.3304,0.0,0.0,0.0,0.0,0.0,0.0,0.0,0.0,0.0,0.0,0.0,0.0,0.0,0.0,0.0,0.0,0.0,0.0,0.0,0.7829,0.8212,0.824,0.0,0.0,0.0,0.0,0.0,0.0,0.0,0.0,0.0,0.9001,0.8794,0.8783,0.0,0.0,0.8137,0.8581,0.8199,0.7817,0.7716,0.7672,0.0,0.7377,0.7318,0.7286,0.7255,0.723,0.7241,0.7314,0.7335,0.7472,0.7842,0.8059,0.839,0.8996,0.9522,0.9868,1.0,0.997,0.9953,1.0007,1.0138,1.0244,0.6586,0.6085,0.6841,0.7368,0.7709,0.7841,0.7904,0.7884,0.8087,0.7802,0.7181,0.7664,0.794,0.8045,0.8196,0.0,0.0,0.0,0.7588,0.7269,0.7085,0.7134,0.7364,0.6872,0.6847,0.7255,0.6814,0.6366,0.5884,0.5717,0.5435,0.5065,0.0,0.5017,0.4175,0.3871,0.3475,0.3014,0.279,0.279,0.3004,0.2993,0.2959,0.2896,0.2734,0.2663,0.2668,0.2615,0.2779,0.3186,0.3186,0.3479,0.0,0.0,0.0,0.0,0.0,0.0,0.0,0.0,0.0,0.0,0.0,0.7602,0.777,0.0,0.0,0.0,0.8506,0.836,0.7466,0.8225,0.0,0.0,0.0,0.0,0.0,0.0,0.0,0.8757,0.9043,0.9212,0.9221,0.9,0.8956,0.9202,0.877,0.847,0.8529,0.0,0.8062,0.774,0.7676,0.7583,0.736,0.7384,0.7426,0.7391,0.7381,0.7384,0.7388,0.7384,0.7485,0.7707,0.7886,0.8113,0.85,0.8975,0.9397,0.9665,0.9813,0.9911,1.0019,1.0108,1.0176,0.6807,0.677,0.7981,0.8681,0.8941,0.8582,0.8253,0.7964,0.7652,0.7475,0.7385,0.7437,0.7775,0.8298,0.8501,0.0,0.7816,0.7816,0.7424,0.6717,0.6746,0.6745,0.6738,0.6544,0.6644,0.6995,0.6581,0.6103,0.557,0.5345,0.456,0.331,0.4321,0.4266,0.3179,0.3174,0.2843,0.2108,0.1966,0.2158,0.2671,0.286,0.2923,0.2898,0.2909,0.2898,0.2898,0.2898,0.2994,0.3158,0.3067,0.3274,0.3809,0.0,0.0,0.0,0.0,0.0,0.0,0.0,0.0,0.0,0.0,0.0,0.0,0.0,0.0,0.0,0.9009,0.0,0.7348,0.8363,0.0,0.0,0.0,0.8789,0.8958,0.9213,0.9363,0.9381,0.0,0.0,0.9505,0.9454,0.9369,0.9178,0.9105,0.8963,0.8686,0.8621,0.8463,0.8162,0.8041,0.7858,0.7574,0.7564,0.7591,0.7451,0.743,0.7457,0.745,0.745,0.7461,0.7475,0.7742,0.8062,0.8334,0.858,0.8807,0.9208,0.9636,0.999,1.0127,1.0254,1.0341,0.7829,0.8126,0.8449,0.8349,0.7946,0.7859,0.786,0.7945,0.8326,0.7982,0.7221,0.7827,0.7803,0.7327,0.6968,0.6609,0.626,0.6304,0.6232,0.6057,0.6235,0.633,0.6324,0.6081,0.6009,0.6078,0.5643,0.5136,0.455,0.4045,0.3446,0.2795,0.2805,0.2694,0.2444,0.2346,0.2229,0.2108,0.1917,0.2059,0.2513,0.2604,0.2737,0.2982,0.2982,0.2951,0.2898,0.2898,0.295,0.3047,0.3123,0.3255,0.3508,0.3289,0.0,0.0,0.0,0.0,0.0,0.0,0.0,0.0,0.0,0.7279,0.7854,0.0,0.8075,0.0,0.8975,0.854,0.7759,0.8175,0.0,0.0,0.8805,0.905,0.9534,0.9255,0.9286,0.9987,0.9799,0.9781,1.0178,0.9925,0.9695,0.9632,0.9188,0.892,0.9082,0.881,0.8662,0.8761,0.878,0.8773,0.8596,0.8467,0.8115,0.7577,0.7679,0.7842,0.7799,0.7792,0.7795,0.7784,0.785,0.7966,0.808,0.8411,0.8695,0.8857,0.93,0.9864,1.0351,1.0505,1.0534,0.7289,0.7538,0.7538,0.7317,0.7018,0.7448,0.7773,0.7972,0.7877,0.7388,0.6718,0.7026,0.6929,0.647,0.6277,0.6106,0.5928,0.5956,0.5973,0.5977,0.613,0.6195,0.619,0.6051,0.5764,0.5384,0.4929,0.4323,0.3621,0.3083,0.2606,0.2159,0.1941,0.1774,0.1624,0.1723,0.1697,0.152,0.1594,0.1724,0.1958,0.2157,0.2332,0.2456,0.2402,0.247,0.2669,0.2598,0.2685,0.3,0.3061,0.3199,0.3384,0.3304,0.3525,0.0,0.0,0.0,0.0,0.0,0.0,0.0,0.0,0.0,0.0,0.0,0.7972,0.8204,0.8326,0.8326,0.8123,0.8425,0.8849,0.9486,0.9467,0.9472,0.9695,0.9409,0.936,0.9769,0.9569,0.9556,0.9875,0.9751,0.9627,0.9627,0.9201,0.8908,0.8999,0.8859,0.8736,0.8705,0.8642,0.8607,0.8567,0.8298,0.7994,0.7804,0.7886,0.7979,0.7946,0.7953,0.7953,0.7935,0.7935,0.7966,0.8077,0.8234,0.8451,0.8805,0.909,0.955,1.0215,1.037,1.0428,0.6233,0.6238,0.6266,0.6275,0.6312,0.7136,0.7605,0.7793,0.6921,0.6412,0.6195,0.5864,0.5732,0.5746,0.5905,0.5978,0.5978,0.5987,0.5991,0.5991,0.5973,0.595,0.5864,0.5864,0.5431,0.4617,0.4203,0.3596,0.2741,0.2355,0.1946,0.1534,0.1455,0.1248,0.0922,0.1247,0.122,0.0836,0.1141,0.133,0.1331,0.1726,0.1903,0.1818,0.1715,0.1886,0.236,0.2215,0.24,0.2952,0.3016,0.3135,0.3363,0.3399,0.3866,0.0,0.4876,0.0,0.0,0.0,0.0,0.0,0.0,0.0,0.0,0.8201,0.7891,0.7061,0.7507,0.8011,0.8374,0.8689,0.9126,0.9805,0.9866,0.9784,0.9549,0.9484,0.9406,0.9224,0.9152,0.9126,0.925,0.9296,0.9335,0.9315,0.9092,0.8868,0.8731,0.8811,0.8772,0.8352,0.8173,0.8168,0.7928,0.7705,0.7651,0.7826,0.7979,0.8016,0.7972,0.7995,0.8021,0.8021,0.8039,0.808,0.8198,0.816,0.8298,0.8814,0.8968,0.9222,0.9854,1.0147,1.0332,0.6365,0.6383,0.6537,0.6621,0.6587,0.6274,0.6307,0.6543,0.6367,0.6236,0.6168,0.5632,0.5404,0.5363,0.4993,0.4822,0.4832,0.4818,0.4818,0.4818,0.4832,0.4567,0.4091,0.4091,0.3762,0.3133,0.3026,0.2644,0.2001,0.1921,0.1584,0.1042,0.1021,0.098,0.0916,0.0,0.0,0.0,0.0906,0.1086,0.1444,0.1556,0.1718,0.1951,0.1935,0.0,0.2289,0.2285,0.2484,0.2973,0.31,0.0,0.0,0.0,0.0,0.0,0.0,0.0,0.0,0.0,0.0,0.0,0.8722,0.8587,0.7471,0.772,0.7705,0.7078,0.7357,0.7686,0.7988,0.8062,0.8431,0.9234,0.9266,0.9166,0.9113,0.8916,0.889,0.9172,0.8923,0.889,0.9243,0.9119,0.8968,0.9041,0.8844,0.8613,0.8488,0.8757,0.893,0.8844,0.8599,0.8213,0.7607,0.7886,0.7882,0.7454,0.7838,0.8116,0.7854,0.7987,0.8167,0.8149,0.8178,0.8209,0.8342,0.8449,0.8594,0.8726,0.8809,0.9012,0.9579,1.0089,1.038,0.4634,0.4623,0.474,0.4781,0.0,0.4451,0.4378,0.4509,0.5177,0.5266,0.4882,0.4267,0.4006,0.4009,0.4042,0.407,0.4059,0.4059,0.4059,0.4029,0.3752,0.3444,0.3153,0.3153,0.2847,0.2263,0.2263,0.1942,0.1386,0.1357,0.1205,0.0883,0.0883,0.0883,0.0883,0.0883,0.0883,0.0879,0.0835,0.0908,0.1134,0.1153,0.124,0.1393,0.1322,0.0,0.0,0.0,0.0,0.0,0.0,0.0,0.0,0.4043,0.4596,0.506,0.5685,0.6468,0.741,0.7873,0.8169,0.8338,0.8152,0.7932,0.7687,0.7692,0.7637,0.7469,0.7497,0.768,0.8137,0.8088,0.8319,0.9079,0.9137,0.9028,0.8837,0.8699,0.858,0.854,0.8388,0.8408,0.8765,0.8712,0.8672,0.8778,0.8745,0.8646,0.854,0.8659,0.8788,0.8724,0.8639,0.8421,0.8072,0.8057,0.8125,0.7661,0.7796,0.7876,0.7616,0.7858,0.8129,0.8201,0.8345,0.8498,0.8659,0.8783,0.8844,0.8864,0.8926,0.9029,0.927,0.9502,0.9798,0.2836,0.2822,0.2867,0.2857,0.2873,0.2875,0.2762,0.2665,0.3842,0.0,0.0,0.2929,0.2689,0.2731,0.3218,0.344,0.346,0.3449,0.3455,0.3417,0.2924,0.2639,0.2555,0.2541,0.2221,0.1651,0.1637,0.14,0.0912,0.0883,0.0883,0.0883,0.0883,0.0883,0.0883,0.0883,0.0885,0.0888,0.0849,0.0823,0.0822,0.0825,0.0819,0.0794,0.0641,0.103,0.1954,0.1916,0.2296,0.3213,0.3276,0.3369,0.3518,0.4417,0.5038,0.5327,0.6207,0.7033,0.7716,0.7917,0.8023,0.808,0.7288,0.7111,0.7881,0.7485,0.7378,0.774,0.7546,0.7635,0.824,0.8084,0.8123,0.8685,0.8798,0.8692,0.8428,0.8454,0.8342,0.8015,0.7995,0.8029,0.8261,0.8374,0.8487,0.8619,0.8732,0.8765,0.8646,0.8554,0.8482,0.8404,0.8352,0.8317,0.8295,0.8138,0.7979,0.7759,0.7718,0.7618,0.7482,0.7694,0.799,0.8234,0.8419,0.8592,0.8905,0.8945,0.8985,0.9055,0.9195,0.9257,0.9138,0.9048,0.9272,0.2959,0.2979,0.3083,0.3146,0.3146,0.3146,0.2787,0.224,0.2755,0.2914,0.2831,0.2734,0.2681,0.2706,0.2786,0.2852,0.2916,0.2852,0.2822,0.2834,0.2731,0.2416,0.1942,0.193,0.1595,0.1051,0.101,0.0982,0.0897,0.0869,0.0883,0.0869,0.0883,0.0883,0.0883,0.0883,0.0881,0.0892,0.0887,0.0885,0.0884,0.0881,0.0855,0.0797,0.0827,0.1197,0.1968,0.2091,0.2579,0.3488,0.3648,0.3783,0.3946,0.5088,0.5695,0.5457,0.6265,0.6949,0.7258,0.7027,0.6966,0.7224,0.6933,0.6669,0.6501,0.6218,0.6421,0.725,0.7176,0.7139,0.7492,0.7371,0.7206,0.7076,0.7233,0.7415,0.7499,0.7799,0.8019,0.8086,0.8168,0.8154,0.8267,0.8414,0.8507,0.8705,0.8599,0.8738,0.8705,0.8422,0.8228,0.8184,0.7979,0.7816,0.7853,0.7715,0.7597,0.7259,0.7507,0.7549,0.7289,0.7507,0.7857,0.8281,0.8108,0.8211,0.8824,0.8856,0.8937,0.9188,0.9456,0.9564,0.9534,0.9527,0.9547,0.1976,0.198,0.2036,0.2063,0.2062,0.2017,0.1809,0.1522,0.1698,0.1772,0.177,0.1772,0.1786,0.1821,0.2123,0.2276,0.2322,0.2271,0.2251,0.2185,0.188,0.1408,0.0856,0.0784,0.0445,-0.0101,-0.0144,-0.0144,-0.0129,-0.0085,-0.0084,-0.0056,0.0238,0.0575,0.0883,0.0883,0.0883,0.0883,0.0883,0.0883,0.0883,0.0881,0.0886,0.0858,0.0855,0.1285,0.2177,0.2276,0.2768,0.3777,0.3878,0.3946,0.4021,0.4822,0.5308,0.5362,0.5982,0.6357,0.6342,0.5937,0.5634,0.5578,0.5472,0.5341,0.5193,0.5981,0.675,0.7269,0.705,0.6958,0.7203,0.6919,0.669,0.6662,0.6875,0.7026,0.7092,0.7348,0.7512,0.7516,0.7588,0.7667,0.7679,0.7745,0.7841,0.7958,0.7925,0.809,0.8652,0.8335,0.8113,0.8417,0.8262,0.8092,0.8021,0.7739,0.7546,0.744,0.7363,0.729,0.7161,0.7373,0.7604,0.7853,0.7853,0.8172,0.8864,0.8935,0.9066,0.9416,0.9595,0.9684,0.9713,0.9713,0.9664,0.0702,0.0564,0.0578,0.0676,0.0839,0.0778,0.0852,0.1008,0.1034,0.0929,0.0802,0.0917,0.1007,0.1044,0.133,0.1442,0.1442,0.127,0.1174,0.111,0.0656,0.0161,-0.0215,-0.0307,-0.0544,-0.0969,-0.1013,-0.1009,-0.0971,-0.094,-0.0914,-0.0868,-0.0437,0.0028,0.049,0.048,0.055,0.0687,0.0707,0.0777,0.0883,0.0887,0.0886,0.0891,0.085,0.1252,0.2126,0.2223,0.2762,0.378,0.3896,0.3994,0.4179,0.4531,0.4869,0.5152,0.5448,0.5457,0.5076,0.4716,0.4393,0.4083,0.4041,0.4043,0.4176,0.5366,0.6522,0.7004,0.6811,0.6679,0.6805,0.652,0.6278,0.6331,0.6563,0.6709,0.6783,0.7012,0.7165,0.704,0.7135,0.7243,0.7189,0.7195,0.7278,0.7316,0.7184,0.7492,0.8182,0.8069,0.8136,0.8332,0.8434,0.8383,0.8368,0.7886,0.7593,0.7629,0.7289,0.7106,0.7098,0.7224,0.7402,0.7534,0.7659,0.8,0.8612,0.8712,0.8895,0.9296,0.9436,0.9506,0.9664,0.9703,0.9713,-0.0397,-0.1025,-0.095,-0.0567,0.0068,0.0034,0.0393,0.0988,0.1084,0.0684,0.0165,0.0743,0.0958,0.0911,0.0359,0.0143,0.0132,-0.0568,-0.0811,-0.0777,-0.0947,-0.1025,-0.1063,-0.0982,-0.094,-0.1058,-0.1089,-0.1092,-0.1051,-0.1041,-0.098,-0.0914,-0.0907,-0.085,-0.0719,-0.0764,-0.0505,0.007,0.0072,0.0347,0.0857,0.0881,0.0881,0.088,0.089,0.111,0.1606,0.1753,0.2369,0.3341,0.3563,0.3935,0.453,0.4764,0.4808,0.4653,0.453,0.415,0.3515,0.3363,0.332,0.3313,0.3266,0.3282,0.3299,0.349,0.4408,0.5865,0.6189,0.6088,0.6226,0.6007,0.5687,0.5357,0.5776,0.6143,0.6375,0.6872,0.7225,0.7354,0.726,0.7369,0.7285,0.7314,0.7397,0.7213,0.6999,0.7034,0.7375,0.7603,0.77,0.7761,0.8005,0.8326,0.827,0.7898,0.7564,0.7494,0.7227,0.7062,0.7082,0.7105,0.7164,0.7504,0.7339,0.7513,0.799,0.8131,0.8175,0.8825,0.9027,0.9049,0.9515,0.9614,0.9584,-0.0943,-0.1245,-0.1251,-0.1067,-0.0774,-0.0725,-0.0531,-0.0275,-0.022,-0.0386,-0.0603,-0.0361,-0.0245,-0.0264,-0.0554,-0.0674,-0.067,-0.1001,-0.1116,-0.1094,-0.1144,-0.1347,-0.1696,-0.1719,-0.1859,-0.2165,-0.2214,-0.2197,-0.216,-0.2161,-0.1995,-0.1634,-0.1637,-0.1455,-0.1113,-0.111,-0.099,-0.0713,-0.0706,-0.0551,-0.0188,0.0519,0.0882,0.0883,0.0891,0.1143,0.1623,0.1764,0.2157,0.2913,0.3046,0.3222,0.3553,0.3625,0.3652,0.3621,0.323,0.2863,0.2566,0.2196,0.1946,0.1945,0.1946,0.2114,0.2514,0.2547,0.3128,0.4246,0.4722,0.4932,0.5065,0.5267,0.534,0.5263,0.5655,0.5982,0.605,0.6442,0.6728,0.6719,0.676,0.6789,0.6696,0.6625,0.6668,0.6678,0.6434,0.6319,0.6909,0.7007,0.6991,0.7203,0.7331,0.7499,0.7726,0.7524,0.7344,0.7373,0.7004,0.6708,0.7412,0.6937,0.6796,0.7462,0.7229,0.724,0.7817,0.7858,0.79,0.84,0.8561,0.8594,0.8834,0.8864,0.8874,-0.2112,-0.2135,-0.2013,-0.1784,-0.156,-0.1468,-0.1341,-0.1203,-0.114,-0.1293,-0.1578,-0.1577,-0.1812,-0.2029,-0.1761,-0.1661,-0.1811,-0.2013,-0.2026,-0.1907,-0.1904,-0.2094,-0.2391,-0.2419,-0.2635,-0.2972,-0.3028,-0.3043,-0.302,-0.3008,-0.277,-0.2388,-0.2361,-0.2141,-0.1741,-0.1719,-0.1613,-0.1464,-0.1443,-0.1305,-0.0973,-0.0135,0.0445,0.0628,0.0648,0.0929,0.1532,0.156,0.182,0.2417,0.2486,0.2609,0.2828,0.2663,0.2526,0.2452,0.209,0.1829,0.1812,0.1377,0.1092,0.1092,0.1092,0.1311,0.1712,0.1829,0.2063,0.2577,0.3205,0.3642,0.4023,0.4355,0.4626,0.4809,0.5236,0.5604,0.5596,0.6037,0.6392,0.6274,0.6395,0.6371,0.6261,0.6153,0.6162,0.6239,0.5831,0.5559,0.6382,0.6372,0.6366,0.67,0.6631,0.6809,0.7103,0.6899,0.6897,0.6884,0.6512,0.6533,0.7472,0.6697,0.6391,0.7006,0.6992,0.7121,0.7416,0.7534,0.7611,0.7876,0.8095,0.8208,0.8282,0.8267,0.8316,-0.4378,-0.438,-0.3781,-0.3037,-0.2295,-0.2304,-0.1886,-0.1468,-0.1275,-0.1795,-0.2763,-0.2828,-0.3497,-0.4414,-0.3345,-0.3095,-0.3594,-0.4162,-0.4162,-0.3773,-0.3777,-0.3582,-0.3153,-0.3028,-0.3021,-0.3144,-0.3069,-0.3055,-0.3093,-0.3032,-0.2985,-0.2932,-0.2965,-0.2979,-0.2851,-0.2858,-0.2663,-0.2135,-0.2017,-0.1758,-0.13,-0.1105,-0.0685,-0.0089,0.0029,0.03,0.0805,0.0911,0.1177,0.1793,0.1803,0.2164,0.2753,0.225,0.1628,0.1302,0.1174,0.116,0.1176,0.1143,0.1092,0.1092,0.1092,0.1126,0.1209,0.1243,0.1293,0.1243,0.1941,0.2524,0.3078,0.3369,0.3467,0.3511,0.4265,0.4765,0.4865,0.565,0.6321,0.6346,0.6355,0.6391,0.6388,0.6282,0.6101,0.5981,0.5735,0.5592,0.5568,0.5873,0.6035,0.6033,0.622,0.6555,0.6439,0.6382,0.615,0.6103,0.617,0.6042,0.6146,0.6261,0.6426,0.6649,0.6949,0.7111,0.7117,0.7161,0.7262,0.7493,0.7842,0.7964,0.7812,0.8106,0.8124,-0.494,-0.4931,-0.4663,-0.4372,-0.411,-0.4094,-0.3923,-0.3635,-0.3522,-0.3697,-0.4063,-0.4129,-0.4563,-0.5299,-0.4848,-0.453,-0.4444,-0.468,-0.4699,-0.4522,-0.4503,-0.4403,-0.4209,-0.3838,-0.3623,-0.3572,-0.3293,-0.3144,-0.3154,-0.3142,-0.3128,-0.3132,-0.3158,-0.3142,-0.314,-0.316,-0.3029,-0.2843,-0.2787,-0.2644,-0.2415,-0.2385,-0.2038,-0.1311,-0.0954,-0.0673,-0.0469,-0.0439,-0.0321,-0.0078,-0.0031,0.0096,0.0313,0.0132,0.0349,0.0956,0.0672,0.0605,0.1008,0.1092,0.1092,0.1092,0.1092,0.1076,0.1092,0.1092,0.1092,0.116,0.1277,0.1629,0.1964,0.2631,0.3201,0.3268,0.3635,0.4018,0.4203,0.46,0.5097,0.5663,0.6083,0.6404,0.6338,0.6274,0.6114,0.5908,0.5715,0.5527,0.5377,0.5499,0.5615,0.5541,0.5623,0.5703,0.5584,0.5964,0.6056,0.5806,0.5747,0.5971,0.6129,0.6209,0.6354,0.6765,0.7068,0.715,0.7146,0.7085,0.7142,0.7172,0.7509,0.7575,0.7342,0.7621,0.76,-0.5474,-0.5346,-0.5147,-0.5057,-0.5065,-0.5031,-0.4997,-0.4984,-0.4857,-0.4923,-0.5111,-0.5151,-0.5453,-0.5892,-0.595,-0.5746,-0.5319,-0.5163,-0.5047,-0.5047,-0.4882,-0.4796,-0.4693,-0.4218,-0.397,-0.3847,-0.3427,-0.3209,-0.3209,-0.3209,-0.3209,-0.3207,-0.3209,-0.3209,-0.3228,-0.336,-0.3393,-0.3276,-0.3376,-0.3359,-0.3173,-0.312,-0.2922,-0.2427,-0.2034,-0.1592,-0.1219,-0.1172,-0.1134,-0.1092,-0.1104,-0.1103,-0.109,-0.1092,-0.0655,0.0202,-0.0084,-0.0151,0.0286,0.037,0.0487,0.0722,0.0756,0.0806,0.1042,0.1092,0.1092,0.1092,0.1092,0.1092,0.126,0.1963,0.2514,0.2582,0.2883,0.3184,0.3372,0.3751,0.4464,0.5262,0.5762,0.6033,0.6054,0.5995,0.5801,0.5586,0.5607,0.5595,0.5371,0.5315,0.5315,0.5315,0.5344,0.5345,0.5327,0.5626,0.5725,0.5515,0.5469,0.5748,0.5969,0.6078,0.6344,0.6797,0.7056,0.713,0.7141,0.7085,0.7044,0.7026,0.7108,0.7241,0.7149,0.7117,0.7232,-0.6147,-0.5873,-0.5279,-0.5155,-0.5229,-0.5102,-0.4984,-0.511,-0.4986,-0.5349,-0.5862,-0.59,-0.6135,-0.6582,-0.6594,-0.6548,-0.6192,-0.5767,-0.5581,-0.555,-0.513,-0.4928,-0.4908,-0.4373,-0.4069,-0.4057,-0.3506,-0.3276,-0.3278,-0.3343,-0.336,-0.3259,-0.3343,-0.3424,-0.3276,-0.3768,-0.3766,-0.3462,-0.372,-0.3699,-0.3276,-0.3199,-0.3199,-0.3167,-0.3076,-0.2509,-0.1306,-0.1256,-0.1289,-0.1246,-0.124,-0.1158,-0.1226,-0.126,-0.1143,-0.0991,-0.1058,-0.1092,-0.1008,-0.0941,-0.0554,-0.0151,-0.0017,0.0235,0.0689,0.0924,0.0974,0.0957,0.1059,0.1092,0.1092,0.1226,0.131,0.121,0.1963,0.2365,0.2582,0.3332,0.4295,0.5011,0.5279,0.5378,0.5395,0.5476,0.5367,0.5164,0.5464,0.5777,0.5432,0.5359,0.5331,0.5327,0.5323,0.5287,0.5295,0.5318,0.5243,0.5184,0.5214,0.5356,0.5539,0.569,0.6025,0.6459,0.6874,0.699,0.7445,0.7384,0.7259,0.7226,0.716,0.7164,0.7201,0.7248,0.7208,-0.6871,-0.6927,-0.6397,-0.6386,-0.666,-0.643,-0.6267,-0.6172,-0.6126,-0.6325,-0.6577,-0.6508,-0.6556,-0.6695,-0.6837,-0.6726,-0.6362,-0.5993,-0.5929,-0.6089,-0.5951,-0.5864,-0.5774,-0.5321,-0.4877,-0.458,-0.4386,-0.409,-0.3859,-0.409,-0.4137,-0.3875,-0.4123,-0.4301,-0.4275,-0.4586,-0.4433,-0.3876,-0.4034,-0.3883,-0.3284,-0.3209,-0.3376,-0.3661,-0.341,-0.3109,-0.3098,-0.2751,-0.2553,-0.2502,-0.2542,-0.2334,-0.2031,-0.2299,-0.2066,-0.1277,-0.1595,-0.1594,-0.1176,-0.1126,-0.1076,-0.0806,-0.0756,-0.0672,-0.0386,0.0067,0.0319,0.0403,0.0773,0.1092,0.1092,0.1092,0.1092,0.1092,0.1344,0.1578,0.1814,0.2566,0.3218,0.3685,0.4148,0.4447,0.4699,0.4948,0.51,0.4862,0.5436,0.5841,0.5566,0.5397,0.5517,0.5502,0.5416,0.5331,0.5351,0.5343,0.5287,0.525,0.5245,0.5205,0.5317,0.5473,0.5797,0.618,0.6583,0.7016,0.7475,0.7652,0.7533,0.7552,0.7592,0.7557,0.7493,0.7453,0.7422,-0.7512,-0.7678,-0.7065,-0.6996,-0.7327,-0.7372,-0.7216,-0.698,-0.7222,-0.7327,-0.7276,-0.7098,-0.6994,-0.7002,-0.7051,-0.6905,-0.6622,-0.6312,-0.6304,-0.643,-0.6184,-0.6202,-0.6284,-0.5851,-0.5319,-0.4882,-0.4782,-0.4616,-0.4339,-0.4619,-0.4636,-0.4422,-0.4633,-0.4782,-0.4855,-0.51,-0.4884,-0.418,-0.4309,-0.4162,-0.3641,-0.3493,-0.3742,-0.4159,-0.3973,-0.3873,-0.3995,-0.3661,-0.341,-0.3242,-0.3209,-0.2973,-0.2653,-0.2922,-0.2788,-0.2217,-0.2249,-0.2366,-0.1949,-0.1967,-0.1747,-0.1578,-0.1511,-0.1344,-0.1109,-0.0605,-0.0437,-0.0319,0.0235,0.0672,0.0706,0.0974,0.1076,0.1092,0.1109,0.1193,0.1479,0.2234,0.2854,0.3203,0.3482,0.3732,0.3982,0.4193,0.4469,0.4304,0.4841,0.5423,0.5196,0.5161,0.5247,0.5358,0.5369,0.5341,0.5418,0.5389,0.5351,0.5336,0.5341,0.5302,0.5321,0.5444,0.5675,0.6121,0.6551,0.7005,0.7457,0.7734,0.7786,0.7892,0.7972,0.7909,0.7814,0.772,0.7695,-0.815,-0.8123,-0.746,-0.7256,-0.7349,-0.7891,-0.783,-0.7446,-0.7909,-0.8015,-0.7743,-0.7503,-0.745,-0.7419,-0.7289,-0.7114,-0.697,-0.6845,-0.6724,-0.6596,-0.6226,-0.6104,-0.63,-0.5977,-0.5545,-0.51,-0.5014,-0.4912,-0.4851,-0.5026,-0.4877,-0.4909,-0.5035,-0.4953,-0.5179,-0.5479,-0.5236,-0.447,-0.4673,-0.4635,-0.4097,-0.4045,-0.4289,-0.4782,-0.4652,-0.442,-0.4159,-0.3909,-0.3627,-0.3278,-0.3209,-0.3175,-0.3175,-0.3213,-0.3175,-0.3014,-0.3163,-0.3133,-0.3148,-0.2974,-0.2803,-0.2316,-0.2216,-0.198,-0.1495,-0.1293,-0.1176,-0.1125,-0.0487,-0.0067,0.0067,0.0538,0.0924,0.1092,0.1109,0.126,0.158,0.2319,0.2703,0.2952,0.3117,0.3134,0.3167,0.3284,0.3302,0.3333,0.3794,0.4318,0.447,0.4617,0.4766,0.4932,0.5107,0.5264,0.53,0.5363,0.5329,0.5329,0.5342,0.5329,0.5315,0.5411,0.5636,0.6071,0.6456,0.6935,0.7419,0.7739,0.8021,0.8146,0.8179,0.817,0.8103,0.8003,0.7916,-0.8978,-0.865,-0.8743,-0.8727,-0.8581,-0.8465,-0.8262,-0.8038,-0.7834,-0.7867,-0.7735,-0.7585,-0.7519,-0.7495,-0.7462,-0.7271,-0.7106,-0.7208,-0.7192,-0.7076,-0.6897,-0.6588,-0.6488,-0.6428,-0.6252,-0.5977,-0.589,-0.5782,-0.5462,-0.5927,-0.5978,-0.5644,-0.6133,-0.6306,-0.6281,-0.6423,-0.6104,-0.5353,-0.5433,-0.5268,-0.47,-0.4572,-0.4851,-0.5266,-0.4655,-0.4406,-0.4439,-0.3809,-0.3376,-0.3228,-0.3209,-0.3209,-0.3221,-0.3304,-0.3295,-0.3235,-0.3285,-0.3291,-0.3223,-0.3209,-0.3092,-0.2973,-0.2872,-0.2872,-0.2671,-0.2165,-0.1963,-0.1795,-0.1259,-0.0823,-0.0706,-0.0118,0.047,0.1025,0.1143,0.1277,0.1445,0.1715,0.2033,0.2217,0.2284,0.2385,0.2569,0.2865,0.3071,0.3101,0.3478,0.4021,0.3991,0.3989,0.4122,0.4549,0.4801,0.502,0.5173,0.5272,0.5315,0.5315,0.5315,0.5329,0.5305,0.5351,0.5654,0.6054,0.6295,0.6702,0.7353,0.7866,0.81,0.8152,0.837,0.8351,0.8326,0.825,0.8117,-0.925,-0.873,-0.8551,-0.8494,-0.849,-0.85,-0.8393,-0.8204,-0.8232,-0.8105,-0.7992,-0.7789,-0.7703,-0.7703,-0.7703,-0.7532,-0.7277,-0.741,-0.7658,-0.8023,-0.8282,-0.7785,-0.706,-0.6984,-0.7018,-0.666,-0.6562,-0.6393,-0.6357,-0.6961,-0.6929,-0.6618,-0.7129,-0.7223,-0.6658,-0.6769,-0.6467,-0.574,-0.5713,-0.5579,-0.5275,-0.4943,-0.5162,-0.5426,-0.4811,-0.4456,-0.4373,-0.3642,-0.3209,-0.3217,-0.3243,-0.3285,-0.3306,-0.3364,-0.3355,-0.3287,-0.332,-0.326,-0.3223,-0.3209,-0.3209,-0.3192,-0.3209,-0.3209,-0.3125,-0.2822,-0.2619,-0.2569,-0.1965,-0.1646,-0.1394,-0.0638,0.0118,0.0571,0.1025,0.1294,0.1412,0.1698,0.1884,0.2001,0.2035,0.2069,0.2204,0.2571,0.2682,0.2728,0.2867,0.3236,0.3418,0.3428,0.355,0.3989,0.4237,0.4353,0.4462,0.4556,0.4828,0.4897,0.5063,0.5118,0.5179,0.5215,0.5525,0.5848,0.6124,0.6479,0.7062,0.7501,0.7596,0.7767,0.8216,0.8376,0.8242,0.8242,0.815,-0.9308,-0.8708,-0.7867,-0.753,-0.7814,-0.8379,-0.8461,-0.8169,-0.861,-0.8661,-0.83,-0.8105,-0.802,-0.804,-0.7959,-0.7797,-0.7528,-0.7585,-0.8,-0.8588,-0.9079,-0.8723,-0.7223,-0.76,-0.7586,-0.7184,-0.6908,-0.684,-0.6982,-0.7651,-0.7664,-0.7301,-0.7735,-0.7584,-0.7008,-0.6794,-0.6351,-0.5926,-0.5864,-0.5931,-0.5819,-0.5416,-0.5389,-0.5638,-0.5027,-0.4385,-0.399,-0.3491,-0.3254,-0.3227,-0.3343,-0.3385,-0.3393,-0.3399,-0.3372,-0.3353,-0.3287,-0.3239,-0.3211,-0.3209,-0.3209,-0.3209,-0.3209,-0.3209,-0.3192,-0.3108,-0.3092,-0.3075,-0.2619,-0.2281,-0.1928,-0.0923,-0.0286,0.0034,0.0672,0.1311,0.1495,0.1849,0.2136,0.2171,0.2169,0.2171,0.2203,0.2199,0.2224,0.2386,0.2489,0.2573,0.2722,0.2727,0.2987,0.3411,0.3562,0.3604,0.3691,0.3784,0.4122,0.4379,0.4612,0.4746,0.489,0.501,0.5318,0.5621,0.5934,0.6199,0.6524,0.6827,0.705,0.7403,0.7844,0.7872,0.7834,0.7943,0.7937,-1.0188,-0.9319,-0.9319,-0.8973,-0.8523,-0.8646,-0.8701,-0.8684,-0.8378,-0.8321,-0.8269,-0.8265,-0.8223,-0.8215,-0.8089,-0.7894,-0.778,-0.7869,-0.7994,-0.8074,-0.8857,-0.8552,-0.7716,-0.8098,-0.8131,-0.7762,-0.7225,-0.7051,-0.7218,-0.7436,-0.7538,-0.7683,-0.7702,-0.7553,-0.7325,-0.7001,-0.6792,-0.6489,-0.6424,-0.6411,-0.6369,-0.593,-0.5649,-0.5739,-0.4906,-0.4179,-0.3726,-0.3494,-0.344,-0.3448,-0.3413,-0.3394,-0.3428,-0.3454,-0.3423,-0.332,-0.3333,-0.3297,-0.3227,-0.3209,-0.3209,-0.3209,-0.3209,-0.3209,-0.3209,-0.3209,-0.3209,-0.3192,-0.3058,-0.272,-0.2197,-0.1411,-0.0806,-0.042,0.0403,0.1059,0.084,0.1277,0.1782,0.1934,0.1985,0.2018,0.2167,0.2141,0.2124,0.2105,0.2074,0.2021,0.2067,0.2132,0.2436,0.2864,0.2898,0.2967,0.3165,0.3285,0.3562,0.3871,0.4112,0.4311,0.4452,0.4763,0.5036,0.54,0.5784,0.6024,0.6235,0.6452,0.6745,0.7107,0.7362,0.735,0.7373,0.7545,0.7735,-0.9769,-0.8608,-0.8618,-0.8439,-0.8156,-0.8131,-0.8242,-0.8352,-0.8159,-0.8117,-0.826,-0.8292,-0.8292,-0.8296,-0.8289,-0.8163,-0.8106,-0.8543,-0.8679,-0.8779,-0.9435,-0.9782,-0.9404,-0.8893,-0.8533,-0.7936,-0.737,-0.7243,-0.7447,-0.7719,-0.7959,-0.7934,-0.8042,-0.7942,-0.7525,-0.7212,-0.6944,-0.67,-0.6599,-0.664,-0.6724,-0.5958,-0.5197,-0.4877,-0.4253,-0.3769,-0.3531,-0.3513,-0.3515,-0.3487,-0.3474,-0.3466,-0.3473,-0.3491,-0.3442,-0.3385,-0.3297,-0.3306,-0.3219,-0.3209,-0.3209,-0.3209,-0.3209,-0.3209,-0.3209,-0.3209,-0.3209,-0.3209,-0.3142,-0.2922,-0.2248,-0.1125,-0.0706,-0.047,0.0151,0.0504,0.0403,0.1008,0.1681,0.1849,0.1901,0.2018,0.2085,0.2095,0.2105,0.2099,0.2008,0.1958,0.1924,0.1979,0.1988,0.2212,0.2254,0.238,0.2617,0.2828,0.3051,0.3337,0.3597,0.3769,0.3922,0.4317,0.4731,0.5119,0.5502,0.5794,0.6018,0.6224,0.6273,0.6265,0.6411,0.6639,0.6872,0.7052,0.7252,-0.8917,-0.7648,-0.7411,-0.7391,-0.7536,-0.76,-0.777,-0.7918,-0.7955,-0.8138,-0.8317,-0.833,-0.8312,-0.8361,-0.8501,-0.837,-0.8371,-0.8737,-0.8917,-0.8894,-0.952,-1.0009,-1.0054,-0.928,-0.8442,-0.7587,-0.7399,-0.7504,-0.7818,-0.8245,-0.8174,-0.8143,-0.8466,-0.8271,-0.7691,-0.7311,-0.7121,-0.697,-0.6769,-0.6777,-0.6899,-0.5975,-0.5023,-0.4153,-0.3768,-0.3657,-0.3585,-0.3581,-0.3569,-0.354,-0.3528,-0.3558,-0.3579,-0.3532,-0.3467,-0.3444,-0.3286,-0.3227,-0.3215,-0.3209,-0.3209,-0.3209,-0.3058,-0.3025,-0.3006,-0.2788,-0.2654,-0.2721,-0.2654,-0.2485,-0.1996,-0.0906,-0.0235,-0.0101,-0.0017,0.0168,0.0269,0.0974,0.1547,0.153,0.1664,0.1867,0.2017,0.2087,0.2098,0.2094,0.1986,0.1918,0.1888,0.1881,0.1924,0.1935,0.2048,0.2067,0.2275,0.2338,0.2559,0.2724,0.3003,0.3102,0.326,0.3567,0.3995,0.4751,0.517,0.5486,0.5754,0.5956,0.5866,0.5542,0.5662,0.6117,0.6378,0.6552,0.6735,-0.8737,-0.8465,-0.7911,-0.7707,-0.7747,-0.7878,-0.7988,-0.8158,-0.8016,-0.8207,-0.8484,-0.8387,-0.8395,-0.8509,-0.8562,-0.846,-0.8344,-0.8531,-0.8434,-0.8346,-0.8716,-0.8945,-0.9073,-0.8776,-0.8146,-0.7844,-0.7682,-0.7727,-0.7775,-0.7883,-0.8083,-0.8164,-0.813,-0.7986,-0.7942,-0.7586,-0.7355,-0.7397,-0.7167,-0.7116,-0.7026,-0.6418,-0.5459,-0.438,-0.3917,-0.3751,-0.3742,-0.3752,-0.3739,-0.3731,-0.3646,-0.3597,-0.3558,-0.3487,-0.339,-0.3294,-0.3248,-0.3209,-0.3209,-0.3209,-0.3209,-0.3092,-0.2805,-0.2453,-0.2302,-0.1919,-0.1827,-0.1606,-0.157,-0.1413,-0.1277,-0.0404,-0.0286,-0.0202,0.0252,0.0739,0.0638,0.0941,0.1244,0.0957,0.1277,0.1764,0.1966,0.2091,0.2094,0.2081,0.2019,0.1981,0.1962,0.1957,0.1981,0.1984,0.1994,0.1974,0.1999,0.1968,0.2034,0.2102,0.2268,0.2268,0.2453,0.2689,0.3192,0.3989,0.4738,0.524,0.5482,0.566,0.5732,0.5596,0.5655,0.5736,0.5901,0.61,0.6082,-0.878,-0.8374,-0.8091,-0.7954,-0.7928,-0.7802,-0.7866,-0.8012,-0.7947,-0.8106,-0.8334,-0.8341,-0.8415,-0.8575,-0.8616,-0.8555,-0.8461,-0.8378,-0.83,-0.83,-0.8317,-0.8611,-0.8768,-0.8539,-0.8509,-0.8428,-0.8209,-0.7857,-0.7792,-0.7686,-0.7869,-0.8028,-0.7955,-0.8012,-0.8032,-0.774,-0.7629,-0.769,-0.7424,-0.7148,-0.6969,-0.6193,-0.5146,-0.4426,-0.3997,-0.3841,-0.3821,-0.3821,-0.3755,-0.3689,-0.3627,-0.3562,-0.3499,-0.3444,-0.3363,-0.3301,-0.3237,-0.3209,-0.3209,-0.3209,-0.3209,-0.3175,-0.2822,-0.2506,-0.2201,-0.1855,-0.1328,-0.1026,-0.0621,-0.0518,-0.0473,0.0154,0.0373,0.0307,0.061,0.0639,0.0605,0.0857,0.0773,0.0638,0.1294,0.1813,0.2043,0.2114,0.2109,0.2073,0.2024,0.2017,0.2029,0.2026,0.203,0.201,0.2006,0.1976,0.1939,0.188,0.1835,0.1826,0.1805,0.1805,0.1867,0.223,0.2667,0.3274,0.4019,0.4764,0.5148,0.5319,0.548,0.564,0.5629,0.5608,0.5586,0.5604,0.568,-0.8756,-0.7996,-0.8093,-0.8115,-0.8039,-0.7836,-0.78,-0.789,-0.7882,-0.8024,-0.826,-0.8285,-0.8477,-0.8799,-0.8893,-0.8885,-0.8828,-0.8749,-0.8562,-0.8554,-0.8571,-0.8982,-0.9209,-0.9091,-0.87,-0.8699,-0.8433,-0.7939,-0.7727,-0.7642,-0.7747,-0.7898,-0.7959,-0.7988,-0.7955,-0.7833,-0.7829,-0.7731,-0.7521,-0.7095,-0.6426,-0.5398,-0.4504,-0.3999,-0.388,-0.3821,-0.3821,-0.3821,-0.3751,-0.3683,-0.3615,-0.3569,-0.348,-0.3434,-0.3426,-0.3392,-0.3289,-0.3221,-0.3209,-0.3209,-0.3209,-0.3192,-0.2873,-0.241,-0.1886,-0.1312,-0.0982,-0.0577,-0.0142,0.0246,0.0336,0.076,0.1023,0.1026,0.073,0.0571,0.0789,0.0991,0.1126,0.1244,0.1631,0.1813,0.196,0.1889,0.1827,0.2134,0.2102,0.2107,0.2105,0.2084,0.2077,0.2051,0.2031,0.1998,0.1961,0.192,0.1888,0.1884,0.1859,0.1841,0.1839,0.1909,0.2335,0.2737,0.3347,0.4041,0.4504,0.4916,0.5052,0.5202,0.539,0.5512,0.5551,0.5523,0.5552,-0.8456,-0.7617,-0.8069,-0.8184,-0.8065,-0.8303,-0.8338,-0.8166,-0.8078,-0.8097,-0.8383,-0.8275,-0.8827,-0.9508,-0.9689,-0.9707,-0.9493,-0.8933,-0.8612,-0.8616,-0.8612,-0.8674,-0.8784,-0.8696,-0.8533,-0.8565,-0.8341,-0.798,-0.7719,-0.771,-0.7751,-0.7829,-0.7857,-0.7874,-0.7951,-0.7853,-0.7861,-0.7935,-0.776,-0.7285,-0.6491,-0.531,-0.4679,-0.4406,-0.4094,-0.3821,-0.3821,-0.3821,-0.3787,-0.3758,-0.3667,-0.3603,-0.3566,-0.3522,-0.3509,-0.3452,-0.334,-0.3211,-0.3221,-0.3213,-0.3221,-0.2982,-0.2248,-0.1424,-0.1064,-0.027,0.0369,0.089,0.0928,0.087,0.0874,0.1016,0.117,0.1206,0.1145,0.1251,0.1432,0.1087,0.1221,0.126,0.1479,0.1631,0.1796,0.1643,0.1557,0.1923,0.2185,0.217,0.2157,0.2146,0.2127,0.2102,0.2071,0.2038,0.2004,0.1958,0.1944,0.1933,0.1915,0.189,0.1878,0.1864,0.1836,0.228,0.2851,0.3242,0.361,0.4018,0.4443,0.4805,0.5064,0.5329,0.5573,0.5529,0.5488,-0.8779,-0.7863,-0.8223,-0.8241,-0.8071,-0.8209,-0.8093,-0.802,-0.853,-0.8852,-0.9041,-0.9513,-1.0101,-1.0547,-1.0202,-0.9876,-0.9711,-0.9012,-0.8608,-0.8582,-0.8578,-0.8608,-0.8634,-0.86,-0.8492,-0.8325,-0.8166,-0.7992,-0.7788,-0.7735,-0.7759,-0.7669,-0.7743,-0.7829,-0.787,-0.7821,-0.789,-0.7728,-0.7213,-0.6583,-0.5955,-0.4989,-0.4214,-0.4194,-0.396,-0.386,-0.3821,-0.3821,-0.3821,-0.3795,-0.3735,-0.3677,-0.3617,-0.3568,-0.3554,-0.3509,-0.3434,-0.3362,-0.3311,-0.326,-0.325,-0.3075,-0.2284,-0.1584,-0.097,0.0,0.0,0.0494,0.0929,0.1124,0.1161,0.1171,0.1189,0.1232,0.1152,0.127,0.1401,0.1425,0.1289,0.1291,0.1244,0.126,0.1395,0.1579,0.1577,0.1879,0.2112,0.2139,0.2152,0.2183,0.2168,0.2172,0.2131,0.2084,0.2053,0.2009,0.1981,0.1978,0.1975,0.1954,0.1936,0.1915,0.1865,0.1837,0.2189,0.2527,0.2782,0.3342,0.3961,0.4387,0.4759,0.5062,0.535,0.5581,0.5514,-0.9573,-0.8649,-0.8414,-0.8211,-0.8121,-0.8314,-0.8318,-0.8244,-0.9302,-0.9799,-1.01,-1.0856,-1.1473,-1.1476,-1.0941,-1.0525,-1.0132,-0.9226,-0.8697,-0.8541,-0.8497,-0.8531,-0.8497,-0.8492,-0.8468,-0.8378,-0.8292,-0.8069,-0.7918,-0.7829,-0.7747,-0.7519,-0.7645,-0.7714,-0.7739,-0.7784,-0.7849,-0.7813,-0.6611,-0.6066,-0.586,-0.4813,-0.4257,-0.4075,-0.4016,-0.396,-0.3841,-0.3821,-0.3821,-0.38,-0.3798,-0.3741,-0.3679,-0.3665,-0.364,-0.3591,-0.3526,-0.3497,-0.3432,-0.3379,-0.3348,-0.3128,-0.2622,-0.1728,-0.0793,0.0,0.0,0.0,0.0801,0.105,0.0998,0.0856,0.0966,0.0885,0.0796,0.0902,0.0903,0.068,0.0644,0.0671,0.0578,0.0521,0.0773,0.1328,0.1631,0.1866,0.2001,0.2085,0.2136,0.2188,0.2204,0.2204,0.2185,0.2146,0.2114,0.2084,0.2055,0.2034,0.2031,0.202,0.2012,0.195,0.1888,0.1866,0.1855,0.1967,0.2307,0.2912,0.3497,0.3781,0.4118,0.4723,0.5099,0.5358,0.5498,-1.0883,-1.002,-0.8631,-0.811,-0.8196,-0.9132,-0.9545,-0.9537,-1.0471,-1.0934,-1.1195,-1.2018,-1.2571,-1.2453,-1.2088,-1.1513,-1.0894,-0.9885,-0.9006,-0.8438,-0.8236,-0.8346,-0.8353,-0.8377,-0.8418,-0.8525,-0.8385,-0.8203,-0.8044,-0.7894,-0.7732,-0.7541,-0.7575,-0.7532,-0.7576,-0.7698,-0.7759,-0.7545,-0.6477,-0.6116,-0.6015,-0.5368,-0.4643,-0.4584,-0.4562,-0.4406,-0.386,-0.3821,-0.3821,-0.3821,-0.3821,-0.3821,-0.3773,-0.3769,-0.3733,-0.3714,-0.3648,-0.3609,-0.3571,-0.3499,-0.3463,-0.3263,-0.2843,-0.1991,-0.087,-0.0312,0.0,0.0,0.0,0.0515,0.0284,0.0093,0.0277,0.0294,0.0092,-0.0073,-0.0161,-0.039,-0.0388,-0.0122,-0.0121,-0.0257,-0.0136,0.0357,0.1197,0.1499,0.1884,0.1985,0.2136,0.2204,0.2204,0.2204,0.2204,0.2192,0.2193,0.2152,0.2124,0.2109,0.2102,0.209,0.2075,0.201,0.1939,0.1913,0.1902,0.1845,0.1857,0.245,0.29,0.3093,0.3487,0.4137,0.4709,0.504,0.5182,-1.057,-0.9822,-0.9357,-0.9384,-0.9719,-0.9804,-1.0031,-1.0532,-1.1556,-1.2394,-1.2884,-1.3347,-1.3546,-1.3343,-1.2633,-1.2168,-1.1573,-0.998,-0.9229,-0.874,-0.8518,-0.834,-0.8316,-0.8394,-0.8529,-0.8525,-0.8387,-0.8195,-0.7999,-0.8006,-0.7698,-0.7524,-0.758,-0.7503,-0.7544,-0.7596,-0.7629,-0.741,-0.6774,-0.6405,-0.6286,-0.5783,-0.5065,-0.4701,-0.4701,-0.4389,-0.3901,-0.3821,-0.3821,-0.3821,-0.3821,-0.3821,-0.3821,-0.3821,-0.3821,-0.3821,-0.3737,-0.3725,-0.3677,-0.3556,-0.3323,-0.2993,-0.2964,-0.2726,-0.1468,-0.1488,-0.1528,0.0,-0.07,-0.0405,-0.0655,-0.0805,-0.0743,-0.0603,-0.0729,-0.1025,-0.1144,-0.1349,-0.1427,-0.1164,-0.1121,-0.1185,-0.0961,-0.0691,0.0256,0.1097,0.1516,0.1901,0.2085,0.2204,0.2204,0.2204,0.2204,0.2204,0.2204,0.2204,0.2204,0.2175,0.2163,0.2156,0.2128,0.2091,0.2037,0.2004,0.197,0.1926,0.1985,0.2124,0.2381,0.2701,0.3099,0.361,0.4143,0.4643,0.4818,-1.1022,-1.0548,-1.0489,-1.0509,-1.0612,-1.0632,-1.0863,-1.1402,-1.2589,-1.344,-1.4109,-1.4109,-1.4109,-1.3812,-1.3195,-1.2425,-1.1796,-1.0529,-0.959,-0.8957,-0.8477,-0.8245,-0.8272,-0.8378,-0.8456,-0.8479,-0.8581,-0.8474,-0.8364,-0.8299,-0.8219,-0.8066,-0.7825,-0.7806,-0.7499,-0.7499,-0.7499,-0.7365,-0.6965,-0.6756,-0.6733,-0.6247,-0.5799,-0.5379,-0.5379,-0.4893,-0.4387,-0.4133,-0.3977,-0.388,-0.3821,-0.3821,-0.3821,-0.3821,-0.3821,-0.3821,-0.3821,-0.3821,-0.3765,-0.3639,-0.3362,-0.3192,-0.3401,-0.3203,-0.2784,-0.251,-0.2254,-0.2254,-0.1703,-0.1391,-0.1548,-0.1655,-0.1377,-0.1189,-0.2001,-0.2321,-0.2064,-0.2115,-0.2211,-0.2211,-0.2154,-0.2016,-0.1514,-0.1141,-0.0189,0.0815,0.1616,0.1951,0.2119,0.2204,0.2204,0.2204,0.2204,0.2204,0.2204,0.2204,0.2204,0.2202,0.2193,0.2196,0.2171,0.2144,0.2114,0.2075,0.2044,0.2026,0.2038,0.2097,0.2223,0.2397,0.2811,0.3227,0.3524,0.3996,0.4355,-1.2641,-1.2651,-1.1969,-1.1151,-1.0586,-1.1758,-1.2268,-1.2334,-1.3387,-1.3977,-1.4103,-1.4109,-1.4109,-1.3994,-1.354,-1.2878,-1.1926,-1.0897,-0.9856,-0.8856,-0.8308,-0.8057,-0.8101,-0.8235,-0.8523,-0.8547,-0.8808,-0.903,-0.9019,-0.9165,-0.9121,-0.8665,-0.8284,-0.8055,-0.7557,-0.7499,-0.7499,-0.7422,-0.6911,-0.7042,-0.7138,-0.6811,-0.6521,-0.627,-0.6212,-0.5667,-0.4757,-0.4504,-0.427,-0.388,-0.3821,-0.3821,-0.3821,-0.3821,-0.3821,-0.3821,-0.3821,-0.3821,-0.3817,-0.3789,-0.3684,-0.36,-0.3715,-0.3448,-0.2803,-0.2588,-0.2686,-0.2784,-0.2117,-0.1961,-0.2198,-0.2451,-0.2092,-0.2157,-0.2971,-0.3205,-0.2911,-0.2814,-0.2923,-0.2876,-0.2876,-0.2749,-0.2148,-0.1479,-0.0557,0.0445,0.152,0.1951,0.197,0.2035,0.1968,0.2052,0.2052,0.2204,0.2204,0.2204,0.2204,0.2204,0.2204,0.2204,0.2193,0.2163,0.2136,0.2117,0.2103,0.2084,0.2038,0.2026,0.2162,0.2298,0.251,0.2849,0.3086,0.3346,0.3705,-1.2296,-1.2446,-1.2219,-1.1916,-1.167,-1.2085,-1.2529,-1.2936,-1.3511,-1.3908,-1.4083,-1.4109,-1.4109,-1.3995,-1.3664,-1.2987,-1.1972,-1.0844,-0.9747,-0.874,-0.8203,-0.8053,-0.8089,-0.8361,-0.87,-0.9018,-0.9361,-0.9695,-0.9797,-0.9848,-0.924,-0.8675,-0.8283,-0.7791,-0.7576,-0.7499,-0.7499,-0.7484,-0.7311,-0.7311,-0.7465,-0.7273,-0.7003,-0.666,-0.6641,-0.6018,-0.4893,-0.4796,-0.4445,-0.3923,-0.3825,-0.3814,-0.3812,-0.3812,-0.381,-0.3806,-0.3823,-0.3821,-0.3821,-0.3798,-0.3819,-0.3821,-0.3782,-0.3647,-0.3374,-0.3372,-0.3372,-0.3301,-0.2979,-0.3013,-0.336,-0.3376,-0.3169,-0.3226,-0.3649,-0.362,-0.3484,-0.3519,-0.3563,-0.3409,-0.3333,-0.2769,-0.2178,-0.1937,-0.116,-0.0403,0.0555,0.1087,0.12,0.1449,0.1548,0.1715,0.1832,0.2069,0.2204,0.2204,0.2204,0.2204,0.2204,0.2204,0.2189,0.2175,0.2174,0.2161,0.2151,0.2124,0.2105,0.2088,0.2088,0.2212,0.2375,0.2402,0.2505,0.276,0.3067,-1.1579,-1.1897,-1.2194,-1.2305,-1.2352,-1.2616,-1.2992,-1.3347,-1.3527,-1.3787,-1.4041,-1.4109,-1.4109,-1.3937,-1.3479,-1.2965,-1.1968,-1.0601,-0.9737,-0.8748,-0.8192,-0.7987,-0.809,-0.8565,-0.9027,-0.9437,-0.9948,-1.0366,-1.0511,-1.0184,-0.9747,-0.9113,-0.8097,-0.7734,-0.7555,-0.7499,-0.7499,-0.7503,-0.7442,-0.7461,-0.7499,-0.7422,-0.7311,-0.7061,-0.6791,-0.6344,-0.5392,-0.489,-0.4618,-0.4101,-0.3826,-0.3823,-0.3825,-0.3827,-0.3849,-0.3849,-0.3816,-0.381,-0.3821,-0.3821,-0.3821,-0.3821,-0.3821,-0.382,-0.3839,-0.376,-0.3766,-0.3796,-0.3864,-0.3885,-0.3879,-0.3879,-0.3854,-0.3881,-0.3839,-0.3788,-0.378,-0.3793,-0.3791,-0.3661,-0.354,-0.2897,-0.2365,-0.2156,-0.1815,-0.1138,-0.0463,0.0017,0.0582,0.1009,0.1396,0.1628,0.1827,0.208,0.2211,0.2204,0.2204,0.2204,0.2204,0.2204,0.2202,0.2192,0.2199,0.2203,0.2185,0.2177,0.219,0.2188,0.2147,0.2129,0.2187,0.2144,0.2005,0.2239,0.258,-1.0634,-1.1137,-1.191,-1.2144,-1.232,-1.287,-1.3371,-1.3547,-1.3547,-1.3734,-1.4076,-1.4035,-1.4069,-1.3906,-1.316,-1.2497,-1.1863,-1.0274,-0.9381,-0.8791,-0.8142,-0.7933,-0.8177,-0.8793,-0.9035,-0.9636,-1.0158,-1.0483,-1.1022,-1.0687,-1.0351,-0.9554,-0.8192,-0.7725,-0.7532,-0.7499,-0.7499,-0.7499,-0.7499,-0.7499,-0.7499,-0.7499,-0.7446,-0.7326,-0.7249,-0.6688,-0.5973,-0.5489,-0.4868,-0.4332,-0.3892,-0.3907,-0.3905,-0.3913,-0.3913,-0.3895,-0.3831,-0.3831,-0.3847,-0.3853,-0.3831,-0.3841,-0.3837,-0.385,-0.3857,-0.3881,-0.391,-0.3934,-0.3938,-0.3979,-0.4003,-0.3969,-0.3955,-0.3914,-0.3869,-0.3836,-0.3816,-0.3819,-0.3819,-0.3782,-0.3763,-0.3401,-0.2977,-0.2706,-0.237,-0.187,-0.1181,-0.0474,0.0161,0.1061,0.1439,0.1809,0.1991,0.2147,0.2213,0.2188,0.2214,0.2222,0.221,0.2204,0.2204,0.2204,0.2204,0.2204,0.2204,0.2204,0.2204,0.2204,0.2199,0.2183,0.2149,0.2118,0.2053,0.1994,0.2239,-0.974,-1.0067,-1.0421,-1.051,-1.0528,-1.1419,-1.2376,-1.322,-1.3146,-1.3293,-1.3754,-1.3747,-1.3757,-1.399,-1.313,-1.2175,-1.1198,-1.0165,-0.9075,-0.842,-0.8031,-0.7894,-0.8035,-0.8383,-0.8671,-0.9085,-0.963,-1.0248,-1.0108,-1.0239,-0.9448,-0.8106,-0.7923,-0.7614,-0.7528,-0.7503,-0.7507,-0.7538,-0.7557,-0.7557,-0.7557,-0.7576,-0.7557,-0.7518,-0.7499,-0.6938,-0.6402,-0.5838,-0.5198,-0.4597,-0.4047,-0.3865,-0.3841,-0.3845,-0.3835,-0.3901,-0.3922,-0.3959,-0.3936,-0.3934,-0.3926,-0.3889,-0.3914,-0.3867,-0.3869,-0.3912,-0.3966,-0.399,-0.4023,-0.4048,-0.406,-0.4059,-0.4034,-0.4001,-0.3922,-0.3821,-0.3794,-0.3713,-0.3709,-0.3724,-0.3724,-0.3657,-0.3305,-0.3149,-0.2807,-0.2441,-0.1892,-0.1093,-0.0353,0.0513,0.1206,0.1555,0.1811,0.1856,0.2106,0.2151,0.2218,0.2253,0.2225,0.2201,0.2197,0.2196,0.219,0.2204,0.2204,0.2204,0.2204,0.2204,0.2204,0.2204,0.2189,0.215,0.2118,0.2055,0.1998,-0.872,-0.9065,-0.9382,-0.9563,-0.977,-1.0361,-1.1197,-1.1965,-1.2536,-1.2916,-1.2963,-1.2948,-1.2922,-1.2523,-1.1693,-1.0913,-1.03,-0.9356,-0.8522,-0.82,-0.7914,-0.7853,-0.7889,-0.8199,-0.8623,-0.8929,-0.9296,-0.9916,-0.9632,-0.9112,-0.8413,-0.8155,-0.7822,-0.7571,-0.7548,-0.7572,-0.7592,-0.7667,-0.7729,-0.7733,-0.7691,-0.7729,-0.7787,-0.7518,-0.7499,-0.7157,-0.6676,-0.6128,-0.5589,-0.4889,-0.4273,-0.4073,-0.3958,-0.3844,-0.385,-0.3906,-0.3908,-0.3958,-0.3981,-0.3978,-0.3977,-0.3973,-0.4013,-0.3981,-0.3952,-0.3952,-0.4017,-0.4082,-0.4106,-0.4112,-0.4114,-0.4116,-0.4099,-0.4083,-0.3946,-0.3806,-0.3694,-0.3593,-0.3571,-0.3582,-0.36,-0.3616,-0.3507,-0.3393,-0.3233,-0.2885,-0.2311,-0.1506,-0.0896,-0.0301,0.0405,0.092,0.1209,0.1427,0.1738,0.2062,0.2132,0.2177,0.2232,0.2208,0.2206,0.2201,0.2193,0.2189,0.2204,0.2204,0.2204,0.2204,0.2204,0.2204,0.2204,0.2171,0.2163,0.2122,0.2052,-0.775,-0.8117,-0.8528,-0.9026,-0.9621,-0.9723,-0.9916,-1.022,-1.1702,-1.2286,-1.1897,-1.1855,-1.1535,-1.1173,-1.0315,-0.9855,-0.9404,-0.8748,-0.8317,-0.8016,-0.7984,-0.7894,-0.804,-0.8517,-0.8454,-0.8889,-0.9192,-0.9217,-0.9323,-0.8846,-0.836,-0.8579,-0.8015,-0.7629,-0.7536,-0.7617,-0.7624,-0.7616,-0.8016,-0.8246,-0.7844,-0.7997,-0.8284,-0.7653,-0.7442,-0.7269,-0.683,-0.6425,-0.6022,-0.5241,-0.4671,-0.4441,-0.4063,-0.3883,-0.3911,-0.3934,-0.3944,-0.4007,-0.4058,-0.4082,-0.4035,-0.4064,-0.4126,-0.4108,-0.4085,-0.4068,-0.4129,-0.4145,-0.4169,-0.4217,-0.4208,-0.4188,-0.416,-0.4112,-0.4021,-0.3874,-0.3733,-0.3564,-0.3345,-0.3312,-0.3247,-0.3284,-0.3286,-0.313,-0.3041,-0.2979,-0.2545,-0.172,-0.1344,-0.0884,-0.0303,0.0352,0.0968,0.1324,0.1541,0.1851,0.1999,0.2082,0.2211,0.2249,0.2265,0.2233,0.2196,0.2192,0.2204,0.2204,0.2204,0.2204,0.2204,0.2204,0.2204,0.2204,0.2183,0.2154,0.2115,-0.7419,-0.706,-0.7185,-0.7738,-0.8537,-0.8597,-0.9052,-0.9712,-1.0031,-1.0411,-1.065,-1.0597,-1.0603,-1.0399,-0.9611,-0.9231,-0.9086,-0.8512,-0.8197,-0.8097,-0.8048,-0.798,-0.7845,-0.8111,-0.809,-0.7932,-0.8047,-0.8357,-0.8274,-0.8012,-0.7825,-0.781,-0.76,-0.7548,-0.7511,-0.7593,-0.7571,-0.7561,-0.794,-0.8089,-0.7614,-0.7557,-0.7614,-0.7499,-0.7461,-0.7442,-0.7119,-0.6795,-0.6209,-0.5507,-0.4931,-0.444,-0.3874,-0.3901,-0.3932,-0.3977,-0.4025,-0.4112,-0.4179,-0.418,-0.4161,-0.4175,-0.4195,-0.4211,-0.4213,-0.4218,-0.4228,-0.423,-0.4258,-0.4287,-0.4295,-0.424,-0.4218,-0.414,-0.4082,-0.3946,-0.379,-0.3448,-0.3148,-0.3025,-0.2938,-0.2932,-0.2955,-0.291,-0.2815,-0.2588,-0.2234,-0.1784,-0.1675,-0.1313,-0.0764,-0.0058,0.0945,0.1368,0.149,0.1629,0.1784,0.2117,0.2324,0.2344,0.2327,0.2264,0.2217,0.2206,0.2204,0.2193,0.2195,0.2204,0.2204,0.2204,0.2204,0.2204,0.2204,0.2182,0.2146,-0.7335,-0.692,-0.6766,-0.6954,-0.7375,-0.7583,-0.799,-0.8341,-0.8269,-0.8532,-0.9057,-0.9229,-0.9366,-0.9404,-0.8757,-0.8621,-0.86,-0.8321,-0.8106,-0.8056,-0.8109,-0.8114,-0.8016,-0.7914,-0.7827,-0.7649,-0.7551,-0.758,-0.7557,-0.7518,-0.7557,-0.7499,-0.7499,-0.7499,-0.7499,-0.7499,-0.7499,-0.7518,-0.7783,-0.7518,-0.7234,-0.7538,-0.7691,-0.7691,-0.7499,-0.7503,-0.7422,-0.7138,-0.6695,-0.5938,-0.5229,-0.4476,-0.4014,-0.3852,-0.3889,-0.3981,-0.4062,-0.4145,-0.4255,-0.4289,-0.4275,-0.4259,-0.4255,-0.4266,-0.4271,-0.4267,-0.4267,-0.4285,-0.4232,-0.4246,-0.4281,-0.425,-0.4248,-0.4208,-0.4128,-0.4029,-0.366,-0.3234,-0.2985,-0.2833,-0.2769,-0.273,-0.2739,-0.2757,-0.265,-0.2526,-0.2127,-0.1976,-0.1856,-0.1586,-0.1082,-0.0636,0.0257,0.0904,0.103,0.1276,0.1597,0.1939,0.2362,0.2377,0.2337,0.2282,0.2253,0.2218,0.22,0.2194,0.2193,0.2193,0.2204,0.2204,0.2204,0.2204,0.2204,0.2204,0.2161,-0.7384,-0.705,-0.6743,-0.6553,-0.6473,-0.6775,-0.698,-0.6989,-0.6798,-0.6999,-0.7582,-0.807,-0.7862,-0.766,-0.7503,-0.7503,-0.7629,-0.7922,-0.7947,-0.8008,-0.8069,-0.8089,-0.8135,-0.811,-0.8208,-0.8234,-0.8169,-0.7934,-0.7806,-0.7806,-0.7768,-0.7576,-0.7499,-0.7499,-0.7499,-0.7484,-0.7446,-0.7215,-0.7096,-0.6695,-0.7057,-0.7668,-0.7633,-0.7518,-0.7461,-0.7492,-0.7524,-0.7463,-0.7196,-0.6422,-0.5482,-0.4758,-0.4225,-0.4006,-0.3914,-0.3983,-0.4056,-0.4147,-0.4257,-0.4297,-0.4293,-0.4293,-0.4297,-0.4297,-0.4295,-0.4295,-0.4295,-0.4295,-0.4242,-0.4234,-0.4266,-0.4283,-0.4289,-0.4265,-0.4184,-0.4051,-0.3601,-0.3171,-0.3002,-0.2789,-0.2623,-0.2583,-0.2533,-0.2553,-0.2377,-0.2274,-0.2187,-0.2144,-0.1968,-0.1597,-0.1174,-0.1076,-0.0741,-0.0179,0.0374,0.1057,0.1479,0.1842,0.2217,0.2291,0.2349,0.2333,0.228,0.2218,0.219,0.2208,0.2196,0.219,0.2204,0.2204,0.2204,0.2204,0.2204,0.2204,0.2204,-0.7316,-0.6383,-0.6303,-0.6329,-0.6416,-0.6501,-0.6599,-0.6705,-0.6554,-0.6709,-0.7064,-0.7179,-0.7278,-0.7495,-0.7499,-0.7503,-0.754,-0.776,-0.7918,-0.8004,-0.8101,-0.8122,-0.8251,-0.8528,-0.9088,-0.9198,-0.9161,-0.8989,-0.8356,-0.8303,-0.8093,-0.7538,-0.7499,-0.7499,-0.7499,-0.7446,-0.733,-0.7042,-0.6695,-0.6367,-0.6151,-0.6572,-0.683,-0.6965,-0.7253,-0.7504,-0.7678,-0.7743,-0.7432,-0.6758,-0.573,-0.5003,-0.4494,-0.4138,-0.3993,-0.4007,-0.4078,-0.4171,-0.4251,-0.4289,-0.4295,-0.4281,-0.4283,-0.4297,-0.4297,-0.4297,-0.4297,-0.4297,-0.4285,-0.4285,-0.4285,-0.4285,-0.4287,-0.4287,-0.4245,-0.4043,-0.3694,-0.3518,-0.3356,-0.2958,-0.2558,-0.2471,-0.2331,-0.2168,-0.1825,-0.1717,-0.1622,-0.156,-0.1491,-0.1316,-0.1207,-0.131,-0.1386,-0.0919,-0.0217,0.0923,0.1485,0.1837,0.2149,0.2336,0.2424,0.241,0.2348,0.2273,0.2224,0.2213,0.2216,0.2204,0.2204,0.2204,0.2204,0.2204,0.2204,0.2204,0.2204]},{"header":{"parameterUnit":"m.s-1","parameterCategory":1,"la1":31.0,"la2":29.5877,"lo1":-88.7671,"lo2":-86.6584,"dy":0.0162,"dx":0.0185,"nx":115,"ny":88,"refTime":"2023-06-04T18:00:00:Z","depth":0,"parameterNumber":3,"parameterNumberName":"V-component_of_WINDS"},"data":[0.0,0.0,0.0,0.0,0.0,0.0,0.0,0.0,0.0,0.0,0.0,0.0,0.0,0.0,0.0,0.0,0.0,0.0,0.0,0.0,0.0,0.0,0.0,0.0,0.0,0.0,0.0,0.0,0.0,0.0,0.0,0.0,0.0,0.0,0.0,0.0,0.0,0.0,0.0,0.0,0.0,0.0,0.0,0.0,0.0,0.0,0.0,0.0,0.0,0.0,0.0,0.0,0.0,0.0,0.0,0.0,0.0,0.0,0.0,0.0,0.0,0.0,0.0,0.0,0.0,0.0,0.0,0.0,0.0,0.0,0.0,0.0,0.0,0.0,0.0,0.0,0.0,0.0,0.0,0.0,0.0,0.0,0.0,0.0,0.0,0.0,0.0,0.0,0.0,0.0,0.0,0.0,0.0,0.0,0.0,0.0,0.0,0.0,0.0,0.0,0.0,0.0,0.0,0.0,0.0,0.0,0.0,0.0,0.0,0.0,0.0,0.0,0.0,0.0,0.0,0.0,0.0,0.0,0.0,0.0,0.0,0.0,0.0,0.0,0.0,0.0,0.0,0.0,0.0,0.0,0.0,0.0,0.0,0.0,0.0,0.0,0.0,0.0,0.0,0.0,0.0,0.0,0.0,0.0,0.0,0.0,0.0,0.0,0.0,0.0,0.0,0.0,0.0,0.0,0.0,0.0,0.0,0.0,0.0,0.0,0.0,0.0,0.0,0.0,0.0,0.0,0.0,0.0,0.0,0.0,0.0,0.0,0.0,0.0,0.0,0.0,0.0,0.0,0.0,0.0,0.0,0.0,0.0,0.0,0.0,0.0,0.0,0.0,0.0,0.0,0.0,0.0,0.0,0.0,0.0,0.0,0.0,0.0,0.0,0.0,0.0,0.0,0.0,0.0,0.0,0.0,0.0,0.0,0.0,0.0,0.0,0.0,0.0,0.0,0.0,0.0,0.0,0.0,0.0,0.0,0.0,0.0,0.0,0.0,0.0,0.0,0.0,0.0,0.0,0.0,0.0,0.0,0.0,0.0,0.0,0.0,0.0,0.0,0.0,0.0,0.0,0.0,0.0,0.0,0.0,0.0,0.0,0.0,0.0,0.0,0.0,0.0,0.0,0.0,0.0,0.0,0.0,0.0,0.0,0.0,0.0,0.0,0.0,0.0,0.0,0.0,0.0,0.0,0.0,0.0,0.0,0.0,0.0,0.0,0.0,0.0,0.0,0.0,0.0,0.0,0.0,0.0,0.0,0.0,0.0,0.0,0.0,0.0,0.0,0.0,0.0,0.0,0.0,0.0,0.0,0.0,0.0,0.0,0.0,0.0,0.0,0.0,0.0,0.0,0.0,0.0,0.0,0.0,0.0,0.0,0.0,0.0,0.0,0.0,0.0,0.0,0.0,0.0,0.0,0.0,0.0,0.0,0.0,0.0,0.0,0.0,0.0,0.0,0.0,0.0,0.0,0.0,0.0,0.0,0.0,0.0,0.0,0.0,0.0,0.0,0.0,0.0,0.0,0.0,0.0,0.0,0.0,0.0,0.0,0.0,0.0,0.0,0.0,0.0,0.0,0.0,0.0,0.0,0.0,0.0,0.0,0.0,0.0,0.0,0.0,0.0,0.0,0.0,0.0,0.0,0.0,0.0,0.0,0.0,0.0,0.0,0.0,0.0,0.0,0.0,0.0,0.0,0.0,0.0,0.0,0.0,0.0,0.0,0.0,0.0,0.0,0.0,0.0,0.0,0.0,0.0,0.0,0.0,0.0,0.0,0.0,0.0,0.0,0.0,0.0,0.0,0.0,0.0,0.0,0.0,0.0,0.0,0.0,0.0,0.0,0.0,0.0,0.0,0.0,0.0,0.0,0.0,0.0,0.0,0.0,0.0,0.0,0.0,0.0,0.0,0.0,0.0,0.0,0.0,0.0,0.0,0.0,0.0,0.0,0.0,0.0,0.0,0.0,0.0,0.0,0.0,0.0,0.0,0.0,0.0,0.0,0.0,0.0,0.0,0.0,0.0,0.0,0.0,0.0,0.0,0.0,0.0,0.0,0.0,0.0,0.0,0.0,0.0,0.0,0.0,0.0,0.0,0.0,0.0,0.0,0.0,0.0,0.0,0.0,0.0,0.0,0.0,0.0,0.0,0.0,0.0,0.0,0.0,0.0,0.0,0.0,0.0,0.0,0.0,0.0,0.0,0.0,0.0,0.0,0.0,0.0,0.0,0.0,0.0,0.0,0.0,0.0,0.0,0.0,0.0,0.0,0.0,0.0,0.0,0.0,0.0,0.0,0.0,0.0,0.0,0.0,0.0,0.0,0.0,0.0,0.0,0.0,0.0,0.0,0.0,0.0,0.0,0.0,0.0,0.0,0.0,0.0,0.0,0.0,0.0,0.0,0.0,0.0,0.0,0.0,0.0,0.0,0.0,0.0,0.0,0.0,0.0,0.0,0.0,0.0,0.0,0.0,0.0,0.0,0.0,0.0,0.0,0.0,0.0,0.0,0.0,0.0,0.0,0.0,0.0,0.0,0.0,0.0,0.0,0.0,0.0,0.0,0.0,0.0,0.0,0.0,0.0,0.0,0.0,0.0,0.0,0.0,0.0,0.0,0.0,0.0,0.0,0.0,0.0,0.0,0.0,0.0,0.0,0.0,0.0,0.0,0.0,0.0,0.0,0.0,0.0,0.0,0.0,0.0,0.0,0.0,0.0,0.0,0.0,0.0,0.0,0.0,0.0,0.0,0.0,0.0,0.0,0.0,0.0,0.0,0.0,0.0,0.0,0.0,0.0,0.0,0.0,0.0,0.0,0.0,0.0,0.0,0.0,0.0,0.0,0.0,0.0,0.0,0.0,0.0,0.0,0.0,0.0,0.0,0.0,0.0,0.0,0.0,0.0,0.0,0.0,0.0,0.0,0.0,0.0,0.0,0.0,0.0,0.0,0.0,0.0,0.0,0.0,0.0,0.0,0.0,0.0,0.0,0.0,0.0,0.0,0.0,0.0,0.0,0.0,0.0,0.0,0.0,0.0,0.0,0.0,0.0,0.0,0.0,0.0,0.0,0.0,0.0,0.0,0.0,0.0,0.0,0.0,0.0,0.0,0.0,0.0,0.0,0.0,0.0,0.0,0.0,0.0,0.0,0.0,0.0,0.0,0.0,0.0,0.0,0.0,0.0,0.0,0.0,0.0,0.0,0.0,0.0,0.0,0.0,0.0,0.0,0.0,0.0,0.0,0.0,0.0,0.0,0.0,0.0,0.0,0.0,0.0,0.0,0.0,0.0,0.0,0.0,0.0,0.0,0.0,0.0,0.0,0.0,0.0,0.0,0.0,0.0,0.0,0.0,0.0,0.0,0.0,0.0,0.0,0.0,0.0,0.0,0.0,0.0,0.0,0.0,0.0,0.0,0.0,0.0,0.0,0.0,0.0,0.0,0.0,0.0,0.0,0.0,0.0,0.0,0.0,0.0,0.0,0.0,0.0,0.0,0.0,0.0,0.0,0.0,0.0,0.0,0.0,0.0,0.0,0.0,0.0,0.0,0.0,0.0,0.0,0.0,0.0,0.0,0.0,0.0,0.0,0.0,0.0,0.0,0.0,0.0,0.0,0.0,0.0,0.0,0.0,0.0,0.0,0.0,0.0,0.0,0.0,0.0,0.0,0.0,0.0,0.0,0.0,0.0,0.0,0.0,0.0,0.0,0.0,0.0,0.0,0.0,0.0,0.0,0.0,0.0,0.0,0.0,0.0,0.0,0.0,0.0,0.0,0.0,0.0,0.0,0.0,0.0,0.0,0.0,0.0,0.0,0.0,0.0,0.0,0.0,0.0,0.0,0.0,0.0,0.0,0.0,0.0,0.0,0.0,0.0,0.0,0.0,0.0,0.0,0.0,0.0,0.0,0.0,0.0,0.0,0.0,0.0,0.0,0.0,0.0,0.0,0.0,0.0,0.0,0.0,0.0,0.0,0.0,0.0,0.0,0.0,0.0,0.0,0.0,0.0,0.0,0.0,0.0,0.0,0.0,0.0,0.0,0.0,0.0,0.0,0.0,0.0,0.0,0.0,0.0,0.0,0.0,0.0,0.0,0.0,0.0,0.0,0.0,0.0,0.0,0.0,0.0,0.0,0.0,0.0,0.0,0.0,0.0,0.0,0.0,0.0,0.0,0.0,0.0,0.0,0.0,0.0,0.0,0.0,0.0,0.0,0.0,0.0,0.0,0.0,0.0,0.0,0.0,0.0,0.0,0.0,0.0,0.0,0.0,0.0,0.0,0.0,0.0,0.7288,0.0,0.0,0.0,0.0,0.0,0.0,0.0,0.0,0.0,0.0,0.0,0.0,0.0,0.0,0.0,0.0,0.0,0.0,0.0,0.0,0.0,0.0,0.0,0.0,0.0,0.0,0.0,0.0,0.0,0.0,0.0,0.0,0.0,0.0,0.0,0.0,0.0,0.0,0.0,0.0,0.0,0.0,0.0,0.0,0.0,0.0,0.0,0.0,0.0,0.0,0.0,0.0,0.0,0.0,0.0,0.0,0.0,0.0,0.0,0.0,0.0,0.0,0.0,0.0,0.0,0.0,0.0,0.0,0.0,0.0,0.0,0.0,0.0,0.0,0.0,0.0,0.0,0.0,0.0,0.0,0.0,0.0,0.0,0.0,0.0,0.0,0.0,0.0,0.0,0.0,0.0,0.0,0.0,0.0,0.0,0.0,0.0,0.0,0.0,0.0,0.0,0.0,0.0,0.0,0.0,0.0,0.0,0.0,0.0,0.0,0.7444,0.7302,0.7653,0.7801,0.7744,0.0,0.0,0.0,0.0,0.0,0.0,0.0,0.0,0.0,0.0,0.0,0.0,0.0,0.0,0.0,0.0,0.0,0.0,0.0,0.0,0.0,0.0,0.0,0.0,0.0,0.0,0.0,0.0,0.0,0.0,0.0,0.0,0.0,0.0,0.0,0.0,0.0,0.0,0.0,0.0,0.0,0.0,0.0,0.0,0.0,0.0,0.0,0.0,0.0,0.0,0.0,0.0,0.0,0.0,0.0,0.0,0.0,0.0,0.0,0.0,0.0,0.0,0.0,0.0,0.0,0.0,0.0,0.0,0.0,0.0,0.0,0.0,0.0,0.0,0.0,0.0,0.0,0.0,0.0,0.0,0.0,0.0,0.0,0.0,0.0,0.0,0.0,0.0,0.0,0.0,0.0,0.0,0.0,0.0,0.0,0.0,0.0,0.0,0.0,0.0,0.0,0.0,0.0,0.0,0.0,0.0,0.0,0.0,0.0,0.0,0.0,0.0,0.8079,0.8344,0.8662,0.0,0.0,0.0,0.0,0.0,0.0,0.0,0.0,0.0,0.0,0.0,0.0,0.0,0.0,0.0,0.0,0.0,0.0,0.0,0.0,0.0,0.0,0.0,0.0,0.0,0.0,0.0,0.0,0.0,0.0,0.0,0.0,0.0,0.0,0.0,0.0,0.0,0.0,0.0,0.0,0.0,0.0,0.0,0.0,0.0,0.0,0.0,0.0,0.0,0.0,0.0,0.0,0.0,0.0,0.0,0.0,0.0,0.0,0.0,0.0,0.0,0.0,0.0,0.0,0.0,0.0,0.0,0.0,0.0,0.0,0.0,0.0,0.0,0.0,0.0,0.0,0.0,0.0,0.0,0.0,0.0,0.0,0.0,0.0,0.0,0.0,0.0,0.0,0.0,0.0,0.0,0.0,0.0,0.0,0.0,0.0,0.0,0.0,0.0,0.0,0.0,0.0,0.0,0.0,0.0,0.0,0.0,0.0,0.0,0.0,0.8165,0.9619,0.9856,0.0,1.0622,0.0,0.0,0.0,0.0,0.0,0.0,0.0,0.0,0.0,0.0,0.0,0.0,0.0,0.0,0.0,0.0,0.0,0.0,0.0,0.0,0.0,0.0,0.0,0.0,0.0,0.0,0.0,0.0,0.0,0.0,0.0,0.0,0.0,0.0,0.0,0.0,0.0,0.0,0.0,0.0,0.0,0.0,0.0,0.0,0.0,0.0,0.0,0.0,0.0,0.0,0.0,0.0,0.0,0.0,0.0,0.0,0.0,0.0,0.0,0.0,0.0,0.0,0.0,0.0,0.0,0.0,0.0,0.0,0.0,0.0,0.0,0.0,0.0,0.0,0.0,0.0,0.0,0.0,0.0,0.0,0.0,0.0,0.0,0.0,0.0,0.0,0.0,0.0,0.0,0.0,0.0,0.0,0.0,0.0,0.0,0.0,0.0,0.0,0.0,0.0,0.0,0.0,0.0,0.0,0.0,0.0,0.0,0.0,0.0,0.0,0.8576,1.0277,1.0701,1.0602,0.0,0.0,0.0,0.0,0.0,0.0,0.0,0.0,0.0,0.0,0.0,0.0,0.0,0.0,0.0,0.0,0.0,0.0,0.0,0.0,0.0,0.0,0.0,0.0,0.0,0.0,0.0,0.0,0.0,0.0,0.0,0.0,0.0,0.0,0.0,0.0,0.0,0.0,0.0,0.0,0.0,0.0,0.0,0.0,0.0,0.0,0.0,0.0,0.0,0.0,0.0,0.0,0.0,0.0,0.0,0.0,0.0,0.0,0.0,0.0,0.0,0.0,0.0,0.0,0.0,0.0,0.0,0.0,0.0,0.0,0.0,0.0,0.0,0.0,0.0,0.0,0.0,0.0,0.0,0.0,0.0,0.0,0.0,0.0,0.0,0.0,0.0,0.0,0.0,0.0,0.0,0.0,0.0,0.0,0.0,0.0,0.0,0.0,0.0,0.0,0.0,0.0,0.0,0.0,0.0,0.0,0.0,0.0,0.0,0.0,0.8693,0.9467,1.1181,1.0954,1.047,0.9851,0.0,0.0,0.0,0.0,0.0,0.0,0.0,0.0,0.0,0.0,0.0,0.0,0.0,0.0,0.0,0.0,0.0,0.0,0.0,0.0,0.0,0.0,0.0,0.0,0.0,0.0,0.0,0.0,0.0,0.0,0.0,0.0,0.0,0.0,0.0,0.0,0.0,0.0,0.0,0.0,0.0,0.0,0.0,0.0,0.0,0.0,0.0,0.0,0.0,0.0,0.0,0.0,0.0,0.0,0.0,0.0,0.0,0.0,0.0,0.0,0.0,0.0,0.0,0.0,0.0,0.0,0.0,0.0,0.0,0.0,0.0,0.0,0.0,0.0,0.0,0.0,0.0,0.0,0.0,0.0,0.0,0.0,0.0,0.0,0.0,0.0,0.0,0.0,0.0,0.0,0.0,0.0,0.0,0.0,0.0,0.0,0.0,0.0,0.0,0.0,0.0,0.0,0.0,0.0,0.0,0.0,0.0,0.0,1.1302,1.068,1.1172,1.286,1.0578,0.9884,0.0,0.0,0.0,0.0,0.0,0.0,0.0,0.0,0.0,0.0,0.0,0.0,0.0,0.0,0.0,0.0,0.0,0.0,0.0,0.0,0.0,0.0,0.0,0.0,0.0,0.0,0.0,0.0,0.0,0.0,0.0,0.0,0.0,0.0,0.0,0.0,0.0,0.0,0.0,0.0,0.0,0.0,0.0,0.0,0.0,0.0,0.0,0.0,0.0,0.0,0.0,0.0,0.0,0.0,0.0,0.0,0.0,0.0,0.0,0.0,0.0,0.0,0.0,0.0,0.0,0.0,0.0,0.0,0.0,0.0,0.0,0.0,0.0,0.0,0.0,0.0,0.0,0.0,0.0,0.0,0.0,0.0,0.0,0.0,0.0,0.0,0.0,0.0,0.0,0.0,0.0,0.0,0.0,0.0,0.0,0.0,0.0,0.0,0.0,0.0,0.0,0.0,0.0,0.0,0.0,0.0,0.0,0.0,0.0,0.9242,1.0216,1.0828,1.1065,1.0843,1.0787,0.0,0.0,0.0,0.0,0.0,0.0,0.0,0.0,0.0,0.0,0.0,0.0,0.0,0.0,0.0,0.0,0.0,0.0,0.0,0.0,0.0,0.0,0.0,0.0,0.0,0.0,0.0,0.0,0.0,0.0,0.0,0.0,0.0,0.0,0.0,0.0,0.0,0.0,0.0,0.0,0.0,0.0,0.0,0.0,0.0,0.0,0.0,0.0,0.0,0.0,0.0,0.0,0.0,0.0,0.0,0.0,0.0,0.0,0.0,0.0,0.0,0.0,0.0,0.0,0.0,0.0,0.0,0.0,0.0,0.0,0.0,0.0,0.0,0.0,0.0,0.0,0.0,0.0,0.0,0.0,0.0,0.0,0.0,0.0,0.0,0.0,0.0,0.0,0.0,0.0,0.0,0.0,0.0,0.0,0.0,0.0,0.0,0.0,0.0,0.0,0.0,0.0,0.0,0.0,0.0,0.0,0.0,0.0,0.0,0.8768,0.0,1.0963,1.0418,1.0775,1.0713,0.0,0.0,0.0,0.0,0.0,0.0,0.0,0.0,0.0,0.0,0.0,0.0,0.0,0.0,0.0,0.0,0.0,0.0,0.0,0.0,0.0,0.0,0.0,0.0,0.0,0.0,0.0,0.0,0.0,0.0,0.0,0.0,0.0,0.0,0.0,0.0,0.0,0.0,0.0,0.0,0.0,0.0,0.0,0.0,0.0,0.0,0.0,0.0,0.0,0.0,0.0,0.0,0.0,0.0,0.0,0.0,0.0,0.0,0.0,0.0,0.0,0.0,0.0,0.0,0.0,0.0,0.0,0.0,0.0,0.0,0.0,0.0,0.0,0.0,0.0,0.0,0.0,0.0,0.0,0.0,0.0,0.0,0.0,0.0,0.0,0.0,0.0,0.0,0.0,0.0,0.0,0.0,0.0,0.0,0.0,0.0,0.0,0.0,0.0,0.0,0.0,0.0,0.0,0.0,0.0,0.0,0.0,0.0,0.8434,1.0434,1.1375,1.1655,1.1389,1.0236,0.9632,0.0,0.0,0.0,0.0,0.0,0.0,0.0,0.0,0.0,0.0,0.0,0.0,0.0,0.0,0.0,0.0,0.0,0.0,0.0,0.0,0.0,0.0,0.0,0.0,0.0,0.0,0.0,0.0,0.0,0.0,0.0,0.0,0.0,0.0,0.0,0.0,0.0,0.0,0.0,0.0,0.0,0.0,0.0,0.0,0.0,0.0,0.0,0.0,0.0,0.0,0.0,0.0,0.0,0.0,0.0,0.0,0.0,0.0,0.0,0.0,0.0,0.0,0.0,0.0,0.0,0.0,0.0,0.0,0.0,0.0,0.0,0.0,0.0,0.0,0.0,0.0,0.0,0.0,0.0,0.0,0.0,0.0,0.0,0.0,0.0,0.0,0.0,0.0,0.0,0.0,0.0,0.0,0.0,0.0,0.0,0.0,0.0,0.0,0.0,0.0,0.0,0.0,0.0,0.0,0.0,0.0,0.0,0.0,0.0,0.8963,1.0165,1.1234,1.2084,1.1149,1.1352,0.0,0.0,0.0,0.0,0.0,0.0,0.0,0.0,0.0,0.0,0.0,0.0,0.0,0.0,0.0,0.0,0.0,0.0,0.0,0.0,0.0,0.0,0.0,0.0,0.0,0.0,0.0,0.0,0.0,0.0,0.0,0.0,0.0,0.0,0.0,0.0,0.0,0.0,0.0,0.0,0.0,0.0,0.0,0.0,0.0,0.0,0.0,0.0,0.0,0.0,0.0,0.0,0.0,0.0,0.0,0.0,0.0,0.0,0.0,0.0,0.0,0.0,0.0,0.0,0.0,0.0,0.0,0.0,0.0,0.0,0.0,0.0,0.0,0.0,0.0,0.0,0.0,0.0,0.0,0.0,0.0,0.0,0.0,0.0,0.0,0.0,0.0,0.0,0.0,0.0,0.0,0.0,0.0,0.0,0.0,0.0,0.0,0.0,0.0,0.0,0.0,0.0,0.0,0.0,0.0,0.0,0.0,0.0,0.0,0.9452,1.0264,1.1256,1.2332,1.1818,1.2087,1.3227,0.0,0.0,0.0,0.0,0.0,0.0,0.0,0.0,0.0,0.0,0.0,0.0,0.0,0.0,0.0,0.0,0.0,0.0,0.0,0.0,0.0,0.0,0.0,0.0,0.0,0.0,0.0,0.0,0.0,0.0,0.0,0.0,0.0,0.0,0.0,0.0,0.0,0.0,0.0,0.0,0.0,0.0,0.0,0.0,0.0,0.0,0.0,0.0,0.0,0.0,0.0,0.0,0.0,0.0,0.0,0.0,0.0,0.0,0.0,0.0,0.0,0.0,0.0,0.0,0.0,0.0,0.0,0.0,0.0,0.0,0.0,0.0,0.0,0.0,0.0,0.0,0.0,0.0,0.0,0.0,0.0,0.0,0.0,0.0,0.0,0.0,0.0,0.0,0.0,0.0,0.0,0.0,0.0,0.0,0.0,0.0,0.0,0.0,0.0,0.0,0.0,0.0,0.0,0.0,0.0,0.0,0.0,0.0,1.16,1.1628,1.1898,1.2326,1.2374,1.2125,0.0,0.0,0.0,0.0,0.0,0.0,0.0,0.0,0.0,0.0,0.0,0.0,0.0,0.0,0.0,0.0,0.0,0.0,0.0,0.0,0.0,0.0,0.0,0.0,0.0,0.0,0.0,0.0,0.0,0.0,0.0,0.0,0.0,0.0,0.0,0.0,0.0,0.0,0.0,0.0,0.0,0.0,0.0,0.0,0.0,0.0,0.0,0.0,0.0,0.0,0.0,0.0,0.0,0.0,0.0,0.0,0.0,0.0,0.0,0.0,0.0,0.0,0.0,0.0,0.0,0.0,0.0,0.0,0.0,0.0,0.0,0.0,0.0,0.0,0.0,0.0,0.0,0.0,0.0,0.0,0.0,0.0,0.0,0.0,0.0,0.0,0.0,0.0,0.0,0.0,0.0,0.0,0.0,0.0,0.0,0.0,0.0,0.0,0.0,0.0,0.0,0.0,0.0,0.0,0.0,0.0,0.0,0.0,0.0,1.4043,1.3806,1.3992,1.4696,1.3841,1.3839,0.0,0.0,0.0,0.0,0.0,0.0,0.0,0.0,0.0,0.0,0.0,0.0,0.0,0.0,0.0,0.0,0.0,0.0,0.0,0.0,0.0,0.0,0.0,0.0,0.0,0.0,0.0,0.0,0.0,0.0,0.0,0.0,0.0,0.0,0.0,0.0,0.0,0.0,0.0,0.0,0.0,0.0,0.0,0.0,0.0,0.0,0.0,0.0,0.0,0.0,0.0,0.0,0.0,0.0,0.0,0.0,0.0,0.0,0.0,0.0,0.0,0.0,0.0,0.0,0.0,0.0,0.0,0.0,0.0,0.0,0.0,0.0,0.0,0.0,0.0,0.0,0.0,0.0,0.0,0.0,0.0,0.0,0.0,0.0,0.0,0.0,0.0,0.0,0.0,0.0,0.0,0.0,0.0,0.0,0.0,0.0,0.0,0.0,0.0,0.0,0.0,0.0,0.0,0.0,0.0,0.0,0.0,0.0,1.3608,1.4783,1.5134,1.568,1.6405,1.5367,1.4951,0.0,0.0,0.0,0.0,0.0,0.0,0.0,0.0,0.0,0.0,0.0,0.0,0.0,0.0,0.0,0.0,0.0,0.0,0.0,0.0,0.0,0.0,0.0,0.0,0.0,0.0,0.0,0.0,0.0,0.0,0.0,0.0,0.0,0.0,0.0,0.0,0.0,0.0,0.0,0.0,0.0,0.0,0.0,0.0,0.0,0.0,0.0,0.0,0.0,0.0,0.0,0.0,0.0,0.0,0.0,0.0,0.0,0.0,0.0,0.0,0.0,0.0,0.0,0.0,0.0,0.0,0.0,0.0,0.0,0.0,0.0,0.0,0.0,0.0,0.0,0.0,0.0,0.0,0.0,0.0,0.0,0.0,0.0,0.0,0.0,0.0,0.0,0.0,0.0,0.0,0.0,0.0,0.0,0.0,0.0,0.0,0.0,0.0,0.0,0.0,0.0,0.0,0.0,0.0,0.0,0.0,0.0,0.0,1.4419,1.4544,1.5935,1.6904,1.7346,1.6518,1.5474,0.0,0.0,0.0,0.0,0.0,0.0,0.0,0.0,0.0,0.0,0.0,0.0,0.0,0.0,0.0,0.0,0.0,0.0,0.0,0.0,0.0,0.0,0.0,0.0,0.0,0.0,0.0,0.0,0.0,0.0,0.0,0.0,0.0,0.0,0.0,0.0,0.0,0.0,0.0,0.0,0.0,0.0,0.0,0.0,0.0,0.0,0.0,0.0,0.0,0.0,0.0,0.0,0.0,0.0,0.0,0.0,0.0,0.0,0.0,0.0,0.0,0.0,0.0,0.0,0.0,0.0,0.0,0.0,0.0,0.0,0.0,0.0,0.0,0.0,0.0,0.0,0.0,0.0,0.0,0.0,0.0,0.0,0.0,0.0,0.0,0.0,0.0,0.0,0.0,0.0,0.0,0.0,0.0,0.0,0.0,0.0,0.0,0.0,0.0,0.0,0.0,0.0,0.0,0.0,0.0,0.0,0.0,0.0,1.499,1.5266,1.6493,1.724,1.7386,1.5413,1.4571,0.0,0.0,0.0,0.0,0.0,0.0,0.0,0.0,0.0,0.0,0.0,0.0,0.0,0.0,0.0,0.0,0.0,0.0,0.0,0.0,0.0,0.0,0.0,0.0,0.0,0.0,0.0,0.0,0.0,0.0,0.0,0.0,0.0,0.0,0.0,0.0,0.0,0.0,0.0,0.0,0.0,0.0,0.0,0.0,0.0,0.0,0.0,0.0,1.7137,0.0,0.0,0.0,0.0,0.0,0.0,0.0,0.0,0.0,0.0,0.0,0.0,0.0,0.0,0.0,0.0,0.0,0.0,0.0,0.0,0.0,0.0,0.0,0.0,0.0,0.0,0.0,0.0,0.0,0.0,0.0,0.0,0.0,0.0,0.0,0.0,0.0,0.0,0.0,0.0,0.0,0.0,0.0,0.0,0.0,0.0,0.0,0.0,0.0,0.0,0.0,0.0,0.0,0.0,0.0,0.0,0.0,0.0,0.0,1.4664,1.5132,1.6188,1.6799,1.684,1.4594,1.3959,0.0,0.0,0.0,0.0,0.0,0.0,0.0,0.0,0.0,0.0,0.0,0.0,0.0,0.0,0.0,0.0,0.0,0.0,0.0,0.0,0.0,0.0,0.0,0.0,0.0,0.0,0.0,0.0,0.0,0.0,0.0,0.0,0.0,0.0,0.0,0.0,0.0,0.0,0.0,0.0,0.0,0.0,0.0,0.0,0.0,0.0,0.0,0.0,0.0,0.0,0.0,0.0,0.0,0.0,0.0,0.0,0.0,0.0,0.0,0.0,0.0,0.0,0.0,0.0,0.0,0.0,0.0,0.0,0.0,0.0,0.0,0.0,0.0,0.0,0.0,0.0,0.0,0.0,0.0,0.0,0.0,0.0,0.0,0.0,0.0,0.0,0.0,0.0,0.0,0.0,0.0,0.0,0.0,0.0,0.0,0.0,0.0,0.0,0.0,0.0,0.0,0.0,0.0,0.0,0.0,0.0,0.0,1.333,1.4152,1.4712,1.5648,1.6101,1.5991,1.391,1.3541,1.5111,0.0,0.0,0.0,0.0,0.0,0.0,0.0,0.0,0.0,0.0,0.0,0.0,0.0,0.0,0.0,0.0,0.0,0.0,0.0,0.0,0.0,0.0,0.0,0.0,0.0,0.0,0.0,0.0,0.0,0.0,0.0,0.0,0.0,0.0,0.0,0.0,0.0,0.0,1.3267,1.3971,0.0,0.0,0.0,0.0,0.0,0.0,0.0,0.0,1.6313,0.0,0.0,0.0,0.0,0.0,0.0,0.0,0.0,0.0,0.0,0.0,0.0,0.0,0.0,0.0,0.0,0.0,0.0,0.0,0.0,0.0,0.0,0.0,0.0,0.0,0.0,0.0,0.0,0.0,0.0,0.0,0.0,0.0,0.0,0.0,0.0,0.0,0.0,0.0,0.0,0.0,0.0,0.0,0.0,0.0,0.0,0.0,0.0,0.0,0.0,0.0,0.0,0.0,0.0,0.0,0.0,1.3163,1.3987,1.4534,1.4806,1.575,1.563,1.4355,1.3261,1.3224,1.4217,0.0,0.0,0.0,0.0,0.0,0.0,0.0,0.0,0.0,0.0,0.0,0.0,0.0,0.0,0.0,0.0,0.0,0.0,0.0,0.0,0.0,0.0,0.0,0.0,0.0,0.0,0.0,0.0,0.0,0.0,0.0,0.0,0.0,0.0,0.0,0.0,0.0,0.0,0.0,1.3976,1.458,0.0,0.0,0.0,0.0,0.0,0.0,0.0,0.0,1.5951,0.0,0.0,0.0,0.0,0.0,0.0,0.0,0.0,0.0,0.0,0.0,0.0,0.0,0.0,0.0,0.0,0.0,0.0,0.0,0.0,0.0,0.0,0.0,0.0,0.0,0.0,0.0,0.0,0.0,0.0,0.0,0.0,0.0,0.0,0.0,0.0,0.0,0.0,0.0,0.0,0.0,0.0,0.0,0.0,0.0,0.0,0.0,0.0,0.0,0.0,0.0,0.0,0.0,0.0,0.0,1.2883,1.3167,1.3583,1.4177,1.4792,1.4727,1.3963,1.2896,1.2905,0.0,0.0,0.0,0.0,0.0,0.0,0.0,0.0,0.0,0.0,0.0,0.0,0.0,0.0,0.0,0.0,0.0,0.0,0.0,0.0,0.0,0.0,0.0,0.0,0.0,0.0,0.0,0.0,0.0,0.0,0.0,0.0,0.0,0.0,0.0,0.0,0.0,0.0,0.0,0.0,1.4217,1.4813,1.5549,0.0,0.0,0.0,0.0,0.0,0.0,1.5381,1.523,0.0,0.0,0.0,0.0,0.0,0.0,0.0,0.0,0.0,0.0,0.0,0.0,0.0,0.0,0.0,0.0,0.0,0.0,0.0,0.0,0.0,0.0,0.0,0.0,0.0,0.0,0.0,0.0,0.0,0.0,0.0,0.0,0.0,0.0,0.0,0.0,0.0,0.0,0.0,0.0,0.0,0.0,0.0,0.0,0.0,0.0,0.0,0.0,0.0,0.0,0.0,0.0,0.0,0.0,0.0,1.2938,1.2661,1.2859,1.364,1.3874,1.3835,1.3487,1.2626,1.2759,0.0,0.0,0.0,0.0,0.0,0.0,0.0,0.0,0.0,0.0,0.0,0.0,0.0,0.0,0.0,0.0,0.0,0.0,0.0,0.0,0.0,0.0,0.0,0.0,0.0,0.0,0.0,0.0,0.0,0.0,0.0,0.0,0.0,0.0,0.0,0.0,0.0,0.0,0.0,0.0,0.0,1.4855,1.5897,1.5993,0.0,0.0,0.0,0.0,1.5457,1.5056,0.0,0.0,0.0,0.0,0.0,0.0,0.0,0.0,0.0,0.0,0.0,0.0,0.0,0.0,0.0,0.0,0.0,0.0,0.0,0.0,0.0,0.0,0.0,0.0,0.0,0.0,0.0,0.0,0.0,0.0,0.0,0.0,0.0,0.0,0.0,0.0,0.0,0.0,0.0,0.0,0.0,0.0,0.0,0.0,0.0,0.0,0.0,0.0,0.0,0.0,0.0,0.0,0.0,0.0,0.0,0.0,1.4631,1.3861,1.3584,1.3862,1.394,1.3271,1.1769,1.2352,1.3143,0.0,0.0,0.0,0.0,0.0,0.0,0.0,0.0,0.0,0.0,0.0,0.0,0.0,0.0,0.0,0.0,0.0,0.0,0.0,0.0,0.0,0.0,0.0,0.0,0.0,0.0,0.0,0.0,0.0,0.0,0.0,0.0,0.0,0.0,0.0,0.0,0.0,0.0,0.0,0.0,0.0,1.4002,1.48,1.5186,1.5346,0.0,0.0,1.5584,1.5359,1.5637,0.0,0.0,0.0,0.0,0.0,0.0,0.0,0.0,0.0,0.0,0.0,0.0,0.0,0.0,0.0,0.0,0.0,0.0,0.0,0.0,0.0,0.0,0.0,0.0,0.0,0.0,0.0,0.0,0.0,0.0,0.0,0.0,0.0,0.0,0.0,0.0,0.0,0.0,0.0,0.0,0.0,0.0,0.0,0.0,0.0,0.0,0.0,0.0,0.0,0.0,0.0,0.0,0.0,0.0,0.0,1.4242,1.5315,1.4291,1.3799,1.3942,1.3507,1.2686,1.1507,1.1988,1.2868,0.0,0.0,0.0,0.0,0.0,0.0,0.0,0.0,0.0,0.0,0.0,0.0,0.0,0.0,0.0,0.0,0.0,0.0,0.0,0.0,0.0,0.0,0.0,0.0,0.0,0.0,0.0,0.0,0.0,0.0,0.0,0.0,0.0,0.0,0.0,0.0,0.0,0.0,0.0,0.0,0.0,0.0,1.4816,1.5092,0.0,0.0,0.0,1.5373,1.4959,0.0,0.0,0.0,0.0,0.0,0.0,0.0,0.0,0.0,0.0,0.0,0.0,0.0,0.0,0.0,0.0,0.0,0.0,0.0,0.0,0.0,0.0,0.0,0.0,0.0,0.0,0.0,0.0,0.0,0.0,0.0,0.0,0.0,0.0,0.0,0.0,0.0,0.0,0.0,0.0,0.0,0.0,0.0,0.0,0.0,0.0,0.0,0.0,0.0,0.0,0.0,0.0,0.0,0.0,0.0,0.0,0.0,1.6203,1.4671,1.3897,1.3975,1.295,1.2003,1.1219,1.1776,0.0,0.0,0.0,0.0,0.0,0.0,0.0,0.0,0.0,0.0,0.0,0.0,0.0,0.0,0.0,0.0,0.0,0.0,0.0,0.0,0.0,0.0,0.0,0.0,0.0,0.0,0.0,1.8005,0.0,0.0,0.0,0.0,0.0,0.0,0.0,0.0,0.0,0.0,0.0,0.0,0.0,0.0,1.5358,1.5221,1.5243,1.5346,0.0,0.0,1.538,1.4967,1.5618,1.6508,0.0,0.0,0.0,0.0,0.0,0.0,0.0,0.0,0.0,0.0,0.0,0.0,0.0,0.0,0.0,0.0,0.0,0.0,0.0,0.0,0.0,0.0,0.0,0.0,0.0,0.0,0.0,0.0,0.0,0.0,0.0,0.0,0.0,0.0,0.0,0.0,0.0,0.0,0.0,0.0,0.0,0.0,0.0,0.0,0.0,0.0,0.0,0.0,0.0,0.0,0.0,0.0,0.0,0.0,1.699,1.7736,1.5295,1.4032,1.3976,1.2417,1.1155,1.0349,1.1891,1.3539,0.0,0.0,0.0,0.0,0.0,0.0,0.0,0.0,0.0,0.0,0.0,0.0,0.0,0.0,0.0,0.0,0.0,0.0,0.0,0.0,0.0,0.0,0.0,0.0,0.0,0.0,0.0,0.0,0.0,0.0,0.0,0.0,0.0,0.0,0.0,0.0,0.0,0.0,0.0,0.0,0.0,1.4953,1.5893,1.5556,1.5292,0.0,1.5595,1.562,1.5718,1.6477,1.6996,1.6673,0.0,0.0,0.0,0.0,0.0,0.0,0.0,0.0,0.0,0.0,0.0,0.0,0.0,0.0,0.0,0.0,0.0,0.0,0.0,0.0,0.0,0.0,0.0,0.0,0.0,0.0,0.0,0.0,0.0,0.0,0.0,0.0,0.0,0.0,0.0,0.0,0.0,0.0,0.0,0.0,0.0,0.0,0.0,0.0,0.0,0.0,0.0,0.0,0.0,0.0,0.0,0.0,0.0,1.814,1.92,1.7328,1.6111,1.5571,1.4452,1.3204,1.1849,1.2975,1.3649,0.0,0.0,0.0,0.0,0.0,0.0,0.0,0.0,0.0,0.0,0.0,0.0,0.0,0.0,0.0,0.0,0.0,0.0,0.0,0.0,0.0,0.0,0.0,0.0,0.0,0.0,0.0,0.0,1.7856,1.7875,1.861,0.0,0.0,0.0,0.0,0.0,0.0,0.0,0.0,0.0,0.0,1.5774,1.5367,1.5245,0.0,0.0,1.487,1.512,1.5702,1.6166,1.6563,1.6873,1.7978,0.0,0.0,0.0,0.0,0.0,0.0,0.0,0.0,0.0,0.0,0.0,0.0,0.0,0.0,0.0,0.0,0.0,0.0,0.0,0.0,0.0,0.0,0.0,0.0,0.0,0.0,0.0,0.0,0.0,0.0,0.0,0.0,0.0,0.0,0.0,0.0,0.0,0.0,0.0,0.0,0.0,0.0,0.0,0.0,0.0,0.0,0.0,0.0,0.0,0.0,0.0,0.0,1.8994,1.9914,1.8518,1.7406,1.6569,1.5495,1.4226,1.2888,1.3652,1.3939,0.0,0.0,0.0,0.0,0.0,0.0,0.0,0.0,0.0,0.0,0.0,0.0,0.0,0.0,0.0,0.0,0.0,0.0,0.0,0.0,0.0,0.0,0.0,0.0,0.0,0.0,0.0,0.0,1.9006,1.8951,1.7941,0.0,0.0,0.0,0.0,0.0,0.0,0.0,0.0,0.0,0.0,1.6243,1.5588,1.5478,1.5455,1.5364,1.5402,1.5718,1.6442,1.6627,1.6803,1.7106,0.0,0.0,0.0,0.0,0.0,0.0,0.0,0.0,0.0,0.0,0.0,0.0,0.0,0.0,0.0,0.0,0.0,0.0,0.0,0.0,0.0,0.0,0.0,0.0,0.0,0.0,0.0,1.6611,0.0,0.0,1.7762,0.0,0.0,0.0,0.0,0.0,0.0,0.0,0.0,0.0,0.0,0.0,0.0,0.0,0.0,0.0,0.0,0.0,0.0,0.0,0.0,0.0,0.0,1.9633,1.9771,1.854,1.7437,1.655,1.492,1.3737,1.2925,1.3689,1.4525,1.5336,0.0,0.0,0.0,0.0,0.0,0.0,0.0,0.0,0.0,0.0,0.0,0.0,0.0,0.0,0.0,0.0,0.0,0.0,0.0,0.0,0.0,0.0,0.0,0.0,0.0,0.0,1.863,1.8816,1.8167,0.0,0.0,0.0,0.0,0.0,0.0,0.0,0.0,0.0,1.7659,1.6548,1.6069,1.6899,1.6553,1.6543,1.7491,1.7601,1.7748,1.8126,1.8195,1.8001,0.0,0.0,0.0,0.0,0.0,0.0,0.0,0.0,0.0,0.0,0.0,0.0,0.0,0.0,0.0,0.0,0.0,0.0,0.0,0.0,0.0,0.0,0.0,0.0,0.0,0.0,0.0,1.8433,1.8147,0.0,0.0,0.0,0.0,0.0,0.0,0.0,0.0,0.0,0.0,0.0,1.9104,1.9274,0.0,0.0,0.0,0.0,0.0,0.0,0.0,0.0,0.0,0.0,0.0,0.0,1.9831,2.0038,1.9687,1.9058,1.8248,1.7693,1.6738,1.5389,1.6168,1.6759,1.706,0.0,0.0,0.0,0.0,0.0,0.0,0.0,0.0,0.0,0.0,0.0,0.0,0.0,0.0,0.0,0.0,0.0,0.0,0.0,0.0,0.0,0.0,0.0,0.0,0.0,1.9726,0.0,0.0,0.0,0.0,0.0,0.0,0.0,0.0,0.0,0.0,0.0,1.8725,1.7884,1.7644,1.7479,1.7261,1.721,1.7205,0.0,0.0,0.0,0.0,0.0,0.0,0.0,0.0,0.0,0.0,0.0,0.0,0.0,0.0,2.0463,1.9606,1.8928,1.8503,1.8497,0.0,0.0,0.0,0.0,0.0,0.0,0.0,0.0,0.0,0.0,0.0,0.0,0.0,0.0,1.9168,1.9385,1.938,0.0,0.0,0.0,0.0,0.0,0.0,0.0,0.0,1.9357,1.9549,1.9682,1.9571,1.9535,1.9612,1.9864,1.9728,0.0,0.0,0.0,0.0,0.0,0.0,0.0,0.0,1.9614,2.0129,1.9944,1.9603,1.9109,1.9096,1.843,1.7081,1.759,1.7618,1.7025,1.6753,1.6467,0.0,0.0,0.0,0.0,0.0,0.0,0.0,0.0,0.0,0.0,0.0,0.0,0.0,0.0,0.0,0.0,0.0,0.0,0.0,0.0,0.0,0.0,0.0,1.9586,0.0,0.0,0.0,0.0,0.0,0.0,0.0,0.0,0.0,1.8239,1.8785,1.8966,1.8152,1.8121,1.8076,1.7754,0.0,0.0,0.0,0.0,0.0,0.0,0.0,1.7979,1.8524,1.8235,1.7918,1.7815,1.8603,1.917,1.8996,0.0,0.0,1.9449,1.8906,1.8525,1.8515,1.8029,1.7654,1.7838,1.7945,1.7934,0.0,0.0,0.0,0.0,1.9341,0.0,0.0,0.0,1.9222,1.9643,0.0,2.0291,0.0,0.0,0.0,0.0,2.0356,2.036,0.0,0.0,1.9516,1.9974,2.073,1.9957,1.9893,2.0516,2.1212,2.0782,1.9356,1.9184,0.0,0.0,0.0,0.0,0.0,0.0,1.9036,2.006,1.9402,1.902,1.9061,1.9109,1.874,1.7949,1.7896,1.716,1.5691,1.7843,1.8734,1.791,1.9413,0.0,0.0,0.0,0.0,0.0,0.0,0.0,0.0,0.0,0.0,0.0,0.0,0.0,0.0,0.0,0.0,0.0,0.0,0.0,0.0,2.0119,0.0,0.0,0.0,0.0,0.0,0.0,0.0,0.0,0.0,0.0,1.8886,1.8601,1.8517,1.8498,0.0,0.0,0.0,0.0,1.8005,1.8686,1.886,1.8977,1.924,1.9262,1.9282,1.9368,0.0,0.0,1.931,1.9286,1.9239,1.9112,1.8883,1.9053,2.0412,1.9803,1.9221,1.9188,1.9113,1.8936,1.8334,1.9086,1.9711,2.0607,0.0,0.0,0.0,0.0,2.0162,2.0435,2.0937,2.0835,2.1068,2.1463,2.0669,0.0,0.0,0.0,0.0,0.0,0.0,2.0382,2.0233,2.0917,2.1333,2.1475,2.0771,2.0459,2.0496,2.0193,1.9867,1.9533,1.9485,1.9455,1.9498,0.0,0.0,0.0,0.0,1.9225,2.0114,1.9432,1.9311,1.9929,1.9948,1.9866,1.9646,1.8458,1.8186,1.8924,1.9652,2.0172,2.0469,2.1545,0.0,0.0,0.0,0.0,0.0,0.0,0.0,0.0,0.0,0.0,0.0,0.0,0.0,0.0,0.0,0.0,0.0,0.0,0.0,1.9377,2.0422,2.0622,0.0,0.0,0.0,0.0,0.0,0.0,0.0,0.0,0.0,2.0578,1.9987,1.9328,0.0,0.0,1.8547,1.8561,1.8606,1.8727,1.898,1.9019,0.0,1.9219,1.922,1.9232,1.9244,1.9274,1.927,1.9243,1.9235,1.9182,1.8991,1.89,1.8927,1.9101,1.8866,1.851,1.8417,1.8411,1.8354,1.8124,1.8408,1.8528,2.1841,2.0666,2.0407,2.0555,2.093,2.0902,2.1212,2.1698,2.1665,2.1956,2.2433,2.1756,2.1927,2.2678,2.1561,0.0,0.0,0.0,2.1389,2.1149,2.1766,2.2202,2.2415,2.1712,2.1269,2.1071,2.0663,2.0192,1.9666,2.002,2.024,2.0316,0.0,1.9844,2.0018,1.9243,1.9339,2.0246,1.9469,1.9469,2.0326,2.0328,2.0333,2.0361,1.9378,1.9329,2.0353,2.038,2.093,2.2056,2.2313,2.2684,0.0,0.0,0.0,0.0,0.0,0.0,0.0,0.0,0.0,0.0,0.0,2.0199,1.9631,0.0,0.0,0.0,2.0535,1.9876,1.8743,2.0649,0.0,0.0,0.0,0.0,0.0,0.0,0.0,2.0662,2.1305,2.1636,2.1271,2.0792,2.0235,1.9565,1.9698,1.9744,1.9442,0.0,1.9344,1.9097,1.9059,1.9097,1.9204,1.9174,1.9158,1.9192,1.9196,1.9174,1.9152,1.9174,1.9156,1.9046,1.8952,1.8856,1.8706,1.8505,1.8294,1.8154,1.8074,1.8043,1.7983,1.7911,1.785,2.312,2.2316,2.1891,2.1623,2.1453,2.1579,2.1748,2.1918,2.2029,2.2543,2.3291,2.3233,2.3534,2.41,2.4132,0.0,2.3026,2.3108,2.2806,2.223,2.2282,2.2772,2.3547,2.2729,2.2252,2.2144,2.2128,2.1372,2.0041,2.0809,2.1394,2.1663,2.0606,2.0179,2.0359,1.9489,1.9461,2.0379,1.9628,1.9608,2.0373,2.0347,2.0318,2.0381,2.0379,2.0381,2.0381,2.0381,2.1137,2.2652,2.2172,2.2497,2.3878,0.0,0.0,0.0,0.0,0.0,0.0,0.0,0.0,0.0,0.0,0.0,0.0,0.0,0.0,0.0,2.2333,0.0,1.8475,2.093,0.0,0.0,0.0,2.1516,2.1594,2.2208,2.2293,2.1478,0.0,0.0,2.1381,2.1297,2.1356,2.1459,2.1385,2.1148,2.0713,2.0402,1.9938,1.9345,1.9205,1.9238,1.9477,1.9356,1.924,1.919,1.9198,1.9146,1.9128,1.9128,1.9186,1.916,1.9012,1.8878,1.8802,1.8691,1.8542,1.8368,1.817,1.7999,1.79,1.7828,1.7755,2.4051,2.3725,2.3612,2.3254,2.2754,2.2784,2.3155,2.3745,2.3676,2.3898,2.4281,2.3434,2.2865,2.2592,2.3337,2.3239,2.2525,2.3222,2.3464,2.3368,2.3948,2.4367,2.451,2.3725,2.334,2.3242,2.2687,2.2247,2.1935,2.2233,2.2472,2.2562,2.2344,2.1945,2.1345,2.0491,2.015,2.0379,2.0261,2.0227,2.0373,2.0381,2.0364,2.0329,2.0329,2.0354,2.0381,2.0381,2.0906,2.1938,2.24,2.3072,2.4101,2.2594,0.0,0.0,0.0,0.0,0.0,0.0,0.0,0.0,0.0,2.1599,2.1397,0.0,2.1001,0.0,2.3229,2.2955,2.0995,2.2049,0.0,0.0,2.1489,2.1916,2.3089,2.2908,2.2769,2.3004,2.3296,2.3325,2.2962,2.3031,2.3086,2.3112,2.2113,2.1272,2.1012,2.1106,2.1041,2.0703,2.0653,2.0762,2.0688,2.0254,1.9682,1.9204,1.9037,1.8991,1.9093,1.9075,1.9053,1.9057,1.9009,1.894,1.8891,1.8725,1.8595,1.8518,1.8278,1.8002,1.7727,1.7658,1.7641,2.4607,2.4512,2.4512,2.4313,2.3933,2.3803,2.3966,2.4353,2.4425,2.4598,2.4749,2.4155,2.3675,2.3379,2.3896,2.388,2.3502,2.3999,2.4236,2.4255,2.47,2.4905,2.4886,2.4438,2.4065,2.3733,2.3313,2.2976,2.2701,2.284,2.3096,2.3495,2.32,2.3018,2.2872,2.2042,2.1417,2.1078,2.0681,2.0474,2.0453,2.0414,2.0571,2.095,2.0976,2.0968,2.0983,2.0972,2.1198,2.1688,2.2133,2.2942,2.408,2.2276,2.1569,0.0,0.0,0.0,0.0,0.0,0.0,0.0,0.0,0.0,0.0,0.0,2.1791,2.235,2.3511,2.3676,2.2318,2.2914,2.3319,2.3151,2.2715,2.2798,2.3699,2.3436,2.335,2.3732,2.3834,2.384,2.373,2.3761,2.379,2.379,2.3098,2.2542,2.2379,2.2204,2.2106,2.2349,2.187,2.1337,2.0974,2.0219,1.9541,1.9134,1.8952,1.8913,1.8948,1.8966,1.8966,1.8953,1.8953,1.894,1.8914,1.8825,1.8707,1.8565,1.8383,1.8104,1.7805,1.7738,1.7704,2.5057,2.5076,2.5189,2.5227,2.5198,2.4937,2.4634,2.4391,2.4693,2.485,2.4905,2.4965,2.5016,2.5013,2.4955,2.4958,2.4958,2.4936,2.4955,2.4955,2.4939,2.4965,2.4965,2.4965,2.4623,2.4033,2.4069,2.3792,2.3159,2.326,2.3729,2.4424,2.3784,2.3815,2.4494,2.3795,2.3034,2.2211,2.1317,2.0817,2.0836,2.0768,2.1086,2.174,2.1788,2.1695,2.1551,2.1527,2.1586,2.1694,2.1804,2.2576,2.4024,2.1313,2.1312,0.0,2.2225,0.0,0.0,0.0,0.0,0.0,0.0,0.0,0.0,2.312,2.2835,2.2226,2.3539,2.4073,2.3244,2.3712,2.4008,2.3928,2.3819,2.3768,2.3821,2.3847,2.3878,2.3991,2.3998,2.4008,2.3981,2.3942,2.3927,2.3914,2.3958,2.3917,2.3946,2.3333,2.3077,2.3709,2.257,2.1384,2.0618,1.9846,1.93,1.904,1.8913,1.8855,1.881,1.8864,1.8895,1.8895,1.8909,1.8891,1.8883,1.8878,1.8775,1.8582,1.8465,1.8296,1.8008,1.7866,1.7783,2.595,2.6025,2.6651,2.6932,2.6921,2.6975,2.6145,2.4796,2.4842,2.4895,2.4912,2.5018,2.5089,2.5097,2.5174,2.5247,2.5225,2.5228,2.5228,2.5228,2.5225,2.5254,2.5296,2.5296,2.5268,2.5177,2.521,2.5154,2.5076,2.5102,2.5224,2.5447,2.5272,2.5293,2.5433,0.0,0.0,0.0,2.3049,2.2611,2.2591,2.2603,2.2297,2.1749,2.1711,0.0,2.0694,2.0655,2.0986,2.1672,2.2325,0.0,0.0,0.0,0.0,0.0,0.0,0.0,0.0,0.0,0.0,0.0,2.4717,2.4764,2.4389,2.4209,2.3845,2.3243,2.4016,2.4752,2.519,2.4673,2.4529,2.4989,2.4456,2.4034,2.4054,2.4086,2.4096,2.4011,2.4105,2.4096,2.3963,2.3989,2.4067,2.4061,2.4134,2.4196,2.422,2.3978,2.3455,2.2525,2.1971,2.1325,2.0655,2.0278,1.9755,1.9294,1.8951,1.8834,1.8817,1.8846,1.8896,1.8883,1.8892,1.8878,1.882,1.8729,1.8642,1.858,1.852,1.84,1.8111,1.7877,1.7777,2.7146,2.7168,2.7584,2.7735,0.0,2.781,2.707,2.582,2.5734,2.5457,2.5116,2.5247,2.529,2.5309,2.5344,2.5339,2.5361,2.5361,2.5361,2.5346,2.5388,2.5412,2.545,2.545,2.5486,2.5544,2.5544,2.5571,2.5646,2.5628,2.5675,2.5688,2.5688,2.5688,2.5688,2.5688,2.5278,2.4398,2.354,2.3107,2.3078,2.2705,2.2485,2.2378,2.2011,0.0,0.0,0.0,0.0,0.0,0.0,0.0,0.0,2.4077,2.4355,2.5081,2.4626,2.4351,2.4571,2.5307,2.5521,2.5055,2.5855,2.6045,2.5242,2.5159,2.5176,2.5267,2.5259,2.5367,2.5613,2.4891,2.4464,2.4651,2.4317,2.4066,2.4157,2.4186,2.4229,2.4243,2.4317,2.4289,2.4163,2.4182,2.4196,2.4158,2.419,2.4205,2.4243,2.4201,2.3821,2.3178,2.2542,2.2082,2.1733,2.082,1.9952,1.9233,1.8968,1.8956,1.8999,1.8942,1.8892,1.8861,1.8797,1.8729,1.8676,1.8597,1.8568,1.8558,1.8506,1.8435,1.8293,1.8085,1.7882,2.8315,2.8336,2.8469,2.8529,2.8528,2.8547,2.8048,2.7213,2.6599,0.0,0.0,2.5457,2.5582,2.5715,2.552,2.559,2.5844,2.5549,2.549,2.5633,2.5536,2.5508,2.5517,2.5518,2.5548,2.5611,2.5612,2.5645,2.5706,2.5688,2.5688,2.5688,2.5688,2.5688,2.5688,2.5688,2.5356,2.4652,2.393,2.356,2.354,2.2915,2.2739,2.3111,2.2608,2.2476,2.2768,2.2908,2.305,2.3137,2.3128,2.351,2.4357,2.4349,2.4627,2.5265,2.5305,2.5148,2.4947,2.5744,2.6242,2.6225,2.6962,2.7009,2.6081,2.6157,2.6492,2.7161,2.6424,2.5931,2.5888,2.4974,2.4365,2.4357,2.4213,2.4168,2.4261,2.4252,2.4312,2.4442,2.4469,2.4437,2.4381,2.4321,2.4261,2.4215,2.4195,2.4204,2.4205,2.4197,2.4118,2.3815,2.3024,2.2621,2.2484,2.1374,2.0032,1.9173,1.9042,1.9125,1.9178,1.9073,1.8909,1.8825,1.8743,1.8664,1.8539,1.8519,1.85,1.8488,1.8418,1.8365,1.8403,1.8273,1.8051,2.9226,2.9263,2.9959,3.0247,3.0247,3.0247,2.9792,2.8858,2.6635,2.5577,2.5468,2.5479,2.5916,2.6581,2.5827,2.6311,2.76,2.6173,2.5901,2.6548,2.5852,2.553,2.5571,2.5591,2.5614,2.5682,2.5703,2.5704,2.5687,2.5688,2.5688,2.5688,2.5688,2.5688,2.5688,2.5688,2.5629,2.5531,2.5414,2.5336,2.5317,2.5238,2.4477,2.3189,2.3696,2.3329,2.1943,2.2618,2.3315,2.3966,2.3962,2.4317,2.5181,2.5653,2.6025,2.6235,2.6737,2.6991,2.691,2.7797,2.8336,2.8251,2.7741,2.7383,2.7343,2.7409,2.7402,2.7296,2.6608,2.6355,2.6845,2.5601,2.4977,2.5623,2.5071,2.459,2.4626,2.4594,2.4543,2.4521,2.4412,2.4458,2.4441,2.4349,2.4317,2.4246,2.4284,2.4214,2.4205,2.4201,2.3896,2.3271,2.2494,2.2034,2.2062,2.1198,2.0284,1.9514,1.9273,1.9194,1.9398,1.921,1.9027,1.8847,1.8901,1.8856,1.8577,1.854,1.8502,1.8378,1.8286,1.8251,1.8267,1.8205,1.8194,3.015,3.0209,3.0557,3.0712,3.0692,3.0265,2.9847,2.9355,2.7761,2.7032,2.7012,2.7032,2.7246,2.7557,2.7163,2.7386,2.8127,2.7328,2.6918,2.6825,2.6476,2.6056,2.5728,2.6141,2.6344,2.6347,2.6367,2.6347,2.6308,2.5879,2.5644,2.5644,2.5682,2.5697,2.5688,2.5688,2.5688,2.5688,2.5688,2.5688,2.5688,2.5238,2.4613,2.3813,2.3754,2.3539,2.314,2.3503,2.406,2.4812,2.4836,2.5003,2.5387,2.5624,2.5947,2.6355,2.6641,2.6996,2.7401,2.831,2.9068,2.9556,2.9258,2.9084,2.917,2.86,2.8388,2.8623,2.757,2.715,2.7914,2.6514,2.5868,2.6721,2.6405,2.6163,2.6125,2.6054,2.5824,2.5477,2.572,2.5779,2.5265,2.5184,2.5154,2.5097,2.4759,2.4355,2.4224,2.4293,2.4204,2.3686,2.2973,2.2537,2.2417,2.1335,2.0803,2.1048,2.0059,1.9627,1.9945,1.9721,1.9151,1.8987,1.8987,1.8852,1.8558,1.8524,1.846,1.8306,1.8213,1.8188,1.8195,1.8195,1.8199,3.1379,3.1343,3.1166,3.0969,3.077,3.0342,3.0046,2.9807,2.9142,2.8852,2.8817,2.8481,2.84,2.8555,2.8328,2.8401,2.8714,2.837,2.7944,2.7497,2.7336,2.6914,2.6327,2.6776,2.6948,2.6897,2.6895,2.6797,2.6564,2.6096,2.5785,2.5649,2.5856,2.5879,2.5659,2.5874,2.5873,2.5713,2.5908,2.5906,2.5688,2.5023,2.4613,2.4359,2.3969,2.3893,2.4302,2.4489,2.4847,2.5384,2.5406,2.549,2.5658,2.5777,2.6192,2.6894,2.7154,2.7511,2.8159,2.8855,2.9617,3.0371,3.0436,3.0455,3.0437,2.9675,2.9342,2.9673,2.8574,2.8024,2.8415,2.7419,2.6794,2.7423,2.7469,2.7353,2.7395,2.7358,2.7096,2.6563,2.6922,2.6974,2.6483,2.6279,2.6134,2.5779,2.5106,2.4505,2.4366,2.4424,2.4361,2.3943,2.341,2.2992,2.2914,2.1593,2.1076,2.2078,2.0583,1.9861,2.0112,1.9714,1.9251,1.9095,1.9045,1.8904,1.8655,1.863,1.8544,1.8368,1.8296,1.826,1.8199,1.82,1.8195,3.3083,3.2953,3.2232,3.1518,3.0957,3.1523,3.1345,3.0707,3.0567,3.0578,3.0332,2.8975,2.8773,2.9283,2.863,2.9082,3.0293,2.8901,2.8582,2.9052,2.8441,2.8048,2.7831,2.7267,2.6917,2.6932,2.697,2.6677,2.6014,2.6503,2.6408,2.5785,2.6391,2.6412,2.583,2.6415,2.644,2.5742,2.6484,2.6502,2.5747,2.5629,2.5219,2.4437,2.5082,2.5112,2.4498,2.5075,2.5476,2.5485,2.5455,2.5756,2.6451,2.7104,2.7889,2.8767,2.9537,3.0126,3.0265,3.04,3.0464,3.0563,3.0588,3.0586,3.0584,3.0484,3.0286,2.9998,2.9275,2.8797,2.8827,2.8035,2.7644,2.7968,2.7845,2.7566,2.7613,2.7373,2.7262,2.7207,2.7394,2.7264,2.7246,2.7117,2.673,2.601,2.5239,2.4681,2.4602,2.4532,2.4236,2.358,2.3126,2.2992,2.2721,2.1589,2.0817,2.0946,2.0129,1.9669,1.9724,1.9654,1.9257,1.9358,1.915,1.9103,1.8909,1.8869,1.8829,1.8555,1.8458,1.8425,1.8255,1.8225,1.8241,3.2603,3.2593,3.2749,3.26,3.2237,3.1632,3.1421,3.1522,3.1015,3.0798,3.0717,3.0076,2.9979,3.0292,2.9897,3.0149,3.0715,3.0061,2.9627,2.9491,2.9118,2.8699,2.823,2.8366,2.8122,2.7708,2.8136,2.7921,2.7258,2.7454,2.7447,2.7197,2.751,2.7481,2.7184,2.7497,2.7502,2.7217,2.753,2.7299,2.6523,2.644,2.6059,2.5297,2.5512,2.5541,2.5182,2.5427,2.5789,2.6206,2.623,2.6602,2.7447,2.7772,2.834,2.923,3.0101,3.0609,3.0674,3.0683,3.072,3.07,3.072,3.0709,3.0659,3.0656,3.0563,3.0329,2.9606,2.9275,2.9668,2.9038,2.8727,2.9197,2.9263,2.9158,2.9164,2.906,2.8855,2.8396,2.8707,2.876,2.83,2.7796,2.7122,2.6234,2.5449,2.4995,2.4757,2.4689,2.4531,2.4123,2.3656,2.2741,2.1817,2.0603,2.0211,2.0429,2.0021,1.9586,2.0539,1.99,1.9494,1.9792,1.9629,1.9333,1.896,1.8942,1.8925,1.873,1.8678,1.8642,1.8573,1.8558,1.8553,3.3058,3.3134,3.3514,3.3351,3.2854,3.1646,3.1495,3.195,3.119,3.0774,3.076,3.0741,3.0728,3.0695,3.0711,3.0736,3.0708,3.0715,3.0401,2.9841,2.9802,2.9476,2.8964,2.8922,2.8845,2.8576,2.8806,2.8804,2.8434,2.818,2.8126,2.818,2.8418,2.8396,2.8208,2.8366,2.8411,2.8224,2.842,2.8134,2.7424,2.7539,2.7164,2.6164,2.5812,2.5784,2.597,2.5969,2.6226,2.6786,2.7054,2.7572,2.8395,2.8469,2.8874,2.9704,3.0358,3.0727,3.0728,3.077,3.0801,3.0801,3.0801,3.0792,3.0734,3.0727,3.0712,3.0614,3.0025,2.9935,3.03,2.9919,2.9839,3.0364,3.0372,3.0326,3.0288,3.0263,2.9911,2.9436,2.969,2.9975,2.9299,2.8564,2.7722,2.6823,2.6035,2.5335,2.4959,2.4861,2.4781,2.447,2.3861,2.2896,2.1267,2.047,2.0244,2.0352,2.0268,2.0487,2.174,2.0804,2.0041,2.0455,2.0129,1.9731,1.9287,1.9158,1.9169,1.8956,1.8842,1.8793,1.874,1.8789,1.8789,3.5493,3.5355,3.4697,3.3456,3.2066,3.1948,3.1976,3.2017,3.1146,3.0729,3.0618,3.0592,3.0543,3.0443,3.054,3.0566,3.0512,3.0459,3.0459,3.0451,3.0489,3.0552,3.0482,2.8963,2.8591,2.9147,2.8743,2.8764,2.9271,2.855,2.8104,2.8188,2.897,2.8949,2.8471,2.902,2.8979,2.8514,2.9071,2.9009,2.8349,2.8924,2.8527,2.7109,2.6172,2.619,2.6824,2.6918,2.6947,2.6913,2.7734,2.8492,2.9265,2.9406,2.9819,3.0578,3.0739,3.0798,3.0798,3.0799,3.0801,3.0801,3.0801,3.08,3.0777,3.0776,3.0774,3.0776,3.0642,3.058,3.0568,3.0459,3.0428,3.0521,3.0465,3.041,3.0394,3.0298,3.0225,3.01,3.0138,3.015,3.0051,2.9395,2.8475,2.7621,2.6835,2.6027,2.5313,2.5003,2.4663,2.414,2.373,2.3193,2.2271,2.1372,2.0972,2.1067,2.117,2.1247,2.1746,2.2018,2.1522,2.1168,2.1112,2.0687,1.9857,1.9508,1.9554,1.9362,1.8991,1.8877,1.8919,1.8838,1.8851,3.3939,3.3881,3.3051,3.2658,3.2593,3.2044,3.181,3.1746,3.0913,3.0519,3.0473,3.0464,3.0421,3.0341,3.0397,3.0426,3.0419,3.0404,3.042,3.0487,3.047,3.0484,3.0433,2.9911,2.9505,2.9354,2.9622,2.9913,3.0168,2.9894,2.9758,2.9797,3.0049,3.0051,2.9874,3.0069,3.0082,2.9865,3.0145,2.9844,2.906,2.9278,2.9148,2.8603,2.7757,2.7433,2.775,2.775,2.8006,2.8535,2.8867,2.9414,3.0174,3.0312,3.0467,3.0747,3.0793,3.0795,3.0784,3.0801,3.0801,3.0801,3.0801,3.0801,3.0801,3.0801,3.0801,3.0798,3.0794,3.0758,3.0738,3.0649,3.0614,3.0607,3.0566,3.0518,3.0513,3.0436,3.0356,3.0276,3.0234,3.0208,3.0062,2.9436,2.8612,2.7797,2.6959,2.6141,2.5434,2.5128,2.4942,2.4739,2.46,2.4281,2.3426,2.2403,2.1791,2.1859,2.1976,2.2381,2.2824,2.258,2.2113,2.1745,2.1793,2.1025,1.9971,1.9432,1.9557,1.9442,1.9063,1.9078,1.9127,1.9102,1.9111,3.3046,3.2493,3.1932,3.2045,3.2439,3.1653,3.1441,3.1582,3.0771,3.0543,3.075,3.0783,3.0731,3.067,3.0698,3.0538,3.0358,3.0345,3.0365,3.0365,3.0392,3.0386,3.0382,3.0254,3.0032,2.9851,3.0374,3.0692,3.0692,3.0692,3.0692,3.0673,3.0692,3.0692,3.071,3.0676,3.0672,3.0685,3.0674,3.0362,2.9871,2.9837,2.9838,2.9804,2.9324,2.8862,2.8646,2.8628,2.8864,2.9433,2.9745,3.0175,3.0723,3.0801,3.0794,3.08,3.0801,3.08,3.0799,3.0798,3.0797,3.0792,3.0791,3.079,3.0803,3.0801,3.0801,3.0801,3.0801,3.0801,3.0775,3.0719,3.0659,3.0673,3.0646,3.0616,3.0635,3.0552,3.0436,3.0328,3.0257,3.0244,3.018,2.9714,2.8916,2.7923,2.7181,2.6466,2.5475,2.5207,2.5207,2.5207,2.5141,2.4881,2.4406,2.3717,2.2909,2.286,2.2891,2.3326,2.3613,2.3242,2.2826,2.2451,2.1797,2.0928,2.0201,1.9599,1.9385,1.937,1.9299,1.927,1.9346,1.9421,1.944,3.3066,3.1687,3.1653,3.1653,3.1562,3.1009,3.1028,3.1483,3.083,3.0927,3.153,3.1543,3.1378,3.1387,3.1445,3.1055,3.0351,3.0375,3.039,3.0316,3.0351,3.0364,3.0348,2.9818,2.99,3.0434,3.062,3.0685,3.0704,3.0678,3.0676,3.0687,3.0678,3.0649,3.0685,3.0687,3.0668,3.0684,3.0713,3.0676,3.0685,3.0595,3.0595,3.0618,3.0549,3.0189,2.9541,2.9504,2.9523,2.9642,3.0307,3.0759,3.0776,3.0794,3.0799,3.0785,3.0783,3.0781,3.0784,3.0786,3.0796,3.08,3.0801,3.08,3.0793,3.0787,3.0785,3.0786,3.0802,3.0801,3.0801,3.0776,3.0773,3.0796,3.0719,3.069,3.0673,3.0581,3.0441,3.0351,3.0325,3.0308,3.0305,3.0191,2.9496,2.8203,2.7708,2.7106,2.5762,2.5418,2.5284,2.5265,2.5246,2.5074,2.5112,2.5087,2.4404,2.3877,2.3891,2.4099,2.4479,2.4344,2.378,2.3341,2.257,2.1715,2.088,2.0321,2.0013,1.9921,1.9738,1.9715,1.9785,1.9913,1.9803,3.2065,3.0613,3.1266,3.1129,3.0672,3.1519,3.187,3.157,3.1241,3.162,3.2147,3.1722,3.1433,3.1583,3.1992,3.1557,3.0336,3.0829,3.0861,3.0352,3.026,3.0257,3.0235,3.008,3.0155,3.0419,3.0487,3.0548,3.0597,3.0548,3.0522,3.0595,3.0543,3.0479,3.0542,3.103,3.1171,3.0733,3.1166,3.1205,3.0763,3.0692,3.0674,3.0641,3.067,3.0545,3.0271,3.0305,3.0322,3.0307,3.0598,3.0732,3.0734,3.0715,3.0751,3.0794,3.0759,3.074,3.0798,3.08,3.0801,3.079,3.0791,3.0793,3.0798,3.0801,3.0799,3.0798,3.0791,3.0801,3.0801,3.0801,3.0801,3.0801,3.0771,3.076,3.0767,3.0674,3.0613,3.056,3.0481,3.0438,3.042,3.0381,2.9682,2.8296,2.8211,2.7851,2.6472,2.5948,2.6023,2.6026,2.5685,2.5284,2.5379,2.5341,2.4874,2.4502,2.4543,2.4552,2.4947,2.5074,2.4559,2.4002,2.3246,2.2424,2.1594,2.1096,2.0766,2.0821,2.0931,2.0798,2.0552,2.0442,2.0391,3.1901,3.0936,3.1623,3.1558,3.1041,3.2174,3.2549,3.2401,3.2328,3.2965,3.3776,3.3215,3.2818,3.2856,3.3085,3.2397,3.1239,3.1463,3.1245,3.0661,3.0313,3.023,3.0213,3.028,3.0358,3.0392,3.0407,3.0433,3.0513,3.0452,3.045,3.0501,3.0431,3.0407,3.0436,3.089,3.0945,3.0713,3.103,3.109,3.0762,3.0661,3.0612,3.0558,3.0563,3.0576,3.06,3.0641,3.067,3.0688,3.0692,3.0696,3.0706,3.0701,3.0713,3.074,3.0718,3.071,3.0759,3.0777,3.0771,3.076,3.0764,3.0771,3.08,3.0795,3.0798,3.0799,3.08,3.0793,3.0793,3.0785,3.0801,3.0801,3.08,3.0797,3.0785,3.0739,3.0688,3.0634,3.0564,3.0534,3.0503,3.0435,2.9902,2.8801,2.8736,2.8393,2.7044,2.6474,2.6378,2.6116,2.5535,2.5401,2.5625,2.5491,2.524,2.5103,2.5062,2.5011,2.5166,2.514,2.4828,2.438,2.3721,2.2734,2.189,2.169,2.1464,2.1757,2.1978,2.173,2.1432,2.1176,2.1143,3.2389,3.2355,3.2555,3.2561,3.248,3.2553,3.301,3.3759,3.3754,3.4631,3.5853,3.5205,3.4957,3.4904,3.4292,3.3471,3.2703,3.229,3.1976,3.1624,3.1122,3.0688,3.0289,3.0394,3.0476,3.0376,3.037,3.0367,3.0416,3.0546,3.0471,3.0565,3.0703,3.0519,3.064,3.0488,3.067,3.0593,3.0582,3.0667,3.0606,3.0593,3.052,3.0407,3.0447,3.0482,3.0558,3.0591,3.0645,3.0704,3.0692,3.0695,3.0695,3.0731,3.0853,3.0771,3.0736,3.0778,3.0757,3.0716,3.0692,3.0714,3.0721,3.0717,3.0764,3.0774,3.0778,3.078,3.0797,3.0801,3.0801,3.0796,3.0787,3.0801,3.08,3.0794,3.0799,3.0752,3.0701,3.0659,3.0623,3.0621,3.0618,3.0605,3.0152,2.9539,2.9188,2.8365,2.7352,2.6693,2.6191,2.5822,2.5529,2.5378,2.555,2.5437,2.5205,2.5205,2.5202,2.5205,2.5207,2.5187,2.5098,2.4634,2.4253,2.3225,2.2623,2.2557,2.2417,2.2496,2.2547,2.2446,2.2263,2.1987,2.1749,3.2372,3.1389,3.193,3.2218,3.2378,3.2954,3.3448,3.3804,3.4533,3.5486,3.6194,3.5587,3.5282,3.5167,3.5014,3.4117,3.3253,3.3731,3.3834,3.3379,3.3157,3.1845,3.0689,3.0821,3.0817,3.0394,3.0391,3.0273,3.0392,3.0941,3.121,3.1312,3.1737,3.1703,3.131,3.166,3.1404,3.0649,3.1012,3.0961,3.0539,3.0479,3.0416,3.0347,3.0467,3.0504,3.0499,3.0604,3.0674,3.071,3.0692,3.0692,3.0809,3.1271,3.1351,3.0945,3.1254,3.1312,3.0828,3.0692,3.0704,3.0696,3.0706,3.0706,3.0724,3.0725,3.0719,3.0729,3.0755,3.079,3.0793,3.08,3.0797,3.0784,3.0799,3.0794,3.0786,3.0792,3.0753,3.074,3.0735,3.0728,3.0713,3.0628,3.0333,2.9662,2.9247,2.8842,2.7742,2.6893,2.6399,2.613,2.5827,2.5527,2.5357,2.5276,2.5207,2.5207,2.5207,2.5205,2.5229,2.524,2.5114,2.4859,2.49,2.4166,2.3956,2.3854,2.3651,2.3303,2.3391,2.3419,2.2992,2.2666,2.234,3.3006,3.2581,3.277,3.3067,3.3431,3.3932,3.4381,3.4928,3.5744,3.6654,3.7198,3.6642,3.6241,3.6241,3.6241,3.5339,3.4055,3.4766,3.4812,3.4409,3.4167,3.3061,3.1684,3.1421,3.1253,3.1251,3.0873,3.0988,3.1334,3.1726,3.1913,3.2078,3.2409,3.2168,3.1491,3.1847,3.1611,3.0599,3.0823,3.0946,3.0901,3.056,3.0642,3.0676,3.0699,3.0496,3.0508,3.0624,3.0692,3.077,3.1022,3.1254,3.1291,3.1677,3.1757,3.1273,3.1427,3.1178,3.0828,3.0692,3.0692,3.0694,3.0692,3.0692,3.0701,3.071,3.0709,3.0713,3.0758,3.0757,3.0769,3.0775,3.08,3.0795,3.0784,3.0793,3.0788,3.0793,3.0802,3.0794,3.0792,3.079,3.08,3.0732,3.0468,3.0052,2.9608,2.896,2.8094,2.7305,2.6521,2.6103,2.5926,2.5669,2.5551,2.5514,2.5504,2.5491,2.5239,2.5228,2.5315,2.5348,2.5382,2.533,2.5385,2.5337,2.5039,2.4727,2.4371,2.4173,2.4334,2.4197,2.3768,2.3395,2.3055,3.3922,3.4685,3.4245,3.45,3.4977,3.4987,3.5329,3.6379,3.702,3.789,3.853,3.8132,3.7731,3.7827,3.7445,3.678,3.532,3.5587,3.5356,3.5097,3.4792,3.4037,3.3008,3.2041,3.1984,3.2237,3.1817,3.2092,3.2501,3.2651,3.2868,3.3191,3.3092,3.2526,3.2275,3.1962,3.1216,3.0663,3.0615,3.096,3.13,3.1114,3.1258,3.1571,3.1298,3.1079,3.1093,3.1094,3.1119,3.1024,3.164,3.1871,3.1949,3.2007,3.1912,3.1737,3.1273,3.0983,3.0711,3.0692,3.0692,3.0692,3.0692,3.0692,3.0694,3.0702,3.0704,3.0706,3.0709,3.0697,3.0701,3.0767,3.0799,3.0801,3.0793,3.0792,3.0784,3.0784,3.0785,3.0802,3.0783,3.0802,3.0781,3.0722,3.0603,2.9905,2.9367,2.834,2.764,2.6933,2.6217,2.5692,2.5652,2.5745,2.5752,2.5798,2.5845,2.5823,2.5425,2.5301,2.5452,2.5549,2.5706,2.5821,2.6092,2.601,2.5688,2.5367,2.5103,2.5042,2.5214,2.4919,2.4521,2.4178,2.3851,3.3852,3.3676,3.4182,3.4618,3.4912,3.4922,3.5391,3.626,3.7213,3.8126,3.8797,3.8777,3.8686,3.8648,3.8056,3.7139,3.6405,3.6725,3.6818,3.614,3.5856,3.5367,3.4539,3.3568,3.2917,3.2725,3.2507,3.2905,3.3509,3.3801,3.4358,3.5386,3.4742,3.4515,3.4185,3.2936,3.2042,3.1367,3.1141,3.1164,3.1571,3.1994,3.2243,3.2545,3.2463,3.2565,3.2699,3.2724,3.273,3.2631,3.2301,3.2126,3.2279,3.2689,3.2398,3.1584,3.1543,3.137,3.0867,3.0692,3.0692,3.0692,3.0692,3.0692,3.0692,3.0692,3.0692,3.0694,3.0707,3.07,3.0703,3.0768,3.079,3.0798,3.0798,3.0802,3.0789,3.0794,3.0788,3.0799,3.0795,3.0793,3.0744,3.0139,2.9905,2.9632,2.8753,2.7602,2.7011,2.6536,2.6039,2.5504,2.5559,2.5669,2.5665,2.5709,2.5751,2.5805,2.5511,2.5339,2.5493,2.5854,2.6061,2.6466,2.6925,2.6692,2.6222,2.6431,2.6257,2.6181,2.5888,2.5424,2.499,2.4775,2.4532,3.428,3.4207,3.4245,3.4571,3.498,3.5046,3.5521,3.6358,3.7282,3.819,3.8858,3.9011,3.9011,3.903,3.8892,3.83,3.7433,3.7756,3.7685,3.71,3.6979,3.6667,3.6039,3.5505,3.487,3.3868,3.3416,3.3983,3.4758,3.4819,3.5265,3.6831,3.6087,3.5369,3.5121,3.3929,3.2669,3.1522,3.1045,3.1156,3.1976,3.2148,3.2695,3.3001,3.3146,3.3244,3.325,3.3252,3.3272,3.3177,3.2883,3.2806,3.3041,3.3215,3.2749,3.2205,3.137,3.1291,3.0789,3.0692,3.0692,3.0692,3.0692,3.0692,3.0692,3.0692,3.0692,3.0692,3.0699,3.0701,3.0699,3.0761,3.0793,3.0797,3.08,3.0797,3.0798,3.0784,3.0794,3.0784,3.0801,3.0793,3.0534,2.9966,2.9632,2.9554,2.8269,2.7156,2.6884,2.643,2.5979,2.5608,2.5604,2.5593,2.5569,2.5567,2.5541,2.5564,2.549,2.5406,2.5481,2.5972,2.6495,2.6801,2.7044,2.7042,2.6733,2.7027,2.6835,2.6034,2.5536,2.5498,2.5314,2.49,2.4679,3.4793,3.5134,3.4586,3.477,3.5358,3.5564,3.6167,3.6954,3.7426,3.8285,3.9026,3.9083,3.9107,3.9336,3.9885,3.9274,3.8355,3.8033,3.787,3.7495,3.7744,3.7435,3.6958,3.6878,3.6477,3.5407,3.4808,3.5305,3.5817,3.5801,3.6218,3.7405,3.6672,3.6276,3.5704,3.4487,3.3589,3.2703,3.1847,3.1885,3.2898,3.284,3.3117,3.3671,3.3893,3.3905,3.3932,3.3893,3.3777,3.3682,3.3565,3.3856,3.4051,3.3604,3.2982,3.2769,3.143,3.0867,3.075,3.0692,3.0692,3.0692,3.0707,3.0711,3.0693,3.0713,3.0725,3.0719,3.0725,3.072,3.0716,3.0768,3.08,3.0801,3.0801,3.08,3.08,3.0785,3.0801,3.0802,3.0795,3.0803,3.0519,3.0084,2.977,2.9261,2.7957,2.7002,2.6789,2.6692,2.6473,2.6433,2.6581,2.6266,2.6171,2.5597,2.5556,2.5519,2.5488,2.5495,2.5515,2.579,2.6241,2.669,2.691,2.6967,2.7071,2.7147,2.6667,2.5658,2.5472,2.5728,2.5463,2.4995,2.4866,3.4879,3.5007,3.5776,3.616,3.6351,3.6963,3.7578,3.8381,3.7812,3.861,3.9809,3.935,3.9389,3.9924,4.0172,3.9694,3.884,3.848,3.8041,3.7841,3.8037,3.7804,3.7793,3.7823,3.7224,3.6511,3.6046,3.6256,3.6385,3.6402,3.6838,3.8,3.7248,3.6879,3.6969,3.5787,3.4698,3.4709,3.3719,3.357,3.4248,3.4526,3.4591,3.504,3.5055,3.5132,3.5231,3.5329,3.5389,3.5311,3.4692,3.4402,3.4033,3.3,3.2087,3.1508,3.1061,3.0692,3.0692,3.0692,3.0692,3.0704,3.0712,3.0742,3.0754,3.0819,3.0981,3.0974,3.0917,3.0827,3.0794,3.0876,3.0838,3.082,3.08,3.0792,3.0794,3.0786,3.0795,3.0786,3.0794,3.077,3.0503,3.0142,2.9711,2.9301,2.8424,2.7683,2.741,2.7548,2.7683,2.7722,2.7858,2.737,2.6898,2.6098,2.5662,2.5637,2.5603,2.5603,2.5625,2.5582,2.5878,2.6301,2.6871,2.7275,2.7327,2.7211,2.6896,2.6186,2.6113,2.6076,2.5818,2.5531,2.5214,3.4889,3.5049,3.5576,3.5787,3.5853,3.622,3.6905,3.7593,3.7287,3.8032,3.9102,3.924,3.9484,4.0129,4.032,4.0034,3.9594,3.9312,3.9049,3.9049,3.9026,3.8942,3.8847,3.8918,3.8084,3.7342,3.7031,3.6867,3.6462,3.5965,3.6825,3.7769,3.7426,3.7593,3.7789,3.6413,3.5797,3.6084,3.5022,3.4462,3.5235,3.5459,3.5626,3.5723,3.5773,3.5791,3.5793,3.5793,3.5544,3.51,3.4694,3.4072,3.3293,3.2592,3.1834,3.1409,3.0964,3.0692,3.0692,3.0692,3.0692,3.0695,3.071,3.0973,3.1231,3.1449,3.1613,3.1858,3.1615,3.1675,3.2125,3.1328,3.1091,3.1287,3.1088,3.0814,3.0795,3.0789,3.0791,3.0794,3.0793,3.0747,3.0655,3.0239,2.9691,2.9184,2.8718,2.8405,2.813,2.8306,2.858,2.8523,2.8464,2.782,2.7294,2.6672,2.5833,2.5716,2.5816,2.5816,2.5694,2.5645,2.5643,2.5848,2.6494,2.7104,2.7034,2.6742,2.6709,2.6676,2.6339,2.6104,2.6208,2.6084,2.5688,3.5036,3.5157,3.5676,3.5771,3.5708,3.6093,3.66,3.692,3.6882,3.765,3.8858,3.8873,3.9251,4.0001,4.022,4.0182,4.0234,4.0191,4.0172,4.0134,4.011,4.01,4.0089,3.9975,3.9343,3.7961,3.7841,3.7349,3.6256,3.5855,3.6351,3.7058,3.7445,3.7578,3.7426,3.6753,3.6634,3.6275,3.5381,3.4971,3.5318,3.5589,3.5713,3.5793,3.5786,3.5793,3.5793,3.5793,3.5505,3.5041,3.4577,3.3954,3.2765,3.2338,3.226,3.2106,3.1292,3.0809,3.0692,3.0692,3.0692,3.0694,3.0902,3.1274,3.1682,3.2063,3.272,3.3081,3.2578,3.2226,3.2459,3.167,3.1253,3.135,3.1124,3.0795,3.0791,3.0785,3.08,3.0795,3.0797,3.0747,3.068,3.0606,3.014,3.0041,2.9593,2.9436,2.9182,2.9125,2.9243,2.9107,2.8815,2.8132,2.7606,2.7237,2.6378,2.5732,2.5969,2.6127,2.5892,2.5691,2.5714,2.5773,2.5858,2.6352,2.6297,2.6362,2.6296,2.6227,2.6129,2.6144,2.6256,2.6122,2.5776,3.5651,3.5361,3.7561,3.8096,3.7542,3.8749,3.9121,3.8419,3.7699,3.8094,3.8812,3.8316,3.8713,3.9698,3.9975,3.9951,4.0022,4.0191,4.0301,4.032,4.0301,4.0268,4.0244,4.0263,3.9719,3.8632,3.8621,3.744,3.6218,3.608,3.6271,3.6634,3.6767,3.6944,3.7406,3.6848,3.6886,3.723,3.6608,3.5909,3.5565,3.5661,3.5691,3.5725,3.5762,3.5793,3.5793,3.5793,3.5659,3.5564,3.4886,3.4461,3.4111,3.3507,3.3213,3.267,3.1778,3.0711,3.0809,3.0731,3.0809,3.097,3.1404,3.1433,3.1974,3.3046,3.3846,3.3289,3.2702,3.2547,3.2684,3.1566,3.1072,3.1129,3.1327,3.099,3.0865,3.1133,3.1089,3.0794,3.0785,3.0797,3.0748,3.0718,3.0664,3.0623,3.0527,3.0313,3.0138,2.9982,2.9944,2.9828,2.938,2.8697,2.821,2.7783,2.7157,2.6198,2.6356,2.6613,2.6437,2.6242,2.5853,2.5896,2.5898,2.6049,2.6415,2.6395,2.603,2.5926,2.5976,2.6122,2.6291,2.6081,2.5889,3.5211,3.5287,3.6807,3.6983,3.6501,3.811,3.8075,3.7132,3.7319,3.7685,3.8022,3.8067,3.8623,3.9535,3.9807,3.9889,3.997,4.0133,4.0282,4.0267,4.0248,4.0282,4.0296,4.0244,3.9847,3.9164,3.8419,3.7498,3.6443,3.6194,3.6309,3.5889,3.6233,3.6634,3.7024,3.6695,3.702,3.7254,3.6999,3.6521,3.6193,3.5925,3.5768,3.577,3.5797,3.5788,3.5793,3.5793,3.5793,3.5736,3.535,3.4983,3.4596,3.413,3.3818,3.3213,3.2672,3.1992,3.1506,3.102,3.1081,3.1393,3.191,3.2246,3.2935,3.4121,3.5098,3.486,3.4069,3.377,3.3769,3.3026,3.2517,3.2242,3.1991,3.1439,3.1297,3.1452,3.1497,3.1126,3.0795,3.0794,3.0789,3.078,3.0741,3.0724,3.0689,3.0589,3.053,3.0508,3.0528,3.0587,3.0002,2.934,2.8911,2.8503,2.8114,2.7429,2.739,2.7509,2.7255,2.6963,2.6458,2.6068,2.6002,2.6246,2.6613,2.6273,2.5732,2.5782,2.5914,2.6116,2.6297,2.6329,2.6084,3.4963,3.5344,3.6263,3.629,3.5889,3.7307,3.7327,3.6342,3.7134,3.7551,3.7694,3.8174,3.8808,3.9214,3.9367,3.9278,3.9442,3.9764,3.9743,3.9757,3.9866,3.9919,3.9866,3.9847,3.9733,3.9312,3.9011,3.796,3.7154,3.6734,3.6351,3.5282,3.5774,3.6099,3.6214,3.6424,3.6829,3.7156,3.6674,3.6373,3.6228,3.5949,3.5802,3.5765,3.5771,3.5797,3.5791,3.5793,3.5793,3.5775,3.5756,3.5408,3.5002,3.4866,3.4633,3.4167,3.3722,3.3274,3.2652,3.2147,3.1856,3.2114,3.2629,3.3315,3.46,3.5586,3.5879,3.5684,3.4971,3.5004,3.5162,3.411,3.3404,3.3113,3.3154,3.2409,3.1823,3.1965,3.1907,3.1536,3.1166,3.0796,3.0791,3.0792,3.0797,3.0783,3.0794,3.0789,3.0785,3.0801,3.08,3.08,3.0527,2.9982,2.9769,2.934,2.8931,2.8639,2.86,2.8659,2.8542,2.7666,2.6789,2.6477,2.6321,2.6078,2.6207,2.5813,2.5484,2.5878,2.6182,2.6199,2.6307,2.6335,2.6147,3.5457,3.5751,3.7015,3.7452,3.7453,3.8221,3.8462,3.79,3.8079,3.8131,3.8177,3.8704,3.898,3.8977,3.856,3.8328,3.8386,3.8658,3.8532,3.846,3.8644,3.9159,3.9298,3.9412,3.9603,4.0,3.9451,3.8591,3.7846,3.7039,3.6375,3.5477,3.545,3.5339,3.5549,3.6023,3.6309,3.6474,3.6044,3.571,3.5708,3.5653,3.5715,3.5723,3.5706,3.5725,3.5788,3.5793,3.5793,3.5793,3.5793,3.5793,3.5523,3.5484,3.5331,3.5156,3.4711,3.4342,3.3973,3.3293,3.312,3.3317,3.3767,3.4395,3.5438,3.5721,3.5898,3.5859,3.5293,3.4977,3.4706,3.4082,3.3866,3.371,3.3769,3.3418,3.2812,3.2478,3.2361,3.1953,3.166,3.1444,3.1113,3.1189,3.0895,3.0862,3.0802,3.0795,3.0785,3.08,3.08,3.08,3.08,3.0625,3.0644,3.0295,2.9905,2.9691,2.9593,2.9888,3.0143,2.8973,2.751,2.714,2.6984,2.6381,2.5949,2.6194,2.6345,2.6382,2.6372,2.612,2.6042,2.608,2.5833,3.4041,3.4325,3.5304,3.6287,3.733,3.878,3.8701,3.7818,3.8396,3.8647,3.8507,3.8762,3.8859,3.8681,3.8241,3.794,3.8003,3.7907,3.7715,3.7952,3.8422,3.8921,3.9126,3.9489,4.0019,4.0,3.935,3.8553,3.7736,3.6875,3.6023,3.5301,3.5189,3.5205,3.5396,3.5545,3.5698,3.5724,3.5572,3.5422,3.5423,3.5509,3.5618,3.5707,3.5707,3.5747,3.5804,3.5793,3.5793,3.5793,3.5793,3.5793,3.5793,3.5793,3.5793,3.5793,3.5369,3.5253,3.4983,3.4191,3.3547,3.4205,3.4757,3.5383,3.5868,3.5887,3.5885,3.5781,3.5638,3.5349,3.5326,3.5127,3.4933,3.4526,3.427,3.4145,3.3828,3.341,3.3094,3.2811,3.2598,3.24,3.2017,3.1672,3.1268,3.0938,3.0861,3.0801,3.0789,3.08,3.08,3.08,3.08,3.08,3.08,3.08,3.08,3.0626,3.0451,3.0588,3.0668,2.9907,2.8678,2.821,2.7743,2.7334,2.7115,2.7183,2.7044,2.668,2.6184,2.5685,2.5703,2.5836,2.5605,3.3672,3.3905,3.4781,3.5692,3.6781,3.85,3.8517,3.7586,3.8461,3.8896,3.8699,3.8699,3.8699,3.8537,3.805,3.761,3.7484,3.7333,3.7,3.7219,3.7751,3.8482,3.8916,3.9312,3.9675,3.957,3.8809,3.7932,3.7056,3.5949,3.5426,3.5201,3.5115,3.5119,3.5186,3.5186,3.5186,3.5215,3.5316,3.5376,3.5361,3.543,3.5486,3.5592,3.5592,3.5662,3.5728,3.5758,3.5776,3.5786,3.5793,3.5793,3.5793,3.5793,3.5793,3.5793,3.5793,3.5793,3.5445,3.4987,3.4328,3.4952,3.5325,3.5716,3.5869,3.5889,3.5886,3.5886,3.5858,3.5891,3.5904,3.5665,3.554,3.5136,3.5236,3.5119,3.4685,3.4271,3.401,3.3736,3.3427,3.2966,3.2641,3.2167,3.1542,3.1122,3.0837,3.0798,3.0786,3.08,3.08,3.08,3.08,3.08,3.08,3.08,3.08,3.0761,3.0644,3.0683,3.0567,2.9962,2.9534,2.8988,2.856,2.8306,2.8051,2.7812,2.7292,2.6729,2.6335,2.6051,2.548,2.5588,2.551,3.4848,3.5115,3.6033,3.6192,3.5954,3.7292,3.7826,3.7681,3.8335,3.8664,3.8681,3.8699,3.8699,3.8513,3.7908,3.7333,3.691,3.686,3.6384,3.5937,3.7189,3.7703,3.8213,3.8744,3.9461,3.9056,3.8437,3.7522,3.6258,3.5758,3.5346,3.5078,3.501,3.5063,3.5174,3.5186,3.5186,3.5202,3.5346,3.5301,3.5281,3.5346,3.54,3.5446,3.5456,3.5527,3.568,3.5713,3.5742,3.5786,3.5793,3.5793,3.5793,3.5793,3.5793,3.5793,3.5793,3.5793,3.5754,3.5678,3.5611,3.556,3.5725,3.5811,3.5867,3.5883,3.5876,3.5869,3.5895,3.5923,3.5929,3.5893,3.5798,3.5912,3.5991,3.5735,3.5271,3.5024,3.4721,3.4607,3.3941,3.3305,3.3055,3.2642,3.189,3.1364,3.0939,3.0798,3.0835,3.0792,3.0796,3.0791,3.0791,3.08,3.08,3.08,3.08,3.08,3.08,3.08,3.0644,3.0216,2.9845,2.9573,2.9378,2.9125,2.8697,2.8306,2.8061,2.7835,2.715,2.6684,2.595,2.5524,2.5652,3.3727,3.4254,3.4626,3.4669,3.4815,3.692,3.7514,3.7044,3.7566,3.8212,3.8626,3.8699,3.8699,3.845,3.7926,3.7254,3.671,3.6102,3.5523,3.5301,3.6812,3.7484,3.8056,3.8817,3.9343,3.877,3.8166,3.7235,3.5934,3.5434,3.5174,3.4955,3.509,3.5143,3.517,3.5186,3.5186,3.5209,3.5246,3.5246,3.5213,3.5254,3.5308,3.5394,3.5398,3.5489,3.5662,3.5675,3.572,3.5821,3.5831,3.5911,3.5892,3.5892,3.5872,3.5834,3.5812,3.5793,3.5793,3.5756,3.5773,3.5793,3.5797,3.583,3.5857,3.5838,3.5838,3.5923,3.6088,3.6262,3.6565,3.6092,3.5994,3.642,3.6439,3.5951,3.5572,3.5529,3.5387,3.5403,3.5017,3.4459,3.4091,3.346,3.2694,3.2146,3.1772,3.1133,3.0973,3.0864,3.082,3.0792,3.0785,3.079,3.08,3.08,3.08,3.08,3.08,3.08,3.0586,3.0391,3.0371,3.0196,3.006,2.9905,2.9632,2.9399,2.9399,2.9115,2.8397,2.763,2.6935,2.6536,2.6404,3.2926,3.389,3.3847,3.3807,3.4226,3.6639,3.7335,3.6857,3.729,3.7944,3.8579,3.8699,3.8699,3.8554,3.8262,3.7654,3.704,3.652,3.587,3.5581,3.6574,3.7079,3.7756,3.8732,3.8527,3.8026,3.737,3.6526,3.5202,3.4729,3.4631,3.4844,3.5334,3.5435,3.5354,3.5186,3.5186,3.5205,3.5198,3.5194,3.5186,3.5202,3.5246,3.5297,3.535,3.5413,3.555,3.5643,3.5679,3.5821,3.6028,3.6185,3.6205,3.6224,3.6241,3.6241,3.5931,3.5872,3.5793,3.5793,3.5793,3.5793,3.5793,3.5969,3.6144,3.6349,3.6604,3.6699,3.6574,3.6964,3.7299,3.671,3.6673,3.7122,3.6714,3.6228,3.5777,3.5717,3.5698,3.577,3.5743,3.5331,3.492,3.4327,3.3584,3.3105,3.2633,3.1992,3.1401,3.1331,3.1199,3.1071,3.0981,3.0965,3.0897,3.08,3.08,3.08,3.08,3.08,3.0761,3.0625,3.0722,3.0781,3.0527,3.041,3.0605,3.0566,3.0236,2.9983,2.9646,2.8846,2.8014,2.7487,2.7104,3.2668,3.4024,3.3927,3.3823,3.4196,3.6219,3.7243,3.7345,3.7345,3.7797,3.8608,3.856,3.8589,3.8732,3.8909,3.8532,3.7914,3.7444,3.6771,3.6354,3.6725,3.6731,3.7078,3.7899,3.7722,3.6927,3.6321,3.5964,3.4431,3.4352,3.4394,3.4745,3.5573,3.5577,3.5339,3.5186,3.5186,3.5186,3.5186,3.5186,3.5186,3.5186,3.5218,3.5223,3.5239,3.533,3.5457,3.5535,3.5626,3.5931,3.6453,3.6785,3.6962,3.704,3.704,3.6865,3.6263,3.6263,3.6222,3.628,3.6067,3.6164,3.6125,3.6438,3.6692,3.6925,3.7394,3.7627,3.7666,3.8054,3.8287,3.7957,3.7625,3.7433,3.7005,3.6498,3.5931,3.5773,3.5773,3.5797,3.5799,3.5521,3.5128,3.4621,3.443,3.4246,3.3827,3.3395,3.2832,3.2404,3.2155,3.155,3.1421,3.1196,3.1152,3.1291,3.1171,3.1288,3.0878,3.08,3.08,3.08,3.08,3.08,3.08,3.08,3.08,3.08,3.0722,3.0508,3.0256,2.9827,2.8911,2.8074,2.7487,3.262,3.3582,3.4087,3.3978,3.3645,3.4692,3.5688,3.6508,3.6057,3.6461,3.7852,3.7834,3.8121,3.8701,3.896,3.8614,3.834,3.802,3.7351,3.7023,3.689,3.684,3.7009,3.7332,3.7005,3.6524,3.602,3.5666,3.4751,3.4428,3.4653,3.5111,3.5554,3.5441,3.532,3.5205,3.5224,3.5178,3.5174,3.5174,3.5174,3.517,3.5174,3.5182,3.5186,3.5281,3.5402,3.548,3.5579,3.5819,3.6043,3.62,3.6164,3.6203,3.6302,3.712,3.7314,3.7664,3.7646,3.7627,3.7353,3.7003,3.7236,3.6789,3.7005,3.7413,3.8134,3.8367,3.8482,3.8715,3.8831,3.8615,3.8382,3.8071,3.751,3.6735,3.6286,3.6275,3.6236,3.5999,3.5999,3.5731,3.5334,3.5329,3.5181,3.5189,3.5007,3.4553,3.41,3.3609,3.2986,3.2365,3.2195,3.2075,3.2138,3.2272,3.1974,3.1717,3.1327,3.0996,3.0938,3.0918,3.084,3.08,3.08,3.08,3.08,3.08,3.08,3.08,3.0586,3.0275,2.9827,2.8931,2.8132,3.1916,3.2895,3.2989,3.3079,3.3385,3.4024,3.4847,3.5437,3.5156,3.585,3.7056,3.7144,3.7463,3.7907,3.8171,3.8137,3.7862,3.7966,3.7661,3.7373,3.7234,3.6848,3.682,3.6793,3.6354,3.5979,3.5704,3.5456,3.4805,3.4763,3.4959,3.506,3.5376,3.543,3.5415,3.553,3.5526,3.531,3.5136,3.5155,3.5145,3.5136,3.5124,3.5182,3.5186,3.5277,3.5372,3.5431,3.554,3.5781,3.5938,3.6276,3.6328,3.6379,3.6438,3.7159,3.7374,3.786,3.8074,3.8251,3.8035,3.7996,3.8384,3.8074,3.7802,3.7998,3.862,3.9045,3.9062,3.912,3.914,3.9159,3.9004,3.8848,3.794,3.6992,3.6886,3.6896,3.6662,3.6367,3.6149,3.5912,3.5805,3.5855,3.5831,3.5665,3.555,3.5378,3.493,3.4471,3.3787,3.3073,3.3064,3.3094,3.3158,3.3119,3.2802,3.2407,3.1914,3.1583,3.1309,3.0996,3.0879,3.0821,3.08,3.08,3.08,3.08,3.08,3.08,3.08,3.0567,3.0216,2.9651,2.8892,3.0939,3.2256,3.128,3.1871,3.3143,3.3907,3.4298,3.4433,3.4536,3.543,3.6345,3.642,3.6584,3.7125,3.7433,3.7516,3.7632,3.789,3.8007,3.7712,3.7459,3.7039,3.6548,3.6259,3.5993,3.5486,3.5227,3.5321,3.4869,3.4832,3.4992,3.4979,3.5693,3.5797,3.5358,3.574,3.5679,3.5261,3.5072,3.5019,3.5111,3.5076,3.501,3.5153,3.5198,3.5235,3.5342,3.5418,3.5509,3.5869,3.6243,3.6666,3.6729,3.6945,3.702,3.743,3.7724,3.8326,3.8812,3.9045,3.8795,3.887,3.9256,3.9082,3.8868,3.8909,3.9492,3.9647,3.9664,3.9914,4.0033,3.9643,3.9371,3.912,3.8462,3.7849,3.7687,3.7664,3.7527,3.7157,3.6653,3.6395,3.6199,3.6232,3.5887,3.5853,3.5828,3.5798,3.5697,3.5243,3.4745,3.4002,3.4107,3.4173,3.4008,3.3895,3.3593,3.3157,3.264,3.2167,3.1892,3.1444,3.0918,3.086,3.08,3.08,3.08,3.08,3.08,3.08,3.08,3.08,3.0508,3.0099,2.9553,3.12,3.1684,3.1435,3.1847,3.2572,3.2798,3.3202,3.3524,3.294,3.3988,3.5528,3.5421,3.5725,3.672,3.6995,3.7111,3.7308,3.7904,3.8153,3.8094,3.7865,3.744,3.671,3.6492,3.5936,3.5412,3.5205,3.5233,3.5052,3.5053,3.5115,3.5139,3.5564,3.5415,3.5244,3.5626,3.543,3.5193,3.5089,3.5035,3.5161,3.5174,3.5161,3.5186,3.5194,3.5198,3.5285,3.5369,3.5437,3.5651,3.5795,3.5997,3.6101,3.6727,3.7411,3.8035,3.8501,3.912,3.9761,3.9977,3.9802,3.9723,3.9917,3.9856,3.9876,4.013,4.0228,4.0247,4.0303,4.0575,4.0653,4.0128,3.9718,3.9392,3.9045,3.8764,3.8486,3.8439,3.8387,3.7907,3.7326,3.6993,3.6776,3.6466,3.6023,3.5883,3.5887,3.5913,3.6113,3.5913,3.589,3.5371,3.5339,3.5305,3.5007,3.4708,3.4407,3.3997,3.3494,3.3003,3.2514,3.2127,3.17,3.1055,3.08,3.0879,3.0899,3.08,3.08,3.08,3.08,3.08,3.08,3.0488,2.9982,3.0698,3.0895,3.1328,3.1447,3.1552,3.2205,3.273,3.2844,3.2117,3.3138,3.51,3.4671,3.4878,3.6039,3.6302,3.6435,3.6701,3.7826,3.7933,3.8003,3.8151,3.8071,3.7512,3.6835,3.6334,3.5793,3.5335,3.5189,3.5174,3.5182,3.5174,3.5186,3.5186,3.5186,3.5186,3.5186,3.5186,3.5182,3.5105,3.5182,3.5262,3.5178,3.5145,3.5145,3.5186,3.5205,3.5202,3.5281,3.5368,3.5483,3.5654,3.613,3.6282,3.6457,3.7199,3.8074,3.8851,3.9647,4.048,4.081,4.0674,4.0519,4.048,4.0381,4.0419,4.0597,4.0597,4.0555,4.005,4.0186,4.0517,4.0225,4.0206,4.0033,3.9688,3.9365,3.9361,3.9438,3.9301,3.8979,3.8396,3.7851,3.7693,3.7653,3.7308,3.7297,3.7107,3.6939,3.6965,3.6782,3.6722,3.6459,3.6269,3.6024,3.563,3.5426,3.5257,3.4809,3.4313,3.3725,3.316,3.289,3.248,3.1719,3.1212,3.1134,3.1114,3.0879,3.08,3.08,3.08,3.08,3.08,3.08,3.0431,2.9963,3.0163,3.0974,3.0914,3.0452,3.1706,3.2401,3.2359,3.1641,3.2577,3.4469,3.3856,3.4226,3.4912,3.5205,3.5205,3.5698,3.6973,3.7387,3.7774,3.796,3.8056,3.7866,3.7352,3.6551,3.5844,3.5297,3.5151,3.5119,3.5119,3.5128,3.517,3.5186,3.5186,3.5186,3.5209,3.5218,3.5266,3.527,3.5368,3.5278,3.513,3.5157,3.5182,3.5194,3.5248,3.5301,3.5394,3.5469,3.5736,3.6011,3.6291,3.6553,3.6578,3.7236,3.8093,3.8792,3.9667,4.0499,4.0888,4.0849,4.0849,4.0888,4.0888,4.0869,4.0869,4.0869,4.0653,4.0148,4.007,4.0381,4.0536,4.0594,4.0577,4.0232,4.001,4.0151,4.0285,4.0103,3.9883,3.9366,3.8762,3.8647,3.8627,3.852,3.8566,3.8512,3.8495,3.8348,3.7994,3.7755,3.7211,3.6692,3.6445,3.6092,3.5863,3.5653,3.5519,3.4988,3.4377,3.3864,3.363,3.3125,3.2228,3.1819,3.1583,3.1153,3.084,3.08,3.08,3.08,3.08,3.08,3.08,3.08,2.9899,3.0192,3.0388,3.0343,3.0265,3.0586,3.1045,3.1461,3.0835,3.148,3.2882,3.3237,3.3696,3.5167,3.5186,3.5205,3.5377,3.6409,3.7154,3.7655,3.8113,3.8209,3.8001,3.7499,3.6281,3.5487,3.4952,3.4835,3.4973,3.5005,3.5054,3.5178,3.5186,3.5186,3.5186,3.5218,3.5242,3.5301,3.5368,3.5429,3.5447,3.5351,3.5342,3.5316,3.5258,3.5684,3.6027,3.6233,3.6736,3.7025,3.6961,3.6909,3.6935,3.7035,3.7601,3.8326,3.9006,3.9684,4.0441,4.081,4.0869,4.0733,4.0752,4.0888,4.0888,4.0888,4.0888,4.0888,4.0555,4.0555,4.0771,4.0771,4.0791,4.0791,4.0599,4.06,4.0692,4.0727,4.0662,4.04,4.0035,3.9689,3.9521,3.9315,3.8883,3.8829,3.8599,3.8621,3.9034,3.8903,3.8809,3.8102,3.7357,3.6609,3.6152,3.5984,3.5809,3.5793,3.5775,3.5352,3.4935,3.4467,3.3844,3.3027,3.2306,3.1896,3.1445,3.08,3.08,3.08,3.08,3.08,3.08,3.08,3.08]}]]